Want more features on Pastebin? Sign Up, it's FREE!
Guest

XBMC Log

By: Valpohawk on Apr 17th, 2012  |  syntax: None  |  size: 233.04 KB  |  views: 24  |  expires: Never
download  |  raw  |  embed  |  report abuse  |  print
Text below is selected. Please press Ctrl+C to copy to your clipboard. (⌘+C on Mac)
  1. 19:57:59 T:2796  NOTICE: -----------------------------------------------------------------------
  2. 19:57:59 T:2796  NOTICE: Starting XBMC (11.0 Git:20120321-14feb09), Platform: Windows 7, 32-bit Service Pack 1 build 7601. Built on Mar 21 2012 (compiler 1600)
  3. 19:57:59 T:2796  NOTICE: Intel(R) Core(TM)2 Duo CPU     E6850  @ 3.00GHz
  4. 19:57:59 T:2796  NOTICE: Desktop Resolution: 1366x768 32Bit at 60Hz
  5. 19:57:59 T:2796  NOTICE: Running with administrator rights
  6. 19:57:59 T:2796  NOTICE: Aero is enabled
  7. 19:57:59 T:2796  NOTICE: special://xbmc/ is mapped to: C:\Program Files\XBMC
  8. 19:57:59 T:2796  NOTICE: special://xbmcbin/ is mapped to: C:\Program Files\XBMC
  9. 19:57:59 T:2796  NOTICE: special://masterprofile/ is mapped to: C:\Users\Administrator\AppData\Roaming\XBMC\userdata
  10. 19:57:59 T:2796  NOTICE: special://home/ is mapped to: C:\Users\Administrator\AppData\Roaming\XBMC\
  11. 19:57:59 T:2796  NOTICE: special://temp/ is mapped to: C:\Users\Administrator\AppData\Roaming\XBMC\cache
  12. 19:57:59 T:2796  NOTICE: The executable running is: C:\Program Files\XBMC\XBMC.exe
  13. 19:57:59 T:2796  NOTICE: Local hostname: owner-PC
  14. 19:57:59 T:2796  NOTICE: Log File is located: C:\Users\Administrator\AppData\Roaming\XBMC\xbmc.log
  15. 19:57:59 T:2796  NOTICE: -----------------------------------------------------------------------
  16. 19:57:59 T:2796  NOTICE: Setup SDL
  17. 19:57:59 T:2796  NOTICE: Found screen: Generic PnP Monitor on ATI Radeon HD 5700 Series, adapter 0.
  18. 19:57:59 T:2796  NOTICE: Primary mode: 1366x768 @ 60.00 - Full Screen
  19. 19:57:59 T:2796  NOTICE: Additional mode: 640x480 @ 60.00 - Full Screen
  20. 19:57:59 T:2796  NOTICE: Additional mode: 640x480 @ 50.00 - Full Screen
  21. 19:57:59 T:2796  NOTICE: Additional mode: 640x480 @ 59.94 - Full Screen
  22. 19:57:59 T:2796  NOTICE: Additional mode: 640x480 @ 67.00 - Full Screen
  23. 19:57:59 T:2796  NOTICE: Additional mode: 640x480 @ 72.00 - Full Screen
  24. 19:57:59 T:2796  NOTICE: Additional mode: 640x480 @ 75.00 - Full Screen
  25. 19:57:59 T:2796  NOTICE: Additional mode: 720x480 @ 56.00 - Full Screen
  26. 19:57:59 T:2796  NOTICE: Additional mode: 720x480 @ 50.00 - Full Screen
  27. 19:57:59 T:2796  NOTICE: Additional mode: 720x480 @ 60.00 - Full Screen
  28. 19:57:59 T:2796  NOTICE: Additional mode: 720x480 @ 59.94 - Full Screen
  29. 19:57:59 T:2796  NOTICE: Additional mode: 720x480 @ 56.00 - Full Screen
  30. 19:57:59 T:2796  NOTICE: Additional mode: 720x480 @ 50.00 - Full Screen
  31. 19:57:59 T:2796  NOTICE: Additional mode: 720x480 @ 60.00 - Full Screen
  32. 19:57:59 T:2796  NOTICE: Additional mode: 720x480 @ 59.94 - Full Screen
  33. 19:57:59 T:2796  NOTICE: Additional mode: 720x480 @ 56.00 - Full Screen
  34. 19:57:59 T:2796  NOTICE: Additional mode: 720x480 @ 50.00 - Full Screen
  35. 19:57:59 T:2796  NOTICE: Additional mode: 720x480 @ 60.00 - Full Screen
  36. 19:57:59 T:2796  NOTICE: Additional mode: 720x480 @ 59.94 - Full Screen
  37. 19:57:59 T:2796  NOTICE: Additional mode: 720x480 @ 72.00 - Full Screen
  38. 19:57:59 T:2796  NOTICE: Previous line repeats 2 times.
  39. 19:57:59 T:2796  NOTICE: Additional mode: 720x480 @ 75.00 - Full Screen
  40. 19:57:59 T:2796  NOTICE: Previous line repeats 2 times.
  41. 19:57:59 T:2796  NOTICE: Additional mode: 800x600 @ 56.00 - Full Screen
  42. 19:57:59 T:2796  NOTICE: Additional mode: 800x600 @ 50.00 - Full Screen
  43. 19:57:59 T:2796  NOTICE: Additional mode: 800x600 @ 60.00 - Full Screen
  44. 19:57:59 T:2796  NOTICE: Additional mode: 800x600 @ 59.94 - Full Screen
  45. 19:57:59 T:2796  NOTICE: Additional mode: 800x600 @ 72.00 - Full Screen
  46. 19:57:59 T:2796  NOTICE: Additional mode: 800x600 @ 75.00 - Full Screen
  47. 19:57:59 T:2796  NOTICE: Additional mode: 1024x768 @ 60.00 - Full Screen
  48. 19:57:59 T:2796  NOTICE: Additional mode: 1024x768 @ 50.00 - Full Screen
  49. 19:57:59 T:2796  NOTICE: Additional mode: 1024x768 @ 59.94 - Full Screen
  50. 19:57:59 T:2796  NOTICE: Additional mode: 1024x768 @ 70.00 - Full Screen
  51. 19:57:59 T:2796  NOTICE: Additional mode: 1024x768 @ 75.00 - Full Screen
  52. 19:57:59 T:2796  NOTICE: Additional mode: 1280x720 @ 60.00 - Full Screen
  53. 19:57:59 T:2796  NOTICE: Additional mode: 1280x720 @ 50.00 - Full Screen
  54. 19:57:59 T:2796  NOTICE: Additional mode: 1280x720 @ 59.94 - Full Screen
  55. 19:57:59 T:2796  NOTICE: Additional mode: 1280x768 @ 60.00 - Full Screen
  56. 19:57:59 T:2796  NOTICE: Additional mode: 1280x768 @ 50.00 - Full Screen
  57. 19:57:59 T:2796  NOTICE: Additional mode: 1280x768 @ 59.94 - Full Screen
  58. 19:57:59 T:2796  NOTICE: Additional mode: 1280x768 @ 60.00 - Full Screen
  59. 19:57:59 T:2796  NOTICE: Additional mode: 1280x768 @ 50.00 - Full Screen
  60. 19:57:59 T:2796  NOTICE: Additional mode: 1280x768 @ 59.94 - Full Screen
  61. 19:57:59 T:2796  NOTICE: Additional mode: 1280x768 @ 60.00 - Full Screen
  62. 19:57:59 T:2796  NOTICE: Additional mode: 1280x768 @ 50.00 - Full Screen
  63. 19:57:59 T:2796  NOTICE: Additional mode: 1280x768 @ 59.94 - Full Screen
  64. 19:57:59 T:2796  NOTICE: Additional mode: 1280x800 @ 60.00 - Full Screen
  65. 19:57:59 T:2796  NOTICE: Additional mode: 1280x800 @ 50.00 - Full Screen
  66. 19:57:59 T:2796  NOTICE: Additional mode: 1280x800 @ 59.94 - Full Screen
  67. 19:57:59 T:2796  NOTICE: Additional mode: 1360x768 @ 60.00 - Full Screen
  68. 19:57:59 T:2796  NOTICE: Additional mode: 1360x768 @ 50.00 - Full Screen
  69. 19:57:59 T:2796  NOTICE: Additional mode: 1360x768 @ 59.94 - Full Screen
  70. 19:57:59 T:2796  NOTICE: Additional mode: 1360x768 @ 60.00 - Full Screen
  71. 19:57:59 T:2796  NOTICE: Additional mode: 1360x768 @ 50.00 - Full Screen
  72. 19:57:59 T:2796  NOTICE: Additional mode: 1360x768 @ 59.94 - Full Screen
  73. 19:57:59 T:2796  NOTICE: Additional mode: 1360x768 @ 60.00 - Full Screen
  74. 19:57:59 T:2796  NOTICE: Additional mode: 1360x768 @ 50.00 - Full Screen
  75. 19:57:59 T:2796  NOTICE: Additional mode: 1360x768 @ 59.94 - Full Screen
  76. 19:57:59 T:2796  NOTICE: Additional mode: 1366x768 @ 60.00 - Full Screen
  77. 19:57:59 T:2796  NOTICE: Additional mode: 1366x768 @ 50.00 - Full Screen
  78. 19:57:59 T:2796  NOTICE: Additional mode: 1366x768 @ 59.94 - Full Screen
  79. 19:57:59 T:2796  NOTICE: load settings...
  80. 19:57:59 T:2796  NOTICE: special://profile/ is mapped to: special://masterprofile/
  81. 19:57:59 T:2796  NOTICE: loading special://masterprofile/guisettings.xml
  82. 19:57:59 T:2796  NOTICE: Getting hardware information now...
  83. 19:57:59 T:2796  NOTICE: Checking resolution 12
  84. 19:57:59 T:2796  NOTICE: Loading player core factory settings from special://xbmc/system/playercorefactory.xml.
  85. 19:57:59 T:2796  NOTICE: Loaded playercorefactory configuration
  86. 19:57:59 T:2796  NOTICE: Loading player core factory settings from special://masterprofile/playercorefactory.xml.
  87. 19:57:59 T:2796  NOTICE: special://masterprofile/playercorefactory.xml does not exist. Skipping.
  88. 19:57:59 T:2796  NOTICE: No settings file to load (special://xbmc/system/advancedsettings.xml)
  89. 19:57:59 T:2796  NOTICE: No settings file to load (special://masterprofile/advancedsettings.xml)
  90. 19:57:59 T:2796  NOTICE: Default DVD Player: dvdplayer
  91. 19:57:59 T:2796  NOTICE: Default Video Player: dvdplayer
  92. 19:57:59 T:2796  NOTICE: Default Audio Player: paplayer
  93. 19:57:59 T:2796  NOTICE: Disabled debug logging due to GUI setting. Level 0.
  94. 19:57:59 T:2796  NOTICE: Log level changed to 0
  95. 19:57:59 T:2796  NOTICE: Loading media sources from special://masterprofile/sources.xml
  96. 19:57:59 T:2796  NOTICE: initializing playlistplayer
  97. 19:57:59 T:2796  NOTICE: DONE initializing playlistplayer
  98. 19:58:00 T:2796  NOTICE: CApplication::UpdateLibraries - Starting video library startup scan
  99. 19:58:00 T:2212  NOTICE: -->Python Interpreter Initialized<--
  100. 19:58:00 T:2796  NOTICE: initialize done
  101. 19:58:00 T:2796  NOTICE: Running the application...
  102. 19:58:00 T:2796  NOTICE: Webserver: Starting...
  103. 19:58:00 T:2796  NOTICE: WebServer: Started the webserver
  104. 19:58:00 T:2796  NOTICE: ES: Starting event server
  105. 19:58:00 T:532  NOTICE: -->Python Interpreter Initialized<--
  106. 19:58:00 T:3972  NOTICE: VideoInfoScanner: Starting scan ..
  107. 19:58:00 T:3584  NOTICE: ES: Starting UDP Event server on 0.0.0.0:9777
  108. 19:58:00 T:3584  NOTICE: UDP: Listening on port 9777
  109. 19:58:00 T:532  NOTICE: downloader ARGV: ['']
  110. 19:58:00 T:3256  NOTICE: -->Python Interpreter Initialized<--
  111. 19:58:00 T:2632  NOTICE: -->Python Interpreter Initialized<--
  112. 19:58:00 T:3676  NOTICE: -->Python Interpreter Initialized<--
  113. 19:58:00 T:3676  NOTICE:  StorageServer Module loaded RUN
  114. 19:58:00 T:3676  NOTICE: StorageClient-0.9.2 Starting server
  115. 19:58:00 T:3676  NOTICE: StorageServer-0.9.2 Storage Server starting C:\Users\Administrator\AppData\Roaming\XBMC\userdata\Database\commoncache.db
  116. 19:58:00 T:2212  NOTICE: Artwork Downloader: ## Service - Run at startup: False
  117. 19:58:00 T:2212  NOTICE: Artwork Downloader: ## Service - Delayed startup: -- minutes
  118. 19:58:00 T:2212  NOTICE: Artwork Downloader: ## Service - Run as service: False
  119. 19:58:00 T:2212  NOTICE: Artwork Downloader: ## Service - Time: 00:00
  120. 19:58:01 T:2708   ERROR: CRemoteControl::Connect - failed to connect
  121. 19:58:01 T:3392  NOTICE: -->Python Interpreter Initialized<--
  122. 19:58:04 T:3972  NOTICE: VideoInfoScanner: Finished scan. Scanning for video info took 00:04
  123. 19:58:26 T:2796  NOTICE: Log level changed to 2
  124. 19:58:26 T:2796  NOTICE: Enabled debug logging due to GUI setting. Level 2.
  125. 19:58:26 T:2796   DEBUG: ------ Window Init () ------
  126. 19:58:29 T:2796   DEBUG: SDLKeyboard: scancode: 01, sym: 001b, unicode: 001b, modifier: 0
  127. 19:58:29 T:2796   DEBUG: CApplication::OnKey: escape (f01b) pressed, action is PreviousMenu
  128. 19:58:29 T:2796   DEBUG: CGUIWindowManager::PreviousWindow: Deactivate
  129. 19:58:29 T:2796   DEBUG: ------ Window Deinit (SettingsCategory.xml) ------
  130. 19:58:29 T:2796   DEBUG: CGUIWindowManager::PreviousWindow: Activate new
  131. 19:58:29 T:2796   DEBUG: ------ Window Init (Settings.xml) ------
  132. 19:58:29 T:2796    INFO: Loading skin file: Settings.xml
  133. 19:58:29 T:2796   DEBUG: SDLKeyboard: scancode: 01, sym: 001b, unicode: 001b, modifier: 0
  134. 19:58:29 T:2796   DEBUG: CApplication::OnKey: escape (f01b) pressed, action is PreviousMenu
  135. 19:58:29 T:2796   DEBUG: CGUIWindowManager::PreviousWindow: Deactivate
  136. 19:58:30 T:2796   DEBUG: ------ Window Deinit (Settings.xml) ------
  137. 19:58:30 T:2796   DEBUG: CGUIWindowManager::PreviousWindow: Activate new
  138. 19:58:30 T:2796   DEBUG: ------ Window Init (Home.xml) ------
  139. 19:58:30 T:2796    INFO: Loading skin file: Home.xml
  140. 19:58:30 T:2796   DEBUG: CApplication::ExecuteXBMCAction : Translating ClearProperty(DontRunTVShowScripts,Home)
  141. 19:58:30 T:2796   DEBUG: CApplication::ExecuteXBMCAction : To ClearProperty(DontRunTVShowScripts,Home)
  142. 19:58:31 T:2796   DEBUG: SDLKeyboard: scancode: 4b, sym: 0114, unicode: 0000, modifier: 0
  143. 19:58:31 T:2796   DEBUG: CApplication::OnKey: left (f082) pressed, action is Left
  144. 19:58:31 T:2796   DEBUG: SDLKeyboard: scancode: 4b, sym: 0114, unicode: 0000, modifier: 0
  145. 19:58:31 T:2796   DEBUG: CApplication::OnKey: left (f082) pressed, action is Left
  146. 19:58:31 T:2796   DEBUG: SDLKeyboard: scancode: 4b, sym: 0114, unicode: 0000, modifier: 0
  147. 19:58:31 T:2796   DEBUG: CApplication::OnKey: left (f082) pressed, action is Left
  148. 19:58:32 T:2796   DEBUG: SDLKeyboard: scancode: 4b, sym: 0114, unicode: 0000, modifier: 0
  149. 19:58:32 T:2796   DEBUG: CApplication::OnKey: left (f082) pressed, action is Left
  150. 19:58:33 T:2796   DEBUG: SDLKeyboard: scancode: 50, sym: 0112, unicode: 0000, modifier: 0
  151. 19:58:33 T:2796   DEBUG: CApplication::OnKey: down (f081) pressed, action is Down
  152. 19:58:33 T:2796   DEBUG: SDLKeyboard: scancode: 4d, sym: 0113, unicode: 0000, modifier: 0
  153. 19:58:33 T:2796   DEBUG: CApplication::OnKey: right (f083) pressed, action is Right
  154. 19:58:33 T:2796   DEBUG: SDLKeyboard: scancode: 4d, sym: 0113, unicode: 0000, modifier: 0
  155. 19:58:33 T:2796   DEBUG: CApplication::OnKey: right (f083) pressed, action is Right
  156. 19:58:34 T:2796   DEBUG: SDLKeyboard: scancode: 4d, sym: 0113, unicode: 0000, modifier: 0
  157. 19:58:34 T:2796   DEBUG: CApplication::OnKey: right (f083) pressed, action is Right
  158. 19:58:34 T:2796   DEBUG: SDLKeyboard: scancode: 4d, sym: 0113, unicode: 0000, modifier: 0
  159. 19:58:34 T:2796   DEBUG: CApplication::OnKey: right (f083) pressed, action is Right
  160. 19:58:34 T:2796   DEBUG: SDLKeyboard: scancode: 4d, sym: 0113, unicode: 0000, modifier: 0
  161. 19:58:34 T:2796   DEBUG: CApplication::OnKey: right (f083) pressed, action is Right
  162. 19:58:35 T:2796    INFO: XCURL::DllLibCurlGlobal::CheckIdle - Closing session to http://api.themoviedb.org (easy=024146D0, multi=00237EE0)
  163. 19:58:35 T:2796   DEBUG: SDLKeyboard: scancode: 4d, sym: 0113, unicode: 0000, modifier: 0
  164. 19:58:35 T:2796   DEBUG: CApplication::OnKey: right (f083) pressed, action is Right
  165. 19:58:35 T:2796   DEBUG: SDLKeyboard: scancode: 4d, sym: 0113, unicode: 0000, modifier: 0
  166. 19:58:35 T:2796   DEBUG: CApplication::OnKey: right (f083) pressed, action is Right
  167. 19:58:35 T:2796   DEBUG: SDLKeyboard: scancode: 1c, sym: 000d, unicode: 000d, modifier: 0
  168. 19:58:35 T:2796   DEBUG: CApplication::OnKey: return (f00d) pressed, action is Select
  169. 19:58:35 T:2796   DEBUG: CApplication::ExecuteXBMCAction : Translating SetProperty(DontRunTVShowScripts,True,Home)
  170. 19:58:35 T:2796   DEBUG: CApplication::ExecuteXBMCAction : To SetProperty(DontRunTVShowScripts,True,Home)
  171. 19:58:35 T:2796   DEBUG: CApplication::ExecuteXBMCAction : Translating XBMC.RunScript(script.cinema.experience,movietitles)
  172. 19:58:35 T:2796   DEBUG: CApplication::ExecuteXBMCAction : To XBMC.RunScript(script.cinema.experience,movietitles)
  173. 19:58:35 T:2796    INFO: initializing python engine.
  174. 19:58:35 T:2796   DEBUG: new python thread created. id=7
  175. 19:58:35 T:3472   DEBUG: Thread XBPyThread start, auto delete: 0
  176. 19:58:35 T:3472   DEBUG: Python thread: start processing
  177. 19:58:35 T:3472  NOTICE: -->Python Interpreter Initialized<--
  178. 19:58:35 T:3472   DEBUG: XBPyThread::Process - The source file to load is C:\Users\Administrator\AppData\Roaming\XBMC\addons\script.cinema.experience\addon.py
  179. 19:58:35 T:3472   DEBUG: XBPyThread::Process - Setting the Python path to C:\Users\Administrator\AppData\Roaming\XBMC\addons\script.cinema.experience;C:\Program Files\XBMC\addons\script.module.simplejson\lib;C:\Program Files\XBMC\addons\script.module.pil\lib;C:\Users\Administrator\AppData\Roaming\XBMC\addons\script.common.plugin.cache\lib;C:\Users\Administrator\AppData\Roaming\XBMC\addons\script.module.simple.downloader\lib;C:\Users\Administrator\AppData\Roaming\XBMC\addons\script.module.parsedom\lib;C:\Users\Administrator\AppData\Roaming\XBMC\addons\script.module.elementtree\lib;C:\Program Files\XBMC\addons\script.module.pysqlite\lib;C:\Program Files\XBMC\system\python\DLLs;C:\Program Files\XBMC\system\python\Lib;C:\Program Files\XBMC\python26.zip;C:\Program Files\XBMC\system\python\lib\plat-win;C:\Program Files\XBMC\system\python\lib\lib-tk;C:\Program Files\XBMC;C:\Program Files\XBMC\system\python;C:\Program Files\XBMC\system\python\lib\site-packages;
  180. 19:58:35 T:3472   DEBUG: XBPyThread::Process - Entering source directory C:\Users\Administrator\AppData\Roaming\XBMC\addons\script.cinema.experience
  181. 19:58:35 T:3472   DEBUG: Instantiating addon using automatically obtained id of "script.cinema.experience" dependent on version 2.0 of the xbmc.python api
  182. 19:58:36 T:2796   DEBUG: HttpApi Start command: GetGuiSetting  paras: GetGuiSetting; 1; videoplayer.adjustrefreshrate
  183. 19:58:36 T:2796   DEBUG: HttpApi Start command: GetGUISetting  paras: GetGUISetting; 3;screensaver.mode
  184. 19:58:36 T:3472  NOTICE: [ script.cinema.experience ] - Script Name: Cinema Experience
  185. 19:58:36 T:3472  NOTICE: [ script.cinema.experience ] - Script ID: script.cinema.experience
  186. 19:58:36 T:3472  NOTICE: [ script.cinema.experience ] - Script Version: 2.0.53
  187. 19:58:36 T:3472  NOTICE: [ script.cinema.experience ] - Autorefresh - Before Script: False
  188. 19:58:36 T:3472  NOTICE: [ script.cinema.experience ] - Starting Window ID: 10000
  189. 19:58:36 T:2796   DEBUG: HttpApi Start command: GetLogLevel  paras: GetLogLevel
  190. 19:58:36 T:3472  NOTICE: [ script.cinema.experience ] - Log Level: 2
  191. 19:58:36 T:3472   DEBUG: [ script.cinema.experience ] - Settings
  192. 19:58:36 T:3472   DEBUG: [ script.cinema.experience ] -            audio_videos_folder: C:\Videos\Audio\
  193. 19:58:36 T:3472   DEBUG: [ script.cinema.experience ] -                    autorefresh: true
  194. 19:58:36 T:3472   DEBUG: [ script.cinema.experience ] -              autorefresh_movie: true
  195. 19:58:36 T:3472   DEBUG: [ script.cinema.experience ] -                      cav_intro: 1
  196. 19:58:36 T:3472   DEBUG: [ script.cinema.experience ] -                 cav_intro_file: C:\Videos\Coming Attractions Intro\WalkIn-SneakPreview_512kb.avi
  197. 19:58:36 T:3472   DEBUG: [ script.cinema.experience ] -               cav_intro_folder: C:\Coming Attractions Intro\
  198. 19:58:36 T:3472   DEBUG: [ script.cinema.experience ] -                      cav_outro: 0
  199. 19:58:36 T:3472   DEBUG: [ script.cinema.experience ] -                 cav_outro_file:
  200. 19:58:36 T:3472   DEBUG: [ script.cinema.experience ] -               cav_outro_folder: C:\Coming Attractions Outro\
  201. 19:58:36 T:3472   DEBUG: [ script.cinema.experience ] -                countdown_video: 2
  202. 19:58:36 T:3472   DEBUG: [ script.cinema.experience ] -           countdown_video_file: C:\Videos\Intermission Countdown\Intermission-Walk-in_512kb.avi
  203. 19:58:36 T:3472   DEBUG: [ script.cinema.experience ] -         countdown_video_folder: C:\Videos\Intermission Countdown\
  204. 19:58:36 T:3472   DEBUG: [ script.cinema.experience ] -                   enable_audio: false
  205. 19:58:36 T:3472   DEBUG: [ script.cinema.experience ] -            enable_notification: true
  206. 19:58:36 T:3472   DEBUG: [ script.cinema.experience ] -                 enable_ratings: false
  207. 19:58:36 T:3472   DEBUG: [ script.cinema.experience ] -                      fpv_intro: 2
  208. 19:58:36 T:3472   DEBUG: [ script.cinema.experience ] -                 fpv_intro_file: C:\Videos\Feature Presentation Intro\Jayhawk Feature Presentation.wmv
  209. 19:58:36 T:3472   DEBUG: [ script.cinema.experience ] -               fpv_intro_folder: C:\Videos\Feature Presentation Intro\
  210. 19:58:36 T:3472   DEBUG: [ script.cinema.experience ] -                      fpv_outro: 0
  211. 19:58:36 T:3472   DEBUG: [ script.cinema.experience ] -                 fpv_outro_file: C:\Feature Presentation Outro\Jayhawk Feature Presentation.wmv
  212. 19:58:36 T:3472   DEBUG: [ script.cinema.experience ] -               fpv_outro_folder:
  213. 19:58:36 T:3472   DEBUG: [ script.cinema.experience ] -                ha_audio_format: false
  214. 19:58:36 T:3472   DEBUG: [ script.cinema.experience ] -                   ha_cav_intro: false
  215. 19:58:36 T:3472   DEBUG: [ script.cinema.experience ] -                   ha_cav_outro: false
  216. 19:58:36 T:3472   DEBUG: [ script.cinema.experience ] -             ha_countdown_video: false
  217. 19:58:36 T:3472   DEBUG: [ script.cinema.experience ] -                      ha_enable: true
  218. 19:58:36 T:3472   DEBUG: [ script.cinema.experience ] -                   ha_fpv_intro: false
  219. 19:58:36 T:3472   DEBUG: [ script.cinema.experience ] -                   ha_fpv_outro: false
  220. 19:58:36 T:3472   DEBUG: [ script.cinema.experience ] -                ha_intermission: false
  221. 19:58:36 T:3472   DEBUG: [ script.cinema.experience ] -                       ha_movie: false
  222. 19:58:36 T:3472   DEBUG: [ script.cinema.experience ] -                 ha_mpaa_rating: false
  223. 19:58:36 T:3472   DEBUG: [ script.cinema.experience ] -                   ha_mte_intro: false
  224. 19:58:36 T:3472   DEBUG: [ script.cinema.experience ] -                   ha_mte_outro: false
  225. 19:58:36 T:3472   DEBUG: [ script.cinema.experience ] -               ha_multi_trigger: true
  226. 19:58:36 T:3472   DEBUG: [ script.cinema.experience ] -                      ha_paused: false
  227. 19:58:36 T:3472   DEBUG: [ script.cinema.experience ] -                     ha_resumed: false
  228. 19:58:36 T:3472   DEBUG: [ script.cinema.experience ] -                  ha_script_end: false
  229. 19:58:36 T:3472   DEBUG: [ script.cinema.experience ] -                ha_script_start: true
  230. 19:58:36 T:3472   DEBUG: [ script.cinema.experience ] -               ha_trailer_start: false
  231. 19:58:36 T:3472   DEBUG: [ script.cinema.experience ] -                ha_trivia_intro: false
  232. 19:58:36 T:3472   DEBUG: [ script.cinema.experience ] -                ha_trivia_outro: false
  233. 19:58:36 T:3472   DEBUG: [ script.cinema.experience ] -                ha_trivia_start: false
  234. 19:58:36 T:3472   DEBUG: [ script.cinema.experience ] -             intermission_audio: false
  235. 19:58:36 T:3472   DEBUG: [ script.cinema.experience ] -           intermission_ratings: false
  236. 19:58:36 T:3472   DEBUG: [ script.cinema.experience ] -             intermission_video: 2
  237. 19:58:36 T:3472   DEBUG: [ script.cinema.experience ] -        intermission_video_file:
  238. 19:58:36 T:3472   DEBUG: [ script.cinema.experience ] -      intermission_video_folder: C:\Videos\Intermission\
  239. 19:58:36 T:3472   DEBUG: [ script.cinema.experience ] -                      mte_intro: 4
  240. 19:58:36 T:3472   DEBUG: [ script.cinema.experience ] -                 mte_intro_file: C:\Videos\Movie Theater Intro\welcome_animation.avi
  241. 19:58:36 T:3472   DEBUG: [ script.cinema.experience ] -               mte_intro_folder: C:\Videos\Movie Theater Intro\
  242. 19:58:36 T:3472   DEBUG: [ script.cinema.experience ] -                      mte_outro: 0
  243. 19:58:36 T:3472   DEBUG: [ script.cinema.experience ] -                 mte_outro_file:
  244. 19:58:36 T:3472   DEBUG: [ script.cinema.experience ] -               mte_outro_folder: C:\Movie Theater Outro\
  245. 19:58:36 T:3472   DEBUG: [ script.cinema.experience ] -             number_of_features: 0
  246. 19:58:36 T:3472   DEBUG: [ script.cinema.experience ] -                       pre_eden: false
  247. 19:58:36 T:3472   DEBUG: [ script.cinema.experience ] -           rating_videos_folder:
  248. 19:58:36 T:3472   DEBUG: [ script.cinema.experience ] -            trailer_amt_db_file: special://profile/addon_data/script.apple.movie.trailers/AMT.db
  249. 19:58:36 T:3472   DEBUG: [ script.cinema.experience ] -                  trailer_count: 2
  250. 19:58:36 T:3472   DEBUG: [ script.cinema.experience ] -        trailer_download_folder: C:\Videos\Trailers\
  251. 19:58:36 T:3472   DEBUG: [ script.cinema.experience ] -                 trailer_folder: C:\Videos\Trailers\
  252. 19:58:36 T:3472   DEBUG: [ script.cinema.experience ] -                trailer_hd_only: false
  253. 19:58:36 T:3472   DEBUG: [ script.cinema.experience ] -            trailer_limit_genre: false
  254. 19:58:36 T:3472   DEBUG: [ script.cinema.experience ] -             trailer_limit_mpaa: false
  255. 19:58:36 T:3472   DEBUG: [ script.cinema.experience ] -            trailer_newest_only: false
  256. 19:58:36 T:3472   DEBUG: [ script.cinema.experience ] -              trailer_play_mode: 0
  257. 19:58:36 T:3472   DEBUG: [ script.cinema.experience ] -                trailer_quality: 3
  258. 19:58:36 T:3472   DEBUG: [ script.cinema.experience ] -                 trailer_rating: --
  259. 19:58:36 T:3472   DEBUG: [ script.cinema.experience ] -                trailer_scraper: 1
  260. 19:58:36 T:3472   DEBUG: [ script.cinema.experience ] -         trailer_unwatched_only: true
  261. 19:58:36 T:3472   DEBUG: [ script.cinema.experience ] -           trivia_adjust_volume: true
  262. 19:58:36 T:3472   DEBUG: [ script.cinema.experience ] -               trivia_fade_time: 1.907904
  263. 19:58:36 T:3472   DEBUG: [ script.cinema.experience ] -             trivia_fade_volume: false
  264. 19:58:36 T:3472   DEBUG: [ script.cinema.experience ] -                  trivia_folder: C:\Videos\Trivia\
  265. 19:58:36 T:3472   DEBUG: [ script.cinema.experience ] -                   trivia_intro: 1
  266. 19:58:36 T:3472   DEBUG: [ script.cinema.experience ] -              trivia_intro_file: C:\Videos\Trivia Intro\welcome_animation.avi
  267. 19:58:36 T:3472   DEBUG: [ script.cinema.experience ] -            trivia_intro_folder: C:\Videos\Trivia Intro\
  268. 19:58:36 T:3472   DEBUG: [ script.cinema.experience ] -             trivia_limit_query: false
  269. 19:58:36 T:3472   DEBUG: [ script.cinema.experience ] -                    trivia_mode: 1
  270. 19:58:36 T:3472   DEBUG: [ script.cinema.experience ] -          trivia_moviequiz_mode: 0
  271. 19:58:36 T:3472   DEBUG: [ script.cinema.experience ] -        trivia_moviequiz_qlimit: 15.000000
  272. 19:58:36 T:3472   DEBUG: [ script.cinema.experience ] -                   trivia_music: 1
  273. 19:58:36 T:3472   DEBUG: [ script.cinema.experience ] -              trivia_music_file: C:\Videos\Audio\Cuban Pete1.mp3
  274. 19:58:36 T:3472   DEBUG: [ script.cinema.experience ] -            trivia_music_folder:
  275. 19:58:36 T:3472   DEBUG: [ script.cinema.experience ] -            trivia_music_volume: 100.000000
  276. 19:58:36 T:3472   DEBUG: [ script.cinema.experience ] -                   trivia_outro: 3
  277. 19:58:36 T:3472   DEBUG: [ script.cinema.experience ] -              trivia_outro_file: C:\Videos\Trivia Outro\Pixar_-_Boundin_(Short_Film).avi
  278. 19:58:36 T:3472   DEBUG: [ script.cinema.experience ] -            trivia_outro_folder: C:\Videos\Trivia Outro\
  279. 19:58:36 T:3472   DEBUG: [ script.cinema.experience ] -                  trivia_rating: --
  280. 19:58:36 T:3472   DEBUG: [ script.cinema.experience ] -              trivia_slide_time: 10.000000
  281. 19:58:36 T:3472   DEBUG: [ script.cinema.experience ] -              trivia_total_time: 1.000000
  282. 19:58:36 T:3472   DEBUG: [ script.cinema.experience ] -          trivia_unwatched_only: false
  283. 19:58:36 T:3472   DEBUG: [ script.cinema.experience ] -                    voxcommando: false
  284. 19:58:36 T:3472  NOTICE: [ script.cinema.experience ] - Script Started With: movietitles
  285. 19:58:36 T:3472  NOTICE: [ script.cinema.experience ] - Video Playlist Cleared
  286. 19:58:36 T:3472  NOTICE: [ script.cinema.experience ] - Music Playlist Cleared
  287. 19:58:36 T:3472  NOTICE: [ script.cinema.experience ] - Library_view: movietitles
  288. 19:58:36 T:3472  NOTICE: [ script.cinema.experience ] - auto_refresh( False, disable )
  289. 19:58:36 T:2796   DEBUG: HttpApi Start command: GetGuiSetting  paras: GetGuiSetting; 1; videoplayer.adjustrefreshrate
  290. 19:58:36 T:3472  NOTICE: [ script.cinema.experience ] - Autorefresh Status: False
  291. 19:58:36 T:2796   DEBUG: Activating window ID: 10025
  292. 19:58:36 T:2796   DEBUG: ------ Window Deinit (Home.xml) ------
  293. 19:58:36 T:2796   DEBUG: ------ Window Init (MyVideoNav.xml) ------
  294. 19:58:36 T:2796    INFO: Loading skin file: MyVideoNav.xml
  295. 19:58:37 T:2796   DEBUG: CGUIMediaWindow::GetDirectory (videodb://1/2/)
  296. 19:58:37 T:2796   DEBUG:   ParentPath = [videodb://1/2/]
  297. 19:58:37 T:2796   DEBUG: CVideoDatabase::RunQuery took 0 ms for 3 items query: SELECT sets.idSet,sets.strSet,COUNT(1) AS c,count(files.playCount) FROM sets JOIN setlinkmovie ON sets.idSet=setlinkmovie.idSet JOIN movie ON setlinkmovie.idMovie=movie.idMovie JOIN files ON files.idFile=movie.idFile  GROUP BY sets.idSet HAVING c>1
  298. 19:58:37 T:2796   DEBUG: CVideoDatabase::RunQuery took 1 ms for 6 items query: select * from movieview  WHERE movieview.idMovie NOT IN (SELECT idMovie FROM setlinkmovie s1 JOIN(SELECT idSet, COUNT(1) AS c FROM setlinkmovie GROUP BY idSet HAVING c>1) s2 ON s2.idSet=s1.idSet)
  299. 19:58:37 T:2796   DEBUG: Saving fileitems [videodb://1/2/]
  300. 19:58:37 T:2796   DEBUG:   -- items: 9, sort method: 25, ascending: true
  301. 19:58:37 T:2540   DEBUG: Thread Background Loader start, auto delete: 0
  302. 19:58:37 T:3472  NOTICE: [ script.cinema.experience ] - Waiting for queue to be filled with 1 Feature films
  303. 19:58:37 T:2540   DEBUG: Thread Background Loader 2540 terminating
  304. 19:58:37 T:2796   DEBUG: ------ Window Init (DialogKaiToast.xml) ------
  305. 19:58:37 T:3312   DEBUG: CImageLoader::DoWork - took 223 ms to load special://masterprofile/Thumbnails/Video/a/ac92ebbd.tbn
  306. 19:58:37 T:3312   DEBUG: CThumbExtractor::DoWork - trying to extract filestream details from video file C:\Movies\Gladiator\VIDEO_TS\VIDEO_TS.IFO
  307. 19:58:37 T:3312   DEBUG: CThumbExtractor::DoWork - trying to extract filestream details from video file C:\Movies\Old School\VIDEO_TS\VIDEO_TS.IFO
  308. 19:58:37 T:3312   DEBUG: CThumbExtractor::DoWork - trying to extract filestream details from video file C:\Movies\National Lampoons Christmas Vacation\VIDEO_TS\VIDEO_TS.IFO
  309. 19:58:37 T:3928   DEBUG: Thread Jobworker start, auto delete: 1
  310. 19:58:38 T:2796   DEBUG: SDLKeyboard: scancode: 10, sym: 0071, unicode: 0071, modifier: 0
  311. 19:58:38 T:2796   DEBUG: CApplication::OnKey: q (f051) pressed, action is Queue
  312. 19:58:38 T:3472  NOTICE: [ script.cinema.experience ] - User queued 1 Feature films
  313. 19:58:38 T:3472   DEBUG: [ script.cinema.experience ] - [ pre_eden_code.py ] - _get_queued_video_info() Started
  314. 19:58:38 T:3472  NOTICE: [script.cinema.experience] - Storing Playlist
  315. 19:58:38 T:3472   DEBUG: [json_utils.py] - JSONRPC Query -
  316.                                             {"jsonrpc": "2.0", "method": "Playlist.GetItems", "params": {"playlistid": 1, "properties": ["title", "file", "thumbnail", "streamdetails", "mpaa", "genre"] }, "id": 1}
  317. 19:58:38 T:3472   DEBUG: JSONRPC: Incoming request: {"jsonrpc": "2.0", "method": "Playlist.GetItems", "params": {"playlistid": 1, "properties": ["title", "file", "thumbnail", "streamdetails", "mpaa", "genre"] }, "id": 1}
  318. 19:58:38 T:3472   DEBUG: JSONRPC: Calling playlist.getitems
  319. 19:58:38 T:3472   DEBUG: [json_utils.py] - retrieve_json_dict - JSONRPC -
  320.                                             {"id":1,"jsonrpc":"2.0","result":{"items":[{"file":"C:\\Movies\\The 40-Year-Old Virgin\\VIDEO_TS\\VIDEO_TS.IFO","genre":"Comedy / Romance","id":11,"label":"The 40 Year Old Virgin","mpaa":"Rated R","streamdetails":{"audio":[{"channels":6,"codec":"ac3","language":""},{"channels":2,"codec":"ac3","language":""},{"channels":2,"codec":"ac3","language":""},{"channels":2,"codec":"ac3","language":""}],"video":[{"aspect":1.7777780294418335,"codec":"mpeg2video","duration":7940,"height":480,"width":720}]},"thumbnail":"special://masterprofile/Thumbnails/Video/5/59360c0b.tbn","title":"The 40 Year Old Virgin","type":"movie"}],"limits":{"end":1,"start":0,"total":1}}}
  321. 19:58:38 T:3472   DEBUG: [ script.cinema.experience ] - [ pre_eden_code.py ] - Queued Movie Information
  322. 19:58:38 T:3472   DEBUG: [ script.cinema.experience ] - [ pre_eden_code.py ] ----------------------------------------------------------------------
  323. 19:58:38 T:3472   DEBUG: [ script.cinema.experience ] - [ pre_eden_code.py ] - Title: The 40 Year Old Virgin
  324. 19:58:38 T:3472   DEBUG: [ script.cinema.experience ] - [ pre_eden_code.py ] - Path: C:\Movies\The 40-Year-Old Virgin\VIDEO_TS\VIDEO_TS.IFO
  325. 19:58:38 T:3472   DEBUG: [ script.cinema.experience ] - [ pre_eden_code.py ] - Genre: Comedy / Romance
  326. 19:58:38 T:3472   DEBUG: [ script.cinema.experience ] - [ pre_eden_code.py ] - MPAA: R
  327. 19:58:38 T:3472   DEBUG: [ script.cinema.experience ] - [ pre_eden_code.py ] - Audio: ac3
  328. 19:58:38 T:3472   DEBUG: [ script.cinema.experience ] - [ pre_eden_code.py ] - Folder: ('C:\\Videos\\Audio\\Dolby\\',)
  329. 19:58:38 T:3472   DEBUG: [ script.cinema.experience ] - [ pre_eden_code.py ]  ----------------------------------------------------------------------
  330. 19:58:38 T:3472  NOTICE: [ script.cinema.experience ] - Feature - The 40 Year Old Virgin
  331. 19:58:38 T:3472  NOTICE: [script.cinema.experience] - Storing Playlist
  332. 19:58:38 T:3472   DEBUG: [json_utils.py] - JSONRPC Query -
  333.                                             {"jsonrpc": "2.0", "method": "Playlist.GetItems", "params": {"playlistid": 1, "properties": ["title", "file", "thumbnail", "streamdetails", "mpaa", "genre"] }, "id": 1}
  334. 19:58:38 T:3472   DEBUG: JSONRPC: Incoming request: {"jsonrpc": "2.0", "method": "Playlist.GetItems", "params": {"playlistid": 1, "properties": ["title", "file", "thumbnail", "streamdetails", "mpaa", "genre"] }, "id": 1}
  335. 19:58:38 T:3472   DEBUG: JSONRPC: Calling playlist.getitems
  336. 19:58:38 T:3472   DEBUG: [json_utils.py] - retrieve_json_dict - JSONRPC -
  337.                                             {"id":1,"jsonrpc":"2.0","result":{"items":[{"file":"C:\\Movies\\The 40-Year-Old Virgin\\VIDEO_TS\\VIDEO_TS.IFO","genre":"Comedy / Romance","id":11,"label":"The 40 Year Old Virgin","mpaa":"Rated R","streamdetails":{"audio":[{"channels":6,"codec":"ac3","language":""},{"channels":2,"codec":"ac3","language":""},{"channels":2,"codec":"ac3","language":""},{"channels":2,"codec":"ac3","language":""}],"video":[{"aspect":1.7777780294418335,"codec":"mpeg2video","duration":7940,"height":480,"width":720}]},"thumbnail":"special://masterprofile/Thumbnails/Video/5/59360c0b.tbn","title":"The 40 Year Old Virgin","type":"movie"}],"limits":{"end":1,"start":0,"total":1}}}
  338. 19:58:38 T:3472    INFO: Loading skin file: DialogProgress.xml
  339. 19:58:38 T:1016  NOTICE: [script.cinema.experience] - [ home_automation.py ] - activate_on( Script Start ) Triggered
  340. 19:58:38 T:3472   DEBUG: DialogProgress::StartModal called
  341. 19:58:38 T:3472   DEBUG: ------ Window Init (DialogProgress.xml) ------
  342. 19:58:38 T:1016  NOTICE: [script.cinema.experience] - [ home_automation.py ] - Script Start Triggered
  343. 19:58:38 T:3472  NOTICE: [ script.cinema.experience ] - [ ce_playlist.py ] - Building Music Playlist
  344. 19:58:38 T:3472   DEBUG: JSONRPC: Incoming request: {"jsonrpc": "2.0", "method": "AudioPlaylist.Clear", "id": 1}
  345. 19:58:38 T:3472   DEBUG: JSONRPC: Calling audioplaylist.clear
  346. 19:58:38 T:3472  NOTICE: [ script.cinema.experience ] - Slide MPAA Rating: R
  347. 19:58:38 T:3472   DEBUG: [script.cinema.experience] - Loading Watch Slide List
  348. 19:58:38 T:3472   DEBUG: [folder.py] - dirEntries Activated
  349. 19:58:38 T:3472   DEBUG: [folder.py] - escapeDirJSON Activated
  350. 19:58:38 T:3472   DEBUG: [json_utils.py] - JSONRPC Query -
  351.                                             {"jsonrpc": "2.0", "method": "Files.GetDirectory", "params": {"directory": "C:\\Videos\\Trivia\\", "media": "files"}, "id": 1}
  352. 19:58:38 T:3472   DEBUG: JSONRPC: Incoming request: {"jsonrpc": "2.0", "method": "Files.GetDirectory", "params": {"directory": "C:\\Videos\\Trivia\\", "media": "files"}, "id": 1}
  353. 19:58:38 T:3472   DEBUG: JSONRPC: Calling files.getdirectory
  354. 19:58:38 T:3472   DEBUG: CUtil::GetMatchingSource: no matching source found for [C:\Videos\Trivia\]
  355. 19:58:39 T:3472   DEBUG: Previous line repeats 4 times.
  356. 19:58:39 T:3472   DEBUG: [json_utils.py] - retrieve_json_dict - JSONRPC -
  357.                                             {"id":1,"jsonrpc":"2.0","result":{"files":[{"file":"C:\\Videos\\Trivia\\ABugsLife01.jpg","filetype":"file","label":"ABugsLife01.jpg","type":"unknown"},{"file":"C:\\Videos\\Trivia\\ABugsLife02.jpg","filetype":"file","label":"ABugsLife02.jpg","type":"unknown"},{"file":"C:\\Videos\\Trivia\\ABugsLife03.jpg","filetype":"file","label":"ABugsLife03.jpg","type":"unknown"},{"file":"C:\\Videos\\Trivia\\ABugsLife04.jpg","filetype":"file","label":"ABugsLife04.jpg","type":"unknown"},{"file":"C:\\Videos\\Trivia\\ABugsLife05.jpg","filetype":"file","label":"ABugsLife05.jpg","type":"unknown"},{"file":"C:\\Videos\\Trivia\\ABugsLife06.jpg","filetype":"file","label":"ABugsLife06.jpg","type":"unknown"},{"file":"C:\\Videos\\Trivia\\ABugsLife07.jpg","filetype":"file","label":"ABugsLife07.jpg","type":"unknown"},{"file":"C:\\Videos\\Trivia\\ABugsLife08.jpg","filetype":"file","label":"ABugsLife08.jpg","type":"unknown"},{"file":"C:\\Videos\\Trivia\\ABugsLife09.jpg","filetype":"file","label":"ABugsLife09.jpg","type":"unknown"},{"file":"C:\\Videos\\Trivia\\ABugsLife10.jpg","filetype":"file","label":"ABugsLife10.jpg","type":"unknown"},{"file":"C:\\Videos\\Trivia\\ABugsLife11.jpg","filetype":"file","label":"ABugsLife11.jpg","type":"unknown"},{"file":"C:\\Videos\\Trivia\\ABugsLife12.jpg","filetype":"file","label":"ABugsLife12.jpg","type":"unknown"},{"file":"C:\\Videos\\Trivia\\ABugsLife13.jpg","filetype":"file","label":"ABugsLife13.jpg","type":"unknown"},{"file":"C:\\Videos\\Trivia\\ABugsLife14.jpg","filetype":"file","label":"ABugsLife14.jpg","type":"unknown"},{"file":"C:\\Videos\\Trivia\\ABugsLife15.jpg","filetype":"file","label":"ABugsLife15.jpg","type":"unknown"},{"file":"C:\\Videos\\Trivia\\Annoyed Msg.jpg","filetype":"file","label":"Annoyed Msg.jpg","type":"unknown"},{"file":"C:\\Videos\\Trivia\\Cars01.jpg","filetype":"file","label":"Cars01.jpg","type":"unknown"},{"file":"C:\\Videos\\Trivia\\Cars02.jpg","filetype":"file","label":"Cars02.jpg","type":"unknown"},{"file":"C:\\Videos\\Trivia\\Cars03.jpg","filetype":"file","label":"Cars03.jpg","type":"unknown"},{"file":"C:\\Videos\\Trivia\\Cars04.jpg","filetype":"file","label":"Cars04.jpg","type":"unknown"},{"file":"C:\\Videos\\Trivia\\Cars05.jpg","filetype":"file","label":"Cars05.jpg","type":"unknown"},{"file":"C:\\Videos\\Trivia\\Cars06.jpg","filetype":"file","label":"Cars06.jpg","type":"unknown"},{"file":"C:\\Videos\\Trivia\\Cars07.jpg","filetype":"file","label":"Cars07.jpg","type":"unknown"},{"file":"C:\\Videos\\Trivia\\Cars08.jpg","filetype":"file","label":"Cars08.jpg","type":"unknown"},{"file":"C:\\Videos\\Trivia\\Cars09.jpg","filetype":"file","label":"Cars09.jpg","type":"unknown"},{"file":"C:\\Videos\\Trivia\\Cars10.jpg","filetype":"file","label":"Cars10.jpg","type":"unknown"},{"file":"C:\\Videos\\Trivia\\Cars11.jpg","filetype":"file","label":"Cars11.jpg","type":"unknown"},{"file":"C:\\Videos\\Trivia\\Cars12.jpg","filetype":"file","label":"Cars12.jpg","type":"unknown"},{"file":"C:\\Videos\\Trivia\\Cars13.jpg","filetype":"file","label":"Cars13.jpg","type":"unknown"},{"file":"C:\\Videos\\Trivia\\Cars14.jpg","filetype":"file","label":"Cars14.jpg","type":"unknown"},{"file":"C:\\Videos\\Trivia\\Cars15.jpg","filetype":"file","label":"Cars15.jpg","type":"unknown"},{"file":"C:\\Videos\\Trivia\\Count Coke Bottles.jpg","filetype":"file","label":"Count Coke Bottles.jpg","type":"unknown"},{"file":"C:\\Videos\\Trivia\\Emergency Exit.jpg","filetype":"file","label":"Emergency Exit.jpg","type":"unknown"},{"file":"C:\\Videos\\Trivia\\FindingNemo01.jpg","filetype":"file","label":"FindingNemo01.jpg","type":"unknown"},{"file":"C:\\Videos\\Trivia\\FindingNemo02.jpg","filetype":"file","label":"FindingNemo02.jpg","type":"unknown"},{"file":"C:\\Videos\\Trivia\\FindingNemo03.jpg","filetype":"file","label":"FindingNemo03.jpg","type":"unknown"},{"file":"C:\\Videos\\Trivia\\FindingNemo04.jpg","filetype":"file","label":"FindingNemo04.jpg","type":"unknown"},{"file":"C:\\Videos\\Trivia\\FindingNemo05.jpg","filetype":"file","label":"FindingNemo05.jpg","type":"unknown"},{"file":"C:\\Videos\\Trivia\\FindingNemo06.jpg","filetype":"file","label":"FindingNemo06.jpg","type":"unknown"},{"file":"C:\\Videos\\Trivia\\FindingNemo07.jpg","filetype":"file","label":"FindingNemo07.jpg","type":"unknown"},{"file":"C:\\Videos\\Trivia\\FindingNemo08.jpg","filetype":"file","label":"FindingNemo08.jpg","type":"unknown"},{"file":"C:\\Videos\\Trivia\\FindingNemo09.jpg","filetype":"file","label":"FindingNemo09.jpg","type":"unknown"},{"file":"C:\\Videos\\Trivia\\FindingNemo10.jpg","filetype":"file","label":"FindingNemo10.jpg","type":"unknown"},{"file":"C:\\Videos\\Trivia\\FindingNemo11.jpg","filetype":"file","label":"FindingNemo11.jpg","type":"unknown"},{"file":"C:\\Videos\\Trivia\\FindingNemo12.jpg","filetype":"file","label":"FindingNemo12.jpg","type":"unknown"},{"file":"C:\\Videos\\Trivia\\FindingNemo13.jpg","filetype":"file","label":"FindingNemo13.jpg","type":"unknown"},{"file":"C:\\Videos\\Trivia\\FindingNemo14.jpg","filetype":"file","label":"FindingNemo14.jpg","type":"unknown"},{"file":"C:\\Videos\\Trivia\\FindingNemo15.jpg","filetype":"file","label":"FindingNemo15.jpg","type":"unknown"},{"file":"C:\\Videos\\Trivia\\funny-ad-squirrels.jpg","filetype":"file","label":"funny-ad-squirrels.jpg","type":"unknown"},{"file":"C:\\Videos\\Trivia\\funny_ads_20.jpg","filetype":"file","label":"funny_ads_20.jpg","type":"unknown"},{"file":"C:\\Videos\\Trivia\\glassslide.jpg","filetype":"file","label":"glassslide.jpg","type":"unknown"},{"file":"C:\\Videos\\Trivia\\Incredibles01.jpg","filetype":"file","label":"Incredibles01.jpg","type":"unknown"},{"file":"C:\\Videos\\Trivia\\Incredibles02.jpg","filetype":"file","label":"Incredibles02.jpg","type":"unknown"},{"file":"C:\\Videos\\Trivia\\Incredibles03.jpg","filetype":"file","label":"Incredibles03.jpg","type":"unknown"},{"file":"C:\\Videos\\Trivia\\Incredibles04.jpg","filetype":"file","label":"Incredibles04.jpg","type":"unknown"},{"file":"C:\\Videos\\Trivia\\Incredibles05.jpg","filetype":"file","label":"Incredibles05.jpg","type":"unknown"},{"file":"C:\\Videos\\Trivia\\Incredibles06.jpg","filetype":"file","label":"Incredibles06.jpg","type":"unknown"},{"file":"C:\\Videos\\Trivia\\Incredibles07.jpg","filetype":"file","label":"Incredibles07.jpg","type":"unknown"},{"file":"C:\\Videos\\Trivia\\Incredibles08.jpg","filetype":"file","label":"Incredibles08.jpg","type":"unknown"},{"file":"C:\\Videos\\Trivia\\Incredibles09.jpg","filetype":"file","label":"Incredibles09.jpg","type":"unknown"},{"file":"C:\\Videos\\Trivia\\Incredibles10.jpg","filetype":"file","label":"Incredibles10.jpg","type":"unknown"},{"file":"C:\\Videos\\Trivia\\Incredibles11.jpg","filetype":"file","label":"Incredibles11.jpg","type":"unknown"},{"file":"C:\\Videos\\Trivia\\Incredibles12.jpg","filetype":"file","label":"Incredibles12.jpg","type":"unknown"},{"file":"C:\\Videos\\Trivia\\Incredibles13.jpg","filetype":"file","label":"Incredibles13.jpg","type":"unknown"},{"file":"C:\\Videos\\Trivia\\Incredibles14.jpg","filetype":"file","label":"Incredibles14.jpg","type":"unknown"},{"file":"C:\\Videos\\Trivia\\Incredibles15.jpg","filetype":"file","label":"Incredibles15.jpg","type":"unknown"},{"file":"C:\\Videos\\Trivia\\Its All Free.jpg","filetype":"file","label":"Its All Free.jpg","type":"unknown"},{"file":"C:\\Videos\\Trivia\\Memorable Tagline 1.jpg","filetype":"file","label":"Memorable Tagline 1.jpg","type":"unknown"},{"file":"C:\\Videos\\Trivia\\Memorable Tagline 2.jpg","filetype":"file","label":"Memorable Tagline 2.jpg","type":"unknown"},{"file":"C:\\Videos\\Trivia\\Memorable Tagline 3.jpg","filetype":"file","label":"Memorable Tagline 3.jpg","type":"unknown"},{"file":"C:\\Videos\\Trivia\\Memorable Tagline 4.jpg","filetype":"file","label":"Memorable Tagline 4.jpg","type":"unknown"},{"file":"C:\\Videos\\Trivia\\Memorable Tagline 5.jpg","filetype":"file","label":"Memorable Tagline 5.jpg","type":"unknown"},{"file":"C:\\Videos\\Trivia\\monitor.inf","filetype":"file","label":"monitor.inf","type":"unknown"},{"file":"C:\\Videos\\Trivia\\MonstersInc01.jpg","filetype":"file","label":"MonstersInc01.jpg","type":"unknown"},{"file":"C:\\Videos\\Trivia\\MonstersInc02.jpg","filetype":"file","label":"MonstersInc02.jpg","type":"unknown"},{"file":"C:\\Videos\\Trivia\\MonstersInc03.jpg","filetype":"file","label":"MonstersInc03.jpg","type":"unknown"},{"file":"C:\\Videos\\Trivia\\MonstersInc04.jpg","filetype":"file","label":"MonstersInc04.jpg","type":"unknown"},{"file":"C:\\Videos\\Trivia\\MonstersInc05.jpg","filetype":"file","label":"MonstersInc05.jpg","type":"unknown"},{"file":"C:\\Videos\\Trivia\\MonstersInc06.jpg","filetype":"file","label":"MonstersInc06.jpg","type":"unknown"},{"file":"C:\\Videos\\Trivia\\MonstersInc07.jpg","filetype":"file","label":"MonstersInc07.jpg","type":"unknown"},{"file":"C:\\Videos\\Trivia\\MonstersInc08.jpg","filetype":"file","label":"MonstersInc08.jpg","type":"unknown"},{"file":"C:\\Videos\\Trivia\\MonstersInc09.jpg","filetype":"file","label":"MonstersInc09.jpg","type":"unknown"},{"file":"C:\\Videos\\Trivia\\MonstersInc10.jpg","filetype":"file","label":"MonstersInc10.jpg","type":"unknown"},{"file":"C:\\Videos\\Trivia\\MonstersInc11.jpg","filetype":"file","label":"MonstersInc11.jpg","type":"unknown"},{"file":"C:\\Videos\\Trivia\\MonstersInc12.jpg","filetype":"file","label":"MonstersInc12.jpg","type":"unknown"},{"file":"C:\\Videos\\Trivia\\MonstersInc13.jpg","filetype":"file","label":"MonstersInc13.jpg","type":"unknown"},{"file":"C:\\Videos\\Trivia\\MonstersInc14.jpg","filetype":"file","label":"MonstersInc14.jpg","type":"unknown"},{"file":"C:\\Videos\\Trivia\\MonstersInc15.jpg","filetype":"file","label":"MonstersInc15.jpg","type":"unknown"},{"file":"C:\\Videos\\Trivia\\Movie Cliche 1.jpg","filetype":"file","label":"Movie Cliche 1.jpg","type":"unknown"},{"file":"C:\\Videos\\Trivia\\Movie Cliche 2.jpg","filetype":"file","label":"Movie Cliche 2.jpg","type":"unknown"},{"file":"C:\\Videos\\Trivia\\Movie Cliche 3.jpg","filetype":"file","label":"Movie Cliche 3.jpg","type":"unknown"},{"file":"C:\\Videos\\Trivia\\Movie Cliche 4.jpg","filetype":"file","label":"Movie Cliche 4.jpg","type":"unknown"},{"file":"C:\\Videos\\Trivia\\Movie Moment 1.jpg","filetype":"file","label":"Movie Moment 1.jpg","type":"unknown"},{"file":"C:\\Videos\\Trivia\\Movie Moment 2.jpg","filetype":"file","label":"Movie Moment 2.jpg","type":"unknown"},{"file":"C:\\Videos\\Trivia\\Movie Moment 3.jpg","filetype":"file","label":"Movie Moment 3.jpg","type":"unknown"},{"file":"C:\\Videos\\Trivia\\Movie Moment 4.jpg","filetype":"file","label":"Movie Moment 4.jpg","type":"unknown"},{"file":"C:\\Videos\\Trivia\\Movie Moment 5.jpg","filetype":"file","label":"Movie Moment 5.jpg","type":"unknown"},{"file":"C:\\Videos\\Trivia\\Movie Moment 6.jpg","filetype":"file","label":"Movie Moment 6.jpg","type":"unknown"},{"file":"C:\\Videos\\Trivia\\Movie Moment 7.jpg","filetype":"file","label":"Movie Moment 7.jpg","type":"unknown"},{"file":"C:\\Videos\\Trivia\\Movie Music 1.jpg","filetype":"file","label":"Movie Music 1.jpg","type":"unknown"},{"file":"C:\\Videos\\Trivia\\Oscars vs Dollars 1.jpg","filetype":"file","label":"Oscars vs Dollars 1.jpg","type":"unknown"},{"file":"C:\\Videos\\Trivia\\Oscars vs Dollars 2.jpg","filetype":"file","label":"Oscars vs Dollars 2.jpg","type":"unknown"},{"file":"C:\\Videos\\Trivia\\PixarTheCompany01.jpg","filetype":"file","label":"PixarTheCompany01.jpg","type":"unknown"},{"file":"C:\\Videos\\Trivia\\PixarTheCompany02.jpg","filetype":"file","label":"PixarTheCompany02.jpg","type":"unknown"},{"file":"C:\\Videos\\Trivia\\PixarTheCompany03.jpg","filetype":"file","label":"PixarTheCompany03.jpg","type":"unknown"},{"file":"C:\\Videos\\Trivia\\PixarTheCompany04.jpg","filetype":"file","label":"PixarTheCompany04.jpg","type":"unknown"},{"file":"C:\\Videos\\Trivia\\PixarTheCompany05.jpg","filetype":"file","label":"PixarTheCompany05.jpg","type":"unknown"},{"file":"C:\\Videos\\Trivia\\PixarTheCompany06.jpg","filetype":"file","label":"PixarTheCompany06.jpg","type":"unknown"},{"file":"C:\\Videos\\Trivia\\PixarTheCompany07.jpg","filetype":"file","label":"PixarTheCompany07.jpg","type":"unknown"},{"file":"C:\\Videos\\Trivia\\PixarTheCompany08.jpg","filetype":"file","label":"PixarTheCompany08.jpg","type":"unknown"},{"file":"C:\\Videos\\Trivia\\PixarTheCompany09.jpg","filetype":"file","label":"PixarTheCompany09.jpg","type":"unknown"},{"file":"C:\\Videos\\Trivia\\PixarTheCompany10.jpg","filetype":"file","label":"PixarTheCompany10.jpg","type":"unknown"},{"file":"C:\\Videos\\Trivia\\PixarTheCompany11.jpg","filetype":"file","label":"PixarTheCompany11.jpg","type":"unknown"},{"file":"C:\\Videos\\Trivia\\PixarTheCompany12.jpg","filetype":"file","label":"PixarTheCompany12.jpg","type":"unknown"},{"file":"C:\\Videos\\Trivia\\PixarTheCompany13.jpg","filetype":"file","label":"PixarTheCompany13.jpg","type":"unknown"},{"file":"C:\\Videos\\Trivia\\PixarTheCompany14.jpg","filetype":"file","label":"PixarTheCompany14.jpg","type":"unknown"},{"file":"C:\\Videos\\Trivia\\PixarTheCompany15.jpg","filetype":"file","label":"PixarTheCompany15.jpg","type":"unknown"},{"file":"C:\\Videos\\Trivia\\Please No Talking.jpg","filetype":"file","label":"Please No Talking.jpg","type":"unknown"},{"file":"C:\\Videos\\Trivia\\Refreshing Moviegoers.jpg","filetype":"file","label":"Refreshing Moviegoers.jpg","type":"unknown"},{"file":"C:\\Videos\\Trivia\\Remove Your Hats.jpg","filetype":"file","label":"Remove Your Hats.jpg","type":"unknown"},{"file":"C:\\Videos\\Trivia\\ToyStory1-01.jpg","filetype":"file","label":"ToyStory1-01.jpg","type":"unknown"},{"file":"C:\\Videos\\Trivia\\ToyStory1-02.jpg","filetype":"file","label":"ToyStory1-02.jpg","type":"unknown"},{"file":"C:\\Videos\\Trivia\\ToyStory1-03.jpg","filetype":"file","label":"ToyStory1-03.jpg","type":"unknown"},{"file":"C:\\Videos\\Trivia\\ToyStory1-04.jpg","filetype":"file","label":"ToyStory1-04.jpg","type":"unknown"},{"file":"C:\\Videos\\Trivia\\ToyStory1-05.jpg","filetype":"file","label":"ToyStory1-05.jpg","type":"unknown"},{"file":"C:\\Videos\\Trivia\\ToyStory1-06.jpg","filetype":"file","label":"ToyStory1-06.jpg","type":"unknown"},{"file":"C:\\Videos\\Trivia\\ToyStory1-07.jpg","filetype":"file","label":"ToyStory1-07.jpg","type":"unknown"},{"file":"C:\\Videos\\Trivia\\ToyStory1-08.jpg","filetype":"file","label":"ToyStory1-08.jpg","type":"unknown"},{"file":"C:\\Videos\\Trivia\\ToyStory1-09.jpg","filetype":"file","label":"ToyStory1-09.jpg","type":"unknown"},{"file":"C:\\Videos\\Trivia\\ToyStory1-10.jpg","filetype":"file","label":"ToyStory1-10.jpg","type":"unknown"},{"file":"C:\\Videos\\Trivia\\ToyStory1-11.jpg","filetype":"file","label":"ToyStory1-11.jpg","type":"unknown"},{"file":"C:\\Videos\\Trivia\\ToyStory1-12.jpg","filetype":"file","label":"ToyStory1-12.jpg","type":"unknown"},{"file":"C:\\Videos\\Trivia\\ToyStory1-13.jpg","filetype":"file","label":"ToyStory1-13.jpg","type":"unknown"},{"file":"C:\\Videos\\Trivia\\ToyStory1-14.jpg","filetype":"file","label":"ToyStory1-14.jpg","type":"unknown"},{"file":"C:\\Videos\\Trivia\\ToyStory1-15.jpg","filetype":"file","label":"ToyStory1-15.jpg","type":"unknown"},{"file":"C:\\Videos\\Trivia\\ToyStory2-01.jpg","filetype":"file","label":"ToyStory2-01.jpg","type":"unknown"},{"file":"C:\\Videos\\Trivia\\ToyStory2-02.jpg","filetype":"file","label":"ToyStory2-02.jpg","type":"unknown"},{"file":"C:\\Videos\\Trivia\\ToyStory2-03.jpg","filetype":"file","label":"ToyStory2-03.jpg","type":"unknown"},{"file":"C:\\Videos\\Trivia\\ToyStory2-04.jpg","filetype":"file","label":"ToyStory2-04.jpg","type":"unknown"},{"file":"C:\\Videos\\Trivia\\ToyStory2-05.jpg","filetype":"file","label":"ToyStory2-05.jpg","type":"unknown"},{"file":"C:\\Videos\\Trivia\\ToyStory2-06.jpg","filetype":"file","label":"ToyStory2-06.jpg","type":"unknown"},{"file":"C:\\Videos\\Trivia\\ToyStory2-07.jpg","filetype":"file","label":"ToyStory2-07.jpg","type":"unknown"},{"file":"C:\\Videos\\Trivia\\ToyStory2-08.jpg","filetype":"file","label":"ToyStory2-08.jpg","type":"unknown"},{"file":"C:\\Videos\\Trivia\\ToyStory2-09.jpg","filetype":"file","label":"ToyStory2-09.jpg","type":"unknown"},{"file":"C:\\Videos\\Trivia\\ToyStory2-10.jpg","filetype":"file","label":"ToyStory2-10.jpg","type":"unknown"},{"file":"C:\\Videos\\Trivia\\ToyStory2-11.jpg","filetype":"file","label":"ToyStory2-11.jpg","type":"unknown"},{"file":"C:\\Videos\\Trivia\\ToyStory2-12.jpg","filetype":"file","label":"ToyStory2-12.jpg","type":"unknown"},{"file":"C:\\Videos\\Trivia\\ToyStory2-13.jpg","filetype":"file","label":"ToyStory2-13.jpg","type":"unknown"},{"file":"C:\\Videos\\Trivia\\ToyStory2-14.jpg","filetype":"file","label":"ToyStory2-14.jpg","type":"unknown"},{"file":"C:\\Videos\\Trivia\\ToyStory2-15.jpg","filetype":"file","label":"ToyStory2-15.jpg","type":"unknown"},{"file":"C:\\Videos\\Trivia\\ToyStory3-01.jpg","filetype":"file","label":"ToyStory3-01.jpg","type":"unknown"},{"file":"C:\\Videos\\Trivia\\ToyStory3-02.jpg","filetype":"file","label":"ToyStory3-02.jpg","type":"unknown"},{"file":"C:\\Videos\\Trivia\\ToyStory3-03.jpg","filetype":"file","label":"ToyStory3-03.jpg","type":"unknown"},{"file":"C:\\Videos\\Trivia\\ToyStory3-04.jpg","filetype":"file","label":"ToyStory3-04.jpg","type":"unknown"},{"file":"C:\\Videos\\Trivia\\ToyStory3-05.jpg","filetype":"file","label":"ToyStory3-05.jpg","type":"unknown"},{"file":"C:\\Videos\\Trivia\\ToyStory3-06.jpg","filetype":"file","label":"ToyStory3-06.jpg","type":"unknown"},{"file":"C:\\Videos\\Trivia\\ToyStory3-07.jpg","filetype":"file","label":"ToyStory3-07.jpg","type":"unknown"},{"file":"C:\\Videos\\Trivia\\ToyStory3-08.jpg","filetype":"file","label":"ToyStory3-08.jpg","type":"unknown"},{"file":"C:\\Videos\\Trivia\\ToyStory3-09.jpg","filetype":"file","label":"ToyStory3-09.jpg","type":"unknown"},{"file":"C:\\Videos\\Trivia\\ToyStory3-10.jpg","filetype":"file","label":"ToyStory3-10.jpg","type":"unknown"},{"file":"C:\\Videos\\Trivia\\ToyStory3-11.jpg","filetype":"file","label":"ToyStory3-11.jpg","type":"unknown"},{"file":"C:\\Videos\\Trivia\\ToyStory3-12.jpg","filetype":"file","label":"ToyStory3-12.jpg","type":"unknown"},{"file":"C:\\Videos\\Trivia\\ToyStory3-13.jpg","filetype":"file","label":"ToyStory3-13.jpg","type":"unknown"},{"file":"C:\\Videos\\Trivia\\ToyStory3-14.jpg","filetype":"file","label":"ToyStory3-14.jpg","type":"unknown"},{"file":"C:\\Videos\\Trivia\\ToyStory3-15.jpg","filetype":"file","label":"ToyStory3-15.jpg","type":"unknown"},{"file":"C:\\Videos\\Trivia\\up01.jpg","filetype":"file","label":"up01.jpg","type":"unknown"},{"file":"C:\\Videos\\Trivia\\up02.jpg","filetype":"file","label":"up02.jpg","type":"unknown"},{"file":"C:\\Videos\\Trivia\\up03.jpg","filetype":"file","label":"up03.jpg","type":"unknown"},{"file":"C:\\Videos\\Trivia\\up04.jpg","filetype":"file","label":"up04.jpg","type":"unknown"},{"file":"C:\\Videos\\Trivia\\up05.jpg","filetype":"file","label":"up05.jpg","type":"unknown"},{"file":"C:\\Videos\\Trivia\\up06.jpg","filetype":"file","label":"up06.jpg","type":"unknown"},{"file":"C:\\Videos\\Trivia\\up07.jpg","filetype":"file","label":"up07.jpg","type":"unknown"},{"file":"C:\\Videos\\Trivia\\up08.jpg","filetype":"file","label":"up08.jpg","type":"unknown"},{"file":"C:\\Videos\\Trivia\\up09.jpg","filetype":"file","label":"up09.jpg","type":"unknown"},{"file":"C:\\Videos\\Trivia\\up10.jpg","filetype":"file","label":"up10.jpg","type":"unknown"},{"file":"C:\\Videos\\Trivia\\up11.jpg","filetype":"file","label":"up11.jpg","type":"unknown"},{"file":"C:\\Videos\\Trivia\\up12.jpg","filetype":"file","label":"up12.jpg","type":"unknown"},{"file":"C:\\Videos\\Trivia\\up13.jpg","filetype":"file","label":"up13.jpg","type":"unknown"},{"file":"C:\\Videos\\Trivia\\up14.jpg","filetype":"file","label":"up14.jpg","type":"unknown"},{"file":"C:\\Videos\\Trivia\\up15.jpg","filetype":"file","label":"up15.jpg","type":"unknown"},{"file":"C:\\Videos\\Trivia\\Wall-e01.jpg","filetype":"file","label":"Wall-e01.jpg","type":"unknown"},{"file":"C:\\Videos\\Trivia\\Wall-e02.jpg","filetype":"file","label":"Wall-e02.jpg","type":"unknown"},{"file":"C:\\Videos\\Trivia\\Wall-e03.jpg","filetype":"file","label":"Wall-e03.jpg","type":"unknown"},{"file":"C:\\Videos\\Trivia\\Wall-e04.jpg","filetype":"file","label":"Wall-e04.jpg","type":"unknown"},{"file":"C:\\Videos\\Trivia\\Wall-e05.jpg","filetype":"file","label":"Wall-e05.jpg","type":"unknown"},{"file":"C:\\Videos\\Trivia\\Wall-e06.jpg","filetype":"file","label":"Wall-e06.jpg","type":"unknown"},{"file":"C:\\Videos\\Trivia\\Wall-e07.jpg","filetype":"file","label":"Wall-e07.jpg","type":"unknown"},{"file":"C:\\Videos\\Trivia\\Wall-e08.jpg","filetype":"file","label":"Wall-e08.jpg","type":"unknown"},{"file":"C:\\Videos\\Trivia\\Wall-e09.jpg","filetype":"file","label":"Wall-e09.jpg","type":"unknown"},{"file":"C:\\Videos\\Trivia\\Wall-e10.jpg","filetype":"file","label":"Wall-e10.jpg","type":"unknown"},{"file":"C:\\Videos\\Trivia\\Wall-e11.jpg","filetype":"file","label":"Wall-e11.jpg","type":"unknown"},{"file":"C:\\Videos\\Trivia\\Wall-e12.jpg","filetype":"file","label":"Wall-e12.jpg","type":"unknown"},{"file":"C:\\Videos\\Trivia\\Wall-e13.jpg","filetype":"file","label":"Wall-e13.jpg","type":"unknown"},{"file":"C:\\Videos\\Trivia\\Wall-e14.jpg","filetype":"file","label":"Wall-e14.jpg","type":"unknown"},{"file":"C:\\Videos\\Trivia\\Wall-e15.jpg","filetype":"file","label":"Wall-e15.jpg","type":"unknown"}],"limits":{"end":195,"start":0,"total":195}}}
  358. 19:58:39 T:3472   DEBUG: [script.cinema.experience] - Movie MPAA: R
  359. 19:58:39 T:3472   DEBUG: [script.cinema.experience] - Slide MPAA:
  360. 19:58:39 T:3472  NOTICE: [script.cinema.experience] - Sorting Watched/Unwatched and Shuffing Slides
  361. 19:58:39 T:3472   DEBUG: [script.cinema.experience] -------------------Watched--------------------------     skipped - , , ABugsLife14.jpg
  362. 19:58:39 T:3472   DEBUG: [script.cinema.experience] ------------------Unwatched-------------------------     included - , , Please No Talking.jpg
  363. 19:58:39 T:3472   DEBUG: [script.cinema.experience] ------------------Unwatched-------------------------     included - , , Cars03.jpg
  364. 19:58:39 T:3472   DEBUG: [script.cinema.experience] -------------------Watched--------------------------     skipped - , , Memorable Tagline 5.jpg
  365. 19:58:39 T:3472   DEBUG: [script.cinema.experience] ------------------Unwatched-------------------------     included - , , Incredibles13.jpg
  366. 19:58:39 T:3472   DEBUG: [script.cinema.experience] -------------------Watched--------------------------     skipped - , , ToyStory1-08.jpg
  367. 19:58:39 T:3472   DEBUG: [script.cinema.experience] -------------------Watched--------------------------     skipped - , , ABugsLife15.jpg
  368. 19:58:39 T:3472   DEBUG: [script.cinema.experience] ------------------Unwatched-------------------------     included - , , PixarTheCompany13.jpg
  369. 19:58:39 T:3472   DEBUG: [script.cinema.experience] -------------------Watched--------------------------     skipped - , , PixarTheCompany08.jpg
  370. 19:58:39 T:3472   DEBUG: [script.cinema.experience] -------------------Watched--------------------------     skipped - , , ABugsLife09.jpg
  371. 19:58:39 T:3472   DEBUG: [script.cinema.experience] -------------------Watched--------------------------     skipped - , , ToyStory2-07.jpg
  372. 19:58:39 T:3472   DEBUG: [script.cinema.experience] -------------------Watched--------------------------     skipped - , , FindingNemo10.jpg
  373. 19:58:39 T:3472   DEBUG: [script.cinema.experience] -------------------Watched--------------------------     skipped - , , Cars15.jpg
  374. 19:58:39 T:3472   DEBUG: [script.cinema.experience] -------------------Watched--------------------------     skipped - , , MonstersInc02.jpg
  375. 19:58:39 T:3472   DEBUG: [script.cinema.experience] -------------------Watched--------------------------     skipped - , , PixarTheCompany15.jpg
  376. 19:58:39 T:3472   DEBUG: [script.cinema.experience] ------------------Unwatched-------------------------     included - , , up10.jpg
  377. 19:58:39 T:3472   DEBUG: [script.cinema.experience] ------------------Unwatched-------------------------     included - , , Wall-e09.jpg
  378. 19:58:39 T:3472   DEBUG: [script.cinema.experience] -------------------Watched--------------------------     skipped - , , Cars08.jpg
  379. 19:58:39 T:3472   DEBUG: [script.cinema.experience] -------------------Watched--------------------------     skipped - , , ToyStory2-09.jpg
  380. 19:58:39 T:3472   DEBUG: [script.cinema.experience] -------------------Watched--------------------------     skipped - , , Wall-e06.jpg
  381. 19:58:39 T:3472   DEBUG: [script.cinema.experience] ------------------Unwatched-------------------------     included - , , Wall-e04.jpg
  382. 19:58:39 T:3472   DEBUG: [script.cinema.experience] -------------------Watched--------------------------     skipped - , , up02.jpg
  383. 19:58:39 T:3472   DEBUG: [script.cinema.experience] ------------------Unwatched-------------------------     included - , , FindingNemo09.jpg
  384. 19:58:39 T:3472   DEBUG: [script.cinema.experience] ------------------Unwatched-------------------------     included - , , Emergency Exit.jpg
  385. 19:58:39 T:3472   DEBUG: [script.cinema.experience] -------------------Watched--------------------------     skipped - , , MonstersInc09.jpg
  386. 19:58:39 T:3472   DEBUG: [script.cinema.experience] -------------------Watched--------------------------     skipped - , , ToyStory2-11.jpg
  387. 19:58:39 T:3472   DEBUG: [script.cinema.experience] -------------------Watched--------------------------     skipped - , , ABugsLife10.jpg
  388. 19:58:39 T:3472   DEBUG: [script.cinema.experience] ------------------Unwatched-------------------------     included - , , Wall-e01.jpg
  389. 19:58:39 T:3472   DEBUG: [script.cinema.experience] ------------------Unwatched-------------------------     included - , , Movie Moment 3.jpg
  390. 19:58:39 T:3472   DEBUG: [script.cinema.experience] -------------------Watched--------------------------     skipped - , , ToyStory3-15.jpg
  391. 19:58:39 T:3472   DEBUG: [script.cinema.experience] ------------------Unwatched-------------------------     included - , , ABugsLife03.jpg
  392. 19:58:39 T:3472   DEBUG: [script.cinema.experience] -------------------Watched--------------------------     skipped - , , Memorable Tagline 3.jpg
  393. 19:58:39 T:3472   DEBUG: [script.cinema.experience] -------------------Watched--------------------------     skipped - , , PixarTheCompany02.jpg
  394. 19:58:39 T:3472   DEBUG: [script.cinema.experience] ------------------Unwatched-------------------------     included - , , ToyStory3-07.jpg
  395. 19:58:39 T:3472   DEBUG: [script.cinema.experience] -------------------Watched--------------------------     skipped - , , ToyStory1-03.jpg
  396. 19:58:39 T:3472   DEBUG: [script.cinema.experience] -------------------Watched--------------------------     skipped - , , Incredibles08.jpg
  397. 19:58:39 T:3472   DEBUG: [script.cinema.experience] -------------------Watched--------------------------     skipped - , , up14.jpg
  398. 19:58:39 T:3472   DEBUG: [script.cinema.experience] ------------------Unwatched-------------------------     included - , , ABugsLife04.jpg
  399. 19:58:39 T:3472   DEBUG: [script.cinema.experience] -------------------Watched--------------------------     skipped - , , Cars06.jpg
  400. 19:58:39 T:3472   DEBUG: [script.cinema.experience] ------------------Unwatched-------------------------     included - , , PixarTheCompany05.jpg
  401. 19:58:39 T:3472   DEBUG: [script.cinema.experience] -------------------Watched--------------------------     skipped - , , Cars09.jpg
  402. 19:58:39 T:3472   DEBUG: [script.cinema.experience] -------------------Watched--------------------------     skipped - , , ToyStory1-11.jpg
  403. 19:58:39 T:3472   DEBUG: [script.cinema.experience] -------------------Watched--------------------------     skipped - , , FindingNemo11.jpg
  404. 19:58:39 T:3472   DEBUG: [script.cinema.experience] ------------------Unwatched-------------------------     included - , , Cars02.jpg
  405. 19:58:39 T:3472   DEBUG: [script.cinema.experience] -------------------Watched--------------------------     skipped - , , Incredibles07.jpg
  406. 19:58:39 T:3472   DEBUG: [script.cinema.experience] ------------------Unwatched-------------------------     included - , , MonstersInc03.jpg
  407. 19:58:39 T:3472   DEBUG: [script.cinema.experience] -------------------Watched--------------------------     skipped - , , FindingNemo01.jpg
  408. 19:58:39 T:3472   DEBUG: [script.cinema.experience] -------------------Watched--------------------------     skipped - , , FindingNemo07.jpg
  409. 19:58:39 T:3472   DEBUG: [script.cinema.experience] -------------------Watched--------------------------     skipped - , , ToyStory2-12.jpg
  410. 19:58:39 T:3472   DEBUG: [script.cinema.experience] -------------------Watched--------------------------     skipped - , , glassslide.jpg
  411. 19:58:39 T:3472   DEBUG: [script.cinema.experience] ------------------Unwatched-------------------------     included - , , ToyStory3-10.jpg
  412. 19:58:39 T:3472   DEBUG: [script.cinema.experience] -------------------Watched--------------------------     skipped - , , FindingNemo08.jpg
  413. 19:58:39 T:3472   DEBUG: [script.cinema.experience] -------------------Watched--------------------------     skipped - , , ToyStory3-02.jpg
  414. 19:58:39 T:3472   DEBUG: [script.cinema.experience] -------------------Watched--------------------------     skipped - , , Cars13.jpg
  415. 19:58:39 T:3472   DEBUG: [script.cinema.experience] -------------------Watched--------------------------     skipped - , , Incredibles03.jpg
  416. 19:58:39 T:3472   DEBUG: [script.cinema.experience] ------------------Unwatched-------------------------     included - , , ToyStory2-10.jpg
  417. 19:58:39 T:3472   DEBUG: [script.cinema.experience] -------------------Watched--------------------------     skipped - , , ToyStory1-01.jpg
  418. 19:58:39 T:3472   DEBUG: [script.cinema.experience] -------------------Watched--------------------------     skipped - , , ToyStory2-01.jpg
  419. 19:58:39 T:3472   DEBUG: [script.cinema.experience] -------------------Watched--------------------------     skipped - , , Movie Cliche 3.jpg
  420. 19:58:39 T:3472   DEBUG: [script.cinema.experience] -------------------Watched--------------------------     skipped - , , Incredibles05.jpg
  421. 19:58:39 T:3472   DEBUG: [script.cinema.experience] ------------------Unwatched-------------------------     included - , , ToyStory2-03.jpg
  422. 19:58:39 T:3472   DEBUG: [script.cinema.experience] -------------------Watched--------------------------     skipped - , , PixarTheCompany09.jpg
  423. 19:58:39 T:3472   DEBUG: [script.cinema.experience] -------------------Watched--------------------------     skipped - , , MonstersInc06.jpg
  424. 19:58:39 T:3472   DEBUG: [script.cinema.experience] -------------------Watched--------------------------     skipped - , , ToyStory3-13.jpg
  425. 19:58:39 T:3472   DEBUG: [script.cinema.experience] -------------------Watched--------------------------     skipped - , , ToyStory3-14.jpg
  426. 19:58:39 T:3472   DEBUG: [script.cinema.experience] -------------------Watched--------------------------     skipped - , , ToyStory3-09.jpg
  427. 19:58:39 T:3472   DEBUG: [script.cinema.experience] ------------------Unwatched-------------------------     included - , , Incredibles14.jpg
  428. 19:58:39 T:3472   DEBUG: [script.cinema.experience] -------------------Watched--------------------------     skipped - , , PixarTheCompany01.jpg
  429. 19:58:39 T:3472   DEBUG: [script.cinema.experience] -------------------Watched--------------------------     skipped - , , ToyStory1-02.jpg
  430. 19:58:39 T:3472   DEBUG: [script.cinema.experience] -------------------Watched--------------------------     skipped - , , ABugsLife13.jpg
  431. 19:58:39 T:3472   DEBUG: [script.cinema.experience] -------------------Watched--------------------------     skipped - , , ToyStory3-08.jpg
  432. 19:58:39 T:3472   DEBUG: [script.cinema.experience] -------------------Watched--------------------------     skipped - , , up01.jpg
  433. 19:58:39 T:3472   DEBUG: [script.cinema.experience] -------------------Watched--------------------------     skipped - , , up06.jpg
  434. 19:58:39 T:3472   DEBUG: [script.cinema.experience] -------------------Watched--------------------------     skipped - , , FindingNemo06.jpg
  435. 19:58:39 T:3472   DEBUG: [script.cinema.experience] -------------------Watched--------------------------     skipped - , , up12.jpg
  436. 19:58:39 T:3472   DEBUG: [script.cinema.experience] -------------------Watched--------------------------     skipped - , , PixarTheCompany11.jpg
  437. 19:58:39 T:3472   DEBUG: [script.cinema.experience] -------------------Watched--------------------------     skipped - , , ABugsLife11.jpg
  438. 19:58:39 T:3472   DEBUG: [script.cinema.experience] ------------------Unwatched-------------------------     included - , , up07.jpg
  439. 19:58:39 T:3472   DEBUG: [script.cinema.experience] -------------------Watched--------------------------     skipped - , , up04.jpg
  440. 19:58:39 T:3472   DEBUG: [script.cinema.experience] -------------------Watched--------------------------     skipped - , , up11.jpg
  441. 19:58:39 T:3472   DEBUG: [script.cinema.experience] -------------------Watched--------------------------     skipped - , , ToyStory1-07.jpg
  442. 19:58:39 T:3472   DEBUG: [script.cinema.experience] ------------------Unwatched-------------------------     included - , , PixarTheCompany12.jpg
  443. 19:58:39 T:3472   DEBUG: [script.cinema.experience] -------------------Watched--------------------------     skipped - , , Movie Cliche 2.jpg
  444. 19:58:39 T:3472   DEBUG: [script.cinema.experience] -------------------Watched--------------------------     skipped - , , up15.jpg
  445. 19:58:39 T:3472   DEBUG: [script.cinema.experience] -------------------Watched--------------------------     skipped - , , PixarTheCompany07.jpg
  446. 19:58:39 T:3472   DEBUG: [script.cinema.experience] -------------------Watched--------------------------     skipped - , , FindingNemo13.jpg
  447. 19:58:39 T:3472   DEBUG: [script.cinema.experience] -------------------Watched--------------------------     skipped - , , FindingNemo04.jpg
  448. 19:58:39 T:3472   DEBUG: [script.cinema.experience] -------------------Watched--------------------------     skipped - , , ToyStory3-05.jpg
  449. 19:58:39 T:3472   DEBUG: [script.cinema.experience] ------------------Unwatched-------------------------     included - , , Wall-e10.jpg
  450. 19:58:39 T:3472   DEBUG: [script.cinema.experience] ------------------Unwatched-------------------------     included - , , Movie Moment 2.jpg
  451. 19:58:39 T:3472   DEBUG: [script.cinema.experience] -------------------Watched--------------------------     skipped - , , Oscars vs Dollars 2.jpg
  452. 19:58:39 T:3472   DEBUG: [script.cinema.experience] -------------------Watched--------------------------     skipped - , , Incredibles01.jpg
  453. 19:58:39 T:3472   DEBUG: [script.cinema.experience] ------------------Unwatched-------------------------     included - , , FindingNemo02.jpg
  454. 19:58:39 T:3472   DEBUG: [script.cinema.experience] ------------------Unwatched-------------------------     included - , , Incredibles06.jpg
  455. 19:58:39 T:3472   DEBUG: [script.cinema.experience] -------------------Watched--------------------------     skipped - , , Wall-e12.jpg
  456. 19:58:39 T:3472   DEBUG: [script.cinema.experience] ------------------Unwatched-------------------------     included - , , funny_ads_20.jpg
  457. 19:58:39 T:3472   DEBUG: [script.cinema.experience] -------------------Watched--------------------------     skipped - , , ABugsLife12.jpg
  458. 19:58:39 T:3472   DEBUG: [script.cinema.experience] -------------------Watched--------------------------     skipped - , , Wall-e08.jpg
  459. 19:58:39 T:3472   DEBUG: [script.cinema.experience] -------------------Watched--------------------------     skipped - , , Cars11.jpg
  460. 19:58:39 T:3472   DEBUG: [script.cinema.experience] -------------------Watched--------------------------     skipped - , , Wall-e11.jpg
  461. 19:58:39 T:3472   DEBUG: [script.cinema.experience] -------------------Watched--------------------------     skipped - , , FindingNemo15.jpg
  462. 19:58:39 T:3472   DEBUG: [script.cinema.experience] ------------------Unwatched-------------------------     included - , , PixarTheCompany06.jpg
  463. 19:58:39 T:3472   DEBUG: [script.cinema.experience] ------------------Unwatched-------------------------     included - , , MonstersInc08.jpg
  464. 19:58:39 T:3472   DEBUG: [script.cinema.experience] -------------------Watched--------------------------     skipped - , , funny-ad-squirrels.jpg
  465. 19:58:39 T:3472   DEBUG: [script.cinema.experience] -------------------Watched--------------------------     skipped - , , ToyStory1-10.jpg
  466. 19:58:39 T:3472   DEBUG: [script.cinema.experience] -------------------Watched--------------------------     skipped - , , MonstersInc05.jpg
  467. 19:58:39 T:3472   DEBUG: [script.cinema.experience] -------------------Watched--------------------------     skipped - , , ABugsLife06.jpg
  468. 19:58:39 T:3472   DEBUG: [script.cinema.experience] ------------------Unwatched-------------------------     included - , , ABugsLife05.jpg
  469. 19:58:39 T:3472   DEBUG: [script.cinema.experience] -------------------Watched--------------------------     skipped - , , PixarTheCompany04.jpg
  470. 19:58:39 T:3472   DEBUG: [script.cinema.experience] -------------------Watched--------------------------     skipped - , , Wall-e13.jpg
  471. 19:58:39 T:3472   DEBUG: [script.cinema.experience] -------------------Watched--------------------------     skipped - , , Count Coke Bottles.jpg
  472. 19:58:39 T:3472   DEBUG: [script.cinema.experience] -------------------Watched--------------------------     skipped - , , Cars05.jpg
  473. 19:58:39 T:3472   DEBUG: [script.cinema.experience] -------------------Watched--------------------------     skipped - , , ABugsLife07.jpg
  474. 19:58:39 T:3472   DEBUG: [script.cinema.experience] ------------------Unwatched-------------------------     included - , , ABugsLife02.jpg
  475. 19:58:39 T:3472   DEBUG: [script.cinema.experience] -------------------Watched--------------------------     skipped - , , ToyStory2-13.jpg
  476. 19:58:39 T:3472   DEBUG: [script.cinema.experience] -------------------Watched--------------------------     skipped - , , Incredibles02.jpg
  477. 19:58:39 T:3472   DEBUG: [script.cinema.experience] -------------------Watched--------------------------     skipped - , , up13.jpg
  478. 19:58:39 T:3472   DEBUG: [script.cinema.experience] -------------------Watched--------------------------     skipped - , , Refreshing Moviegoers.jpg
  479. 19:58:39 T:3472   DEBUG: [script.cinema.experience] -------------------Watched--------------------------     skipped - , , up08.jpg
  480. 19:58:39 T:3472   DEBUG: [script.cinema.experience] ------------------Unwatched-------------------------     included - , , FindingNemo14.jpg
  481. 19:58:39 T:3472   DEBUG: [script.cinema.experience] ------------------Unwatched-------------------------     included - , , FindingNemo03.jpg
  482. 19:58:39 T:3472   DEBUG: [script.cinema.experience] -------------------Watched--------------------------     skipped - , , Remove Your Hats.jpg
  483. 19:58:39 T:3472   DEBUG: [script.cinema.experience] ------------------Unwatched-------------------------     included - , , ToyStory3-03.jpg
  484. 19:58:39 T:3472   DEBUG: [script.cinema.experience] ------------------Unwatched-------------------------     included - , , MonstersInc01.jpg
  485. 19:58:39 T:3472   DEBUG: [script.cinema.experience] ------------------Unwatched-------------------------     included - , , ToyStory1-14.jpg
  486. 19:58:39 T:3472   DEBUG: [script.cinema.experience] ------------------Unwatched-------------------------     included - , , Cars01.jpg
  487. 19:58:39 T:3472   DEBUG: [script.cinema.experience] -------------------Watched--------------------------     skipped - , , MonstersInc12.jpg
  488. 19:58:39 T:3472   DEBUG: [script.cinema.experience] ------------------Unwatched-------------------------     included - , , MonstersInc14.jpg
  489. 19:58:39 T:3472   DEBUG: [script.cinema.experience] -------------------Watched--------------------------     skipped - , , Incredibles04.jpg
  490. 19:58:39 T:3472   DEBUG: [script.cinema.experience] -------------------Watched--------------------------     skipped - , , ToyStory2-04.jpg
  491. 19:58:39 T:3472   DEBUG: [script.cinema.experience] -------------------Watched--------------------------     skipped - , , MonstersInc04.jpg
  492. 19:58:39 T:3472   DEBUG: [script.cinema.experience] -------------------Watched--------------------------     skipped - , , ToyStory1-06.jpg
  493. 19:58:39 T:3472   DEBUG: [script.cinema.experience] -------------------Watched--------------------------     skipped - , , PixarTheCompany03.jpg
  494. 19:58:39 T:3472   DEBUG: [script.cinema.experience] -------------------Watched--------------------------     skipped - , , ABugsLife01.jpg
  495. 19:58:39 T:3472   DEBUG: [script.cinema.experience] -------------------Watched--------------------------     skipped - , , Incredibles09.jpg
  496. 19:58:39 T:3472   DEBUG: [script.cinema.experience] -------------------Watched--------------------------     skipped - , , ToyStory1-12.jpg
  497. 19:58:39 T:3472   DEBUG: [script.cinema.experience] -------------------Watched--------------------------     skipped - , , Wall-e05.jpg
  498. 19:58:39 T:3472   DEBUG: [script.cinema.experience] -------------------Watched--------------------------     skipped - , , Cars10.jpg
  499. 19:58:39 T:3472   DEBUG: [script.cinema.experience] -------------------Watched--------------------------     skipped - , , Movie Music 1.jpg
  500. 19:58:39 T:3472   DEBUG: [script.cinema.experience] -------------------Watched--------------------------     skipped - , , Wall-e15.jpg
  501. 19:58:39 T:3472   DEBUG: [script.cinema.experience] -------------------Watched--------------------------     skipped - , , ToyStory3-06.jpg
  502. 19:58:39 T:3472   DEBUG: [script.cinema.experience] -------------------Watched--------------------------     skipped - , , ToyStory2-14.jpg
  503. 19:58:39 T:3472   DEBUG: [script.cinema.experience] -------------------Watched--------------------------     skipped - , , MonstersInc13.jpg
  504. 19:58:39 T:3472   DEBUG: [script.cinema.experience] -------------------Watched--------------------------     skipped - , , Wall-e03.jpg
  505. 19:58:39 T:3472   DEBUG: [script.cinema.experience] -------------------Watched--------------------------     skipped - , , MonstersInc10.jpg
  506. 19:58:39 T:3472   DEBUG: [script.cinema.experience] ------------------Unwatched-------------------------     included - , , Incredibles10.jpg
  507. 19:58:39 T:3472   DEBUG: [script.cinema.experience] -------------------Watched--------------------------     skipped - , , Memorable Tagline 2.jpg
  508. 19:58:39 T:3472   DEBUG: [script.cinema.experience] -------------------Watched--------------------------     skipped - , , PixarTheCompany14.jpg
  509. 19:58:39 T:3472   DEBUG: [script.cinema.experience] ------------------Unwatched-------------------------     included - , , ToyStory2-08.jpg
  510. 19:58:39 T:3472   DEBUG: [script.cinema.experience] -------------------Watched--------------------------     skipped - , , Wall-e02.jpg
  511. 19:58:39 T:3472   DEBUG: [script.cinema.experience] -------------------Watched--------------------------     skipped - , , Memorable Tagline 1.jpg
  512. 19:58:39 T:3472   DEBUG: [script.cinema.experience] -------------------Watched--------------------------     skipped - , , Memorable Tagline 4.jpg
  513. 19:58:39 T:3472   DEBUG: [script.cinema.experience] -------------------Watched--------------------------     skipped - , , ToyStory3-01.jpg
  514. 19:58:39 T:3472   DEBUG: [script.cinema.experience] ------------------Unwatched-------------------------     included - , , ToyStory2-15.jpg
  515. 19:58:39 T:3472   DEBUG: [script.cinema.experience] ------------------Unwatched-------------------------     included - , , ToyStory1-04.jpg
  516. 19:58:39 T:3472   DEBUG: [script.cinema.experience] -------------------Watched--------------------------     skipped - , , Cars12.jpg
  517. 19:58:39 T:3472   DEBUG: [script.cinema.experience] -------------------Watched--------------------------     skipped - , , Incredibles15.jpg
  518. 19:58:39 T:3472   DEBUG: [script.cinema.experience] -------------------Watched--------------------------     skipped - , , up09.jpg
  519. 19:58:39 T:3472   DEBUG: [script.cinema.experience] -------------------Watched--------------------------     skipped - , , ToyStory3-12.jpg
  520. 19:58:39 T:3472   DEBUG: [script.cinema.experience] -------------------Watched--------------------------     skipped - , , ToyStory1-05.jpg
  521. 19:58:39 T:3472   DEBUG: [script.cinema.experience] -------------------Watched--------------------------     skipped - , , MonstersInc11.jpg
  522. 19:58:39 T:3472   DEBUG: [script.cinema.experience] -------------------Watched--------------------------     skipped - , , ToyStory1-15.jpg
  523. 19:58:39 T:3472   DEBUG: [script.cinema.experience] -------------------Watched--------------------------     skipped - , , Movie Moment 4.jpg
  524. 19:58:39 T:3472   DEBUG: [script.cinema.experience] -------------------Watched--------------------------     skipped - , , up03.jpg
  525. 19:58:39 T:3472   DEBUG: [script.cinema.experience] -------------------Watched--------------------------     skipped - , , Movie Cliche 4.jpg
  526. 19:58:39 T:3472   DEBUG: [script.cinema.experience] ------------------Unwatched-------------------------     included - , , FindingNemo12.jpg
  527. 19:58:39 T:3472   DEBUG: [script.cinema.experience] -------------------Watched--------------------------     skipped - , , Wall-e07.jpg
  528. 19:58:39 T:3472   DEBUG: [script.cinema.experience] -------------------Watched--------------------------     skipped - , , MonstersInc07.jpg
  529. 19:58:39 T:3472   DEBUG: [script.cinema.experience] -------------------Watched--------------------------     skipped - , , Wall-e14.jpg
  530. 19:58:39 T:3472   DEBUG: [script.cinema.experience] -------------------Watched--------------------------     skipped - , , ToyStory2-02.jpg
  531. 19:58:39 T:3472   DEBUG: [script.cinema.experience] ------------------Unwatched-------------------------     included - , , ToyStory2-05.jpg
  532. 19:58:39 T:3472   DEBUG: [script.cinema.experience] ------------------Unwatched-------------------------     included - , , Incredibles12.jpg
  533. 19:58:39 T:3472   DEBUG: [script.cinema.experience] -------------------Watched--------------------------     skipped - , , Movie Cliche 1.jpg
  534. 19:58:39 T:3472   DEBUG: [script.cinema.experience] -------------------Watched--------------------------     skipped - , , Movie Moment 7.jpg
  535. 19:58:39 T:3472   DEBUG: [script.cinema.experience] -------------------Watched--------------------------     skipped - , , FindingNemo05.jpg
  536. 19:58:39 T:3472   DEBUG: [script.cinema.experience] -------------------Watched--------------------------     skipped - , , Its All Free.jpg
  537. 19:58:39 T:3472   DEBUG: [script.cinema.experience] -------------------Watched--------------------------     skipped - , , PixarTheCompany10.jpg
  538. 19:58:39 T:3472   DEBUG: [script.cinema.experience] -------------------Watched--------------------------     skipped - , , Movie Moment 1.jpg
  539. 19:58:39 T:3472   DEBUG: [script.cinema.experience] ------------------Unwatched-------------------------     included - , , ToyStory2-06.jpg
  540. 19:58:39 T:3472   DEBUG: [script.cinema.experience] -------------------Watched--------------------------     skipped - , , Cars04.jpg
  541. 19:58:39 T:3472   DEBUG: [script.cinema.experience] -------------------Watched--------------------------     skipped - , , Movie Moment 6.jpg
  542. 19:58:39 T:3472   DEBUG: [script.cinema.experience] ------------------Unwatched-------------------------     included - , , ToyStory3-04.jpg
  543. 19:58:39 T:3472   DEBUG: [script.cinema.experience] -------------------Watched--------------------------     skipped - , , ToyStory3-11.jpg
  544. 19:58:39 T:3472   DEBUG: [script.cinema.experience] -------------------Watched--------------------------     skipped - , , Cars14.jpg
  545. 19:58:39 T:3472   DEBUG: [script.cinema.experience] -------------------Watched--------------------------     skipped - , , ABugsLife08.jpg
  546. 19:58:39 T:3472   DEBUG: [script.cinema.experience] -------------------Watched--------------------------     skipped - , , MonstersInc15.jpg
  547. 19:58:39 T:3472   DEBUG: [script.cinema.experience] -------------------Watched--------------------------     skipped - , , Oscars vs Dollars 1.jpg
  548. 19:58:39 T:3472   DEBUG: [script.cinema.experience] ------------------Unwatched-------------------------     included - , , ToyStory1-13.jpg
  549. 19:58:39 T:3472   DEBUG: [script.cinema.experience] -------------------Watched--------------------------     skipped - , , Cars07.jpg
  550. 19:58:39 T:3472   DEBUG: [script.cinema.experience] -------------------Watched--------------------------     skipped - , , up05.jpg
  551. 19:58:39 T:3472   DEBUG: [script.cinema.experience] -------------------Watched--------------------------     skipped - , , Annoyed Msg.jpg
  552. 19:58:39 T:3472   DEBUG: [script.cinema.experience] ------------------Unwatched-------------------------     included - , , Movie Moment 5.jpg
  553. 19:58:39 T:3472   DEBUG: [script.cinema.experience] -------------------Watched--------------------------     skipped - , , ToyStory1-09.jpg
  554. 19:58:39 T:3472   DEBUG: [script.cinema.experience] -------------------Watched--------------------------     skipped - , , Incredibles11.jpg
  555. 19:58:39 T:3472   DEBUG: [script.cinema.experience] -----------------------------------------
  556. 19:58:39 T:3472  NOTICE: [script.cinema.experience] - total slides selected: 50
  557. 19:58:39 T:3472  NOTICE: [ script.cinema.experience ] - ## Intro ##
  558. 19:58:39 T:3472   DEBUG: [ script.cinema.experience ] - [ ce_playlist.py ] - _get_special_items() Started
  559. 19:58:39 T:2796   DEBUG: HttpApi Start command: FileExists  paras: FileExists; C:\Videos\Trivia Intro\welcome_animation.avi
  560. 19:58:39 T:3472   DEBUG: [ script.cinema.experience ] - [ ce_playlist.py ] - Checking Path: C:\Videos\Trivia Intro\welcome_animation.avi
  561. 19:58:39 T:3472   DEBUG: [ script.cinema.experience ] - [ ce_playlist.py ] - _get_listitem() Started
  562. 19:58:39 T:3472   DEBUG: [ script.cinema.experience ] - [ ce_playlist.py ] - _get_thumbnail() Started
  563. 19:58:39 T:3472   DEBUG: [ script.cinema.experience ] - [ ce_playlist.py ] - Thumbnail Url: C:\Videos\Trivia Intro\welcome_animation.avi
  564. 19:58:39 T:3472   DEBUG: [ script.cinema.experience ] - [ ce_playlist.py ] - Thumbnail Cached Filename: ddf187dc.tbn
  565. 19:58:39 T:2796   DEBUG: CPlayerCoreFactory::GetPlayers(C:\Videos\Trivia Intro\welcome_animation.avi)
  566. 19:58:39 T:2796   DEBUG: CPlayerSelectionRule::GetPlayers: considering rule: system rules
  567. 19:58:39 T:2796   DEBUG: CPlayerSelectionRule::GetPlayers: matches rule: system rules
  568. 19:58:39 T:2796   DEBUG: CPlayerSelectionRule::GetPlayers: considering rule: rtv
  569. 19:58:39 T:2796   DEBUG: CPlayerSelectionRule::GetPlayers: considering rule: hdhomerun/myth/rtmp/mms/udp
  570. 19:58:39 T:2796   DEBUG: CPlayerSelectionRule::GetPlayers: considering rule: lastfm/shout
  571. 19:58:39 T:2796   DEBUG: CPlayerSelectionRule::GetPlayers: considering rule: rtsp
  572. 19:58:39 T:2796   DEBUG: CPlayerSelectionRule::GetPlayers: considering rule: streams
  573. 19:58:39 T:2796   DEBUG: CPlayerSelectionRule::GetPlayers: considering rule: dvd
  574. 19:58:39 T:2796   DEBUG: CPlayerSelectionRule::GetPlayers: considering rule: dvdfile
  575. 19:58:39 T:2796   DEBUG: CPlayerSelectionRule::GetPlayers: considering rule: dvdimage
  576. 19:58:39 T:2796   DEBUG: CPlayerSelectionRule::GetPlayers: considering rule: sdp/asf
  577. 19:58:39 T:2796   DEBUG: CPlayerSelectionRule::GetPlayers: considering rule: nsv
  578. 19:58:39 T:2796   DEBUG: CPlayerCoreFactory::GetPlayers: matched 0 rules with players
  579. 19:58:39 T:2796   DEBUG: CPlayerCoreFactory::GetPlayers: adding videodefaultplayer (1)
  580. 19:58:39 T:2796   DEBUG: CPlayerCoreFactory::GetPlayers: for video=1, audio=0
  581. 19:58:39 T:2796   DEBUG: CPlayerCoreFactory::GetPlayers: for video=1, audio=1
  582. 19:58:39 T:2796   DEBUG: CPlayerCoreFactory::GetPlayers: adding player: DVDPlayer (1)
  583. 19:58:39 T:2796   DEBUG: CPlayerCoreFactory::GetPlayers: added 1 players
  584. 19:58:39 T:2796  NOTICE: DVDPlayer: Opening: C:\Videos\Trivia Intro\welcome_animation.avi
  585. 19:58:39 T:2796 WARNING: CDVDMessageQueue(player)::Put MSGQ_NOT_INITIALIZED
  586. 19:58:39 T:2796   DEBUG: CRenderManager::UpdateDisplayLatency - Latency set to 0 msec
  587. 19:58:39 T:2796   DEBUG: DXVA - cheking samples array size using 842094158 render target
  588. 19:58:39 T:2796   DEBUG: DXVA - updated maximum samples count to 2
  589. 19:58:39 T:2796   DEBUG: DXVA - cheking samples array size using 842094169 render target
  590. 19:58:39 T:2124   DEBUG: Thread CDVDPlayer start, auto delete: 0
  591. 19:58:39 T:2124  NOTICE: Creating InputStream
  592. 19:58:39 T:2124   DEBUG: CUtil::ScanForExternalSubtitles: Searching for subtitles...
  593. 19:58:39 T:2124   DEBUG: CUtil::ScanForExternalSubtitles: END (total time: 1 ms)
  594. 19:58:39 T:2124  NOTICE: Creating Demuxer
  595. 19:58:39 T:2124   DEBUG: SECTION:LoadDLL(special://xbmcbin/system/players/dvdplayer/avutil-50.dll)
  596. 19:58:39 T:2124   DEBUG: SECTION:LoadDLL(special://xbmcbin/system/players/dvdplayer/avcore-0.dll)
  597. 19:58:39 T:2124   DEBUG: SECTION:LoadDLL(special://xbmcbin/system/players/dvdplayer/avcodec-52.dll)
  598. 19:58:39 T:2124   DEBUG: SECTION:LoadDLL(special://xbmcbin/system/players/dvdplayer/avformat-52.dll)
  599. 19:58:39 T:2124   DEBUG: CDVDDemuxFFmpeg::Open - probing detected format [avi]
  600. 19:58:39 T:2124   DEBUG: CDVDDemuxFFmpeg::Open - av_find_stream_info starting
  601. 19:58:39 T:2124   DEBUG: CDVDDemuxFFmpeg::Open - av_find_stream_info finished
  602. 19:58:39 T:2124    INFO: ffmpeg[84C]: Input #0, avi, from 'C:\Videos\Trivia Intro\welcome_animation.avi':
  603. 19:58:39 T:2124    INFO: ffmpeg[84C]:   Duration: 00:00:43.04, start: 0.000000, bitrate: 37547 kb/s
  604. 19:58:39 T:2124    INFO: ffmpeg[84C]:     Stream #0.0: Video: dvvideo, yuv411p, 720x576 [PAR 64:45 DAR 16:9], 25 tbr, 31.25 tbn, 25 tbc
  605. 19:58:39 T:2124    INFO: ffmpeg[84C]:     Stream #0.1: Audio: pcm_s16le, 48000 Hz, 2 channels, s16, 1536 kb/s
  606. 19:58:39 T:2124  NOTICE: Opening video stream: 0 source: 256
  607. 19:58:39 T:2124  NOTICE: Creating video codec with codec id: 25
  608. 19:58:39 T:2124   DEBUG: CDVDFactoryCodec: compiled in hardware support: CrystalHD:yes DXVA:yes
  609. 19:58:39 T:2124   DEBUG: FactoryCodec - Video:  - Opening
  610. 19:58:39 T:2124   DEBUG: SECTION:LoadDLL(special://xbmcbin/system/players/dvdplayer/swscale-0.dll)
  611. 19:58:39 T:2124   DEBUG: SECTION:LoadDLL(special://xbmcbin/system/players/dvdplayer/avfilter-1.dll)
  612. 19:58:39 T:2124  NOTICE: CDVDVideoCodecFFmpeg::Open() Using codec: DV (Digital Video)
  613. 19:58:39 T:2124   DEBUG: FactoryCodec - Video: ff-dvvideo - Opened
  614. 19:58:39 T:2124  NOTICE: Creating video thread
  615. 19:58:39 T:2124  NOTICE: Opening audio stream: 1 source: 256
  616. 19:58:39 T:2124  NOTICE: Finding audio codec for: 65536
  617. 19:58:39 T:2124   DEBUG: FactoryCodec - Audio: PassthroughFFmpeg - Opening
  618. 19:58:39 T:2736   DEBUG: Thread CDVDPlayerVideo start, auto delete: 0
  619. 19:58:39 T:2736  NOTICE: running thread: video_thread
  620. 19:58:39 T:2124    INFO: CDVDAudioCodecPassthroughFFmpeg::Open - Won't transcode for HDMI
  621. 19:58:39 T:2124   DEBUG: FactoryCodec - Audio: PassthroughFFmpeg - Failed
  622. 19:58:39 T:2124   DEBUG: FactoryCodec - Audio: pcm - Opening
  623. 19:58:39 T:2124   DEBUG: FactoryCodec - Audio: pcm - Opened
  624. 19:58:39 T:2124  NOTICE: Creating audio thread
  625. 19:58:39 T:2124   DEBUG: CEdl::ReadEditDecisionLists - Checking for edit decision lists (EDL) on local drive or remote share for: C:\Videos\Trivia Intro\welcome_animation.avi
  626. 19:58:39 T:2124   DEBUG: CDVDPlayer::SetCaching - caching state 2
  627. 19:58:39 T:4060   DEBUG: Thread CDVDPlayerAudio start, auto delete: 0
  628. 19:58:39 T:4060  NOTICE: running thread: CDVDPlayerAudio::Process()
  629. 19:58:39 T:4060  NOTICE: Creating audio device with codec id: 65536, channels: 2, sample rate: 48000, no pass-through
  630. 19:58:39 T:4060    INFO: CPCMRemap: Configured speaker layout: 5.1
  631. 19:58:39 T:4060    INFO: CPCMRemap: I channel map: FL,FR
  632. 19:58:39 T:4060    INFO: CPCMRemap: O channel map: FL,FR
  633. 19:58:39 T:4060   DEBUG: CPCMRemap: Downmix normalization is disabled
  634. 19:58:39 T:4060   DEBUG: CPCMRemap: FL = FL(1.000000*)
  635. 19:58:39 T:4060   DEBUG: CPCMRemap: FR = FR(1.000000*)
  636. 19:58:39 T:4060   DEBUG: CWin32DirectSound::Initialize: Packet Size = 12384. Avg Bytes Per Second = 192000.
  637. 19:58:39 T:4060   DEBUG: CWin32DirectSound::Initialize: secondary buffer created
  638. 19:58:39 T:4060   DEBUG: CWin32DirectSound::Initialize - Channels: 2 - SampleRate: 48000 - SampleBit: 16 - Resample false - IsMusic false - IsPassthrough 0 - audioDevice: ATI HDMI Output (ATI High Definition Audio Device)
  639. 19:58:39 T:4060   DEBUG: CDVDPlayerAudio:: synctype set to 0: clock feedback
  640. 19:58:39 T:2124   DEBUG: CDVDPlayer::HandleMessages - player started 1
  641. 19:58:39 T:2796   DEBUG: CGUIAudioManager::DeInitialize
  642. 19:58:39 T:2736   DEBUG: CDVDPlayerVideo - CDVDMsg::GENERAL_SYNCHRONIZE
  643. 19:58:39 T:2736    INFO: CDVDPlayerVideo - Stillframe left, switching to normal playback
  644. 19:58:39 T:2736  NOTICE:  fps: 25.000000, pwidth: 720, pheight: 576, dwidth: 720, dheight: 405
  645. 19:58:39 T:2736   DEBUG: CDVDPlayerVideo::OutputPicture - change configuration. 720x576. framerate: 25.00. format: YV12
  646. 19:58:39 T:2736  NOTICE: Display resolution DESKTOP : 1366x768 @ 60.00 - Full Screen (12)
  647. 19:58:39 T:2736   DEBUG: CWinRenderer::SelectRenderMethod: Requested render method: 0
  648. 19:58:39 T:2736   DEBUG: CWinShader::LoadEffect - loading shader special://xbmc/system/shaders/testshader.fx
  649. 19:58:39 T:2736   DEBUG: CWinRenderer::SelectRenderMethod: Selected render method 1: Pixel Shaders
  650. 19:58:39 T:2548  NOTICE: [script.cinema.experience] - [ home_automation.py ] - activate_on( Trivia Intro ) Triggered
  651. 19:58:39 T:3472  NOTICE: [ script.cinema.experience ] - [ ce_playlist.py ] - Waiting Until End Of Video
  652. 19:58:39 T:3472   DEBUG: [ script.cinema.experience ] - [ ce_playlist.py ] - Playlist Size: 1
  653. 19:58:39 T:3472   DEBUG: [ script.cinema.experience ] - [ ce_playlist.py ] - Video TotalTime: 43.0
  654. 19:58:39 T:3312   DEBUG: CTextureCache::GetImageHash - unable to stat url C:\Movies\Gladiator\VIDEO_TS\logo.png
  655. 19:58:39 T:2796   DEBUG: CGUIInfoManager::SetCurrentMovie(C:\Videos\Trivia Intro\welcome_animation.avi)
  656. 19:58:39 T:2796   DEBUG: CVideoDatabase::GetMovieId (C:\Videos\Trivia Intro\welcome_animation.avi), query = select idMovie from movie where idFile=39
  657. 19:58:39 T:2796   DEBUG: CVideoDatabase::GetEpisodeId (C:\Videos\Trivia Intro\welcome_animation.avi), query = select idEpisode from episode where idFile=39
  658. 19:58:39 T:2796   DEBUG: CVideoDatabase::GetMusicVideoId (C:\Videos\Trivia Intro\welcome_animation.avi), query = select idMVideo from musicvideo where idFile=39
  659. 19:58:39 T:2796   DEBUG: CVideoDatabase::GetMovieId (C:\Videos\Trivia Intro\welcome_animation.avi), query = select idMovie from movie where idFile=39
  660. 19:58:39 T:2796   DEBUG: CVideoDatabase::GetEpisodeId (C:\Videos\Trivia Intro\welcome_animation.avi), query = select idEpisode from episode where idFile=39
  661. 19:58:39 T:2796   DEBUG: CVideoDatabase::GetMusicVideoId (C:\Videos\Trivia Intro\welcome_animation.avi), query = select idMVideo from musicvideo where idFile=39
  662. 19:58:39 T:2796   DEBUG: CAnnouncementManager - Announcement: OnPlay from xbmc
  663. 19:58:39 T:2796   DEBUG: GOT ANNOUNCEMENT, type: 1, from xbmc, message OnPlay
  664. 19:58:39 T:2796   DEBUG: Activating window ID: 12005
  665. 19:58:39 T:2796   DEBUG: ------ Window Deinit (MyVideoNav.xml) ------
  666. 19:58:39 T:2796   DEBUG: ------ Window Init (VideoFullScreen.xml) ------
  667. 19:58:39 T:2796    INFO: Loading skin file: VideoFullScreen.xml
  668. 19:58:39 T:2124   DEBUG: CDVDPlayer::HandleMessages - player started 2
  669. 19:58:39 T:2124   DEBUG: CDVDPlayer::SetCaching - caching state 3
  670. 19:58:39 T:4060   DEBUG: CDVDPlayerAudio - CDVDMsg::GENERAL_RESYNC(21333.333333, 1)
  671. 19:58:39 T:4060   DEBUG: CDVDPlayerAudio:: Discontinuity - was:35.498079, should be:0.000000, error:-35.498079
  672. 19:58:39 T:2796   DEBUG: created video buffer 0
  673. 19:58:39 T:2796   DEBUG: created video buffer 1
  674. 19:58:39 T:2796   DEBUG: CWinShader::LoadEffect - loading shader special://xbmc/system/shaders/yuv2rgb_d3d.fx
  675. 19:58:39 T:4060   DEBUG: CWin32DirectSound::CheckPlayStatus: Resuming Playback
  676. 19:58:39 T:2736   DEBUG: CDVDPlayerVideo - CDVDMsg::GENERAL_DELAY(10666.666667)
  677. 19:58:39 T:2124   DEBUG: CDVDPlayer::SetCaching - caching state 0
  678. 19:58:39 T:2796   DEBUG: ------ Window Deinit (DialogProgress.xml) ------
  679. 19:58:39 T:2736   DEBUG: CDVDPlayerVideo - CDVDMsg::GENERAL_RESYNC(32000.000000, 0)
  680. 19:58:40 T:2796   DEBUG: ------ Window Deinit (DialogKaiToast.xml) ------
  681. 19:58:41 T:4060   DEBUG: CDVDPlayerAudio:: Discontinuity - was:2099119.852437, should be:2062917.648746, error:-36202.203691
  682. 19:58:59 T:2632   DEBUG: ### [Qlock] - Delaying 3 secs
  683. 19:59:09 T:3312   DEBUG: Previous line repeats 5 times.
  684. 19:59:09 T:3312   DEBUG: Thread Jobworker 3312 terminating (autodelete)
  685. 19:59:09 T:3928   DEBUG: Thread Jobworker 3928 terminating (autodelete)
  686. 19:59:11 T:2632   DEBUG: ### [Qlock] - Delaying 3 secs
  687. 19:59:21 T:4060   DEBUG: Previous line repeats 5 times.
  688. 19:59:21 T:4060   DEBUG: CDVDPlayerAudio - CDVDMsg::GENERAL_EOF
  689. 19:59:21 T:4060   DEBUG: CDVDAudio::Drain - adding 11576 bytes of silence, buffer size: 808, chunk size: 12384
  690. 19:59:21 T:4060 WARNING: CDVDMessageQueue(audio)::Get - asked for new data packet, with nothing available
  691. 19:59:22 T:3472   DEBUG: [ script.cinema.experience ] - [ ce_playlist.py ] - Video getTime: 42.6620020263
  692. 19:59:22 T:2736 WARNING: CDVDMessageQueue(video)::Get - asked for new data packet, with nothing available
  693. 19:59:22 T:2124  NOTICE: CDVDPlayer::OnExit()
  694. 19:59:22 T:2124  NOTICE: DVDPlayer: eof, waiting for queues to empty
  695. 19:59:22 T:2124  NOTICE: DVDPlayer: closing audio stream
  696. 19:59:22 T:2124  NOTICE: Closing audio stream
  697. 19:59:22 T:2124  NOTICE: CDVDMessageQueue(audio)::WaitUntilEmpty
  698. 19:59:22 T:4060   DEBUG: CDVDPlayerAudio - CDVDMsg::GENERAL_SYNCHRONIZE
  699. 19:59:22 T:4060   DEBUG: CDVDPlayerAudio::Process - Abort received, exiting thread
  700. 19:59:22 T:4060  NOTICE: thread end: CDVDPlayerAudio::OnExit()
  701. 19:59:22 T:4060   DEBUG: Thread CDVDPlayerAudio 4060 terminating
  702. 19:59:22 T:2124  NOTICE: Waiting for audio thread to exit
  703. 19:59:22 T:2124  NOTICE: Closing audio device
  704. 19:59:22 T:2124   DEBUG: CWin32DirectSound::WaitCompletion - timeout waiting for silence
  705. 19:59:22 T:2124   DEBUG: CWin32DirectSound::Deinitialize: Cleaning up
  706. 19:59:22 T:2124  NOTICE: Deleting audio codec
  707. 19:59:22 T:2124  NOTICE: DVDPlayer: closing video stream
  708. 19:59:22 T:2124  NOTICE: Closing video stream
  709. 19:59:22 T:2124  NOTICE: CDVDMessageQueue(video)::WaitUntilEmpty
  710. 19:59:22 T:2124  NOTICE: waiting for video thread to exit
  711. 19:59:22 T:2736   DEBUG: CDVDPlayerVideo - CDVDMsg::GENERAL_SYNCHRONIZE
  712. 19:59:22 T:2736  NOTICE: thread end: video_thread
  713. 19:59:22 T:2736   DEBUG: Thread CDVDPlayerVideo 2736 terminating
  714. 19:59:22 T:2124  NOTICE: deleting video codec
  715. 19:59:22 T:2124  NOTICE: CDVDPlayer::OnExit() deleting demuxer
  716. 19:59:22 T:2124  NOTICE: CDVDPlayer::OnExit() deleting input stream
  717. 19:59:22 T:2124   DEBUG: CAnnouncementManager - Announcement: OnStop from xbmc
  718. 19:59:22 T:2124   DEBUG: GOT ANNOUNCEMENT, type: 1, from xbmc, message OnStop
  719. 19:59:22 T:2124   DEBUG: Thread CDVDPlayer 2124 terminating
  720. 19:59:22 T:2796   DEBUG: CGUIAudioManager::Initialize
  721. 19:59:22 T:2796   DEBUG: CGUIWindowManager::PreviousWindow: Deactivate
  722. 19:59:23 T:2796   DEBUG: ------ Window Deinit (VideoFullScreen.xml) ------
  723. 19:59:23 T:2796   DEBUG: CGUIWindowManager::PreviousWindow: Activate new
  724. 19:59:23 T:2796   DEBUG: ------ Window Init (MyVideoNav.xml) ------
  725. 19:59:23 T:2796    INFO: Loading skin file: MyVideoNav.xml
  726. 19:59:23 T:2796   DEBUG: CGUIMediaWindow::GetDirectory (videodb://1/2/)
  727. 19:59:23 T:2796   DEBUG:   ParentPath = [videodb://1/2/]
  728. 19:59:23 T:2796   DEBUG: CVideoDatabase::RunQuery took 0 ms for 3 items query: SELECT sets.idSet,sets.strSet,COUNT(1) AS c,count(files.playCount) FROM sets JOIN setlinkmovie ON sets.idSet=setlinkmovie.idSet JOIN movie ON setlinkmovie.idMovie=movie.idMovie JOIN files ON files.idFile=movie.idFile  GROUP BY sets.idSet HAVING c>1
  729. 19:59:23 T:2796   DEBUG: CVideoDatabase::RunQuery took 1 ms for 6 items query: select * from movieview  WHERE movieview.idMovie NOT IN (SELECT idMovie FROM setlinkmovie s1 JOIN(SELECT idSet, COUNT(1) AS c FROM setlinkmovie GROUP BY idSet HAVING c>1) s2 ON s2.idSet=s1.idSet)
  730. 19:59:23 T:2796   DEBUG: Saving fileitems [videodb://1/2/]
  731. 19:59:23 T:2796   DEBUG:   -- items: 9, sort method: 25, ascending: true
  732. 19:59:23 T:2504   DEBUG: Thread Background Loader start, auto delete: 0
  733. 19:59:23 T:3912   DEBUG: Thread Jobworker start, auto delete: 1
  734. 19:59:23 T:2632   DEBUG: ### [Qlock] - Delaying 3 secs
  735. 19:59:23 T:2504   DEBUG: Thread Background Loader 2504 terminating
  736. 19:59:23 T:2796   DEBUG: SECTION:UnloadDelayed(DLL: special://xbmcbin/system/ImageLib.dll)
  737. 19:59:23 T:2796  NOTICE: CDVDPlayer::CloseFile()
  738. 19:59:23 T:2796 WARNING: CDVDMessageQueue(player)::Put MSGQ_NOT_INITIALIZED
  739. 19:59:23 T:2796  NOTICE: DVDPlayer: waiting for threads to exit
  740. 19:59:23 T:2796  NOTICE: DVDPlayer: finished waiting
  741. 19:59:23 T:3912   DEBUG: CImageLoader::DoWork - took 204 ms to load special://masterprofile/Thumbnails/Video/Fanart/ac92ebbd.tbn
  742. 19:59:24 T:3468   DEBUG: Thread Jobworker start, auto delete: 1
  743. 19:59:24 T:3468   DEBUG: CThumbExtractor::DoWork - trying to extract filestream details from video file C:\Movies\Gladiator\VIDEO_TS\VIDEO_TS.IFO
  744. 19:59:24 T:3468   DEBUG: CSaveFileStateJob::DoWork - Saving file state for video item C:\Videos\Trivia Intro\welcome_animation.avi
  745. 19:59:24 T:3180   DEBUG: Thread Jobworker start, auto delete: 1
  746. 19:59:24 T:3180   DEBUG: CThumbExtractor::DoWork - trying to extract filestream details from video file C:\Movies\Old School\VIDEO_TS\VIDEO_TS.IFO
  747. 19:59:24 T:3180   DEBUG: CThumbExtractor::DoWork - trying to extract filestream details from video file C:\Movies\National Lampoons Christmas Vacation\VIDEO_TS\VIDEO_TS.IFO
  748. 19:59:24 T:3468   DEBUG: CSaveFileStateJob::DoWork - Marking video item C:\Videos\Trivia Intro\welcome_animation.avi as watched
  749. 19:59:24 T:3472  NOTICE: [ script.cinema.experience ] - Starting Trivia script
  750. 19:59:24 T:2380  NOTICE: [script.cinema.experience] - [ home_automation.py ] - activate_on( Trivia ) Triggered
  751. 19:59:24 T:3472   ERROR: C:\Users\Administrator\AppData\Roaming\XBMC\addons\script.cinema.experience\resources\lib\xbmcscript_trivia.py:40: DeprecationWarning: object.__init__() takes no parameters
  752.                                               xbmcgui.WindowXML.__init__( self, *args, **kwargs )
  753. 19:59:24 T:2796   DEBUG: HttpApi Start command: GetGUISetting  paras: GetGUISetting; 3;screensaver.mode
  754. 19:59:24 T:3472   DEBUG: JSONRPC: Incoming request: {"jsonrpc": "2.0", "method": "Application.GetProperties", "params": { "properties": [ "volume" ] }, "id": 1}
  755. 19:59:24 T:3472   DEBUG: JSONRPC: Calling application.getproperties
  756. 19:59:24 T:3472   DEBUG: [script.cinema.experience] - Current Volume: 1
  757. 19:59:24 T:2796   DEBUG: HttpApi Start command: SetGUISetting  paras: SetGUISetting; 3;screensaver.mode;None
  758. 19:59:24 T:2796   DEBUG: Activating window ID: 13000
  759. 19:59:25 T:2796   DEBUG: ------ Window Deinit (MyVideoNav.xml) ------
  760. 19:59:25 T:2796   DEBUG: ------ Window Init (C:\Users\Administrator\AppData\Roaming\XBMC\addons\script.cinema.experience\resources\skins\default\720p\script-CExperience-trivia.xml) ------
  761. 19:59:25 T:2796    INFO: Loading skin file: C:\Users\Administrator\AppData\Roaming\XBMC\addons\script.cinema.experience\resources\skins\default\720p\script-CExperience-trivia.xml
  762. 19:59:25 T:3472  NOTICE: [script.cinema.experience] - Loading Watch Slide List
  763. 19:59:25 T:3472  NOTICE: [script.cinema.experience] - Starting Tivia Music
  764. 19:59:25 T:3472  NOTICE: [script.cinema.experience] - Adjusting Volume to 100
  765. 19:59:25 T:2796   DEBUG: ------ Window Init (DialogVolumeBar.xml) ------
  766. 19:59:25 T:2796   DEBUG: CPlayerCoreFactory::GetPlayers(C:\Videos\Audio\Cuban Pete1.mp3)
  767. 19:59:25 T:2796   DEBUG: CPlayerSelectionRule::GetPlayers: considering rule: system rules
  768. 19:59:25 T:2796   DEBUG: CPlayerSelectionRule::GetPlayers: matches rule: system rules
  769. 19:59:25 T:2796   DEBUG: CPlayerSelectionRule::GetPlayers: considering rule: rtv
  770. 19:59:25 T:2796   DEBUG: CPlayerSelectionRule::GetPlayers: considering rule: hdhomerun/myth/rtmp/mms/udp
  771. 19:59:25 T:2796   DEBUG: CPlayerSelectionRule::GetPlayers: considering rule: lastfm/shout
  772. 19:59:25 T:2796   DEBUG: CPlayerSelectionRule::GetPlayers: considering rule: rtsp
  773. 19:59:25 T:2796   DEBUG: CPlayerSelectionRule::GetPlayers: considering rule: streams
  774. 19:59:25 T:2796   DEBUG: CPlayerSelectionRule::GetPlayers: considering rule: dvd
  775. 19:59:25 T:2796   DEBUG: CPlayerSelectionRule::GetPlayers: considering rule: dvdfile
  776. 19:59:25 T:2796   DEBUG: CPlayerSelectionRule::GetPlayers: considering rule: dvdimage
  777. 19:59:25 T:2796   DEBUG: CPlayerSelectionRule::GetPlayers: considering rule: sdp/asf
  778. 19:59:25 T:2796   DEBUG: CPlayerSelectionRule::GetPlayers: considering rule: nsv
  779. 19:59:25 T:2796   DEBUG: CPlayerCoreFactory::GetPlayers: matched 0 rules with players
  780. 19:59:25 T:2796   DEBUG: SECTION:LoadDLL(special://xbmcbin/system/players/dvdplayer/libmad.dll)
  781. 19:59:25 T:2796   DEBUG: CPlayerCoreFactory::GetPlayers: adding audiodefaultplayer (3)
  782. 19:59:25 T:2796   DEBUG: CPlayerCoreFactory::GetPlayers: for video=0, audio=1
  783. 19:59:25 T:2796   DEBUG: CPlayerCoreFactory::GetPlayers: adding player: PAPlayer (3)
  784. 19:59:25 T:2796   DEBUG: CPlayerCoreFactory::GetPlayers: for video=1, audio=1
  785. 19:59:25 T:2796   DEBUG: CPlayerCoreFactory::GetPlayers: adding player: DVDPlayer (1)
  786. 19:59:25 T:2796   DEBUG: CPlayerCoreFactory::GetPlayers: added 2 players
  787. 19:59:25 T:2796   DEBUG: CFileCache::Open - opening <C:\Videos\Audio\Cuban Pete1.mp3> using cache
  788. 19:59:25 T:2796   DEBUG: DllLibApeTag: Using libapetag library
  789. 19:59:25 T:2796   DEBUG: SECTION:LoadDLL(special://xbmcbin/system/libid3tag.dll)
  790. 19:59:25 T:2796   DEBUG: DllLibApeTag: Using libapetag library
  791. 19:59:25 T:2432   DEBUG: Thread XFILE::CFileCache start, auto delete: 0
  792. 19:59:25 T:2796    INFO: PAPlayer: Playing C:\Videos\Audio\Cuban Pete1.mp3
  793. 19:59:25 T:2796   DEBUG: PAPlayer: Creating new audio renderer
  794. 19:59:25 T:2796    INFO: CAudioRendererFactory: no input channel map specified assume windows
  795. 19:59:25 T:2796    INFO: CPCMRemap: Configured speaker layout: 5.1
  796. 19:59:25 T:2796    INFO: CPCMRemap: I channel map: FL,FR
  797. 19:59:25 T:2796    INFO: CPCMRemap: O channel map: FL,FR
  798. 19:59:25 T:2796   DEBUG: CPCMRemap: Downmix normalization is disabled
  799. 19:59:25 T:2796   DEBUG: CPCMRemap: FL = FL(1.000000*)
  800. 19:59:25 T:2796   DEBUG: CPCMRemap: FR = FR(1.000000*)
  801. 19:59:25 T:2796   DEBUG: CWin32DirectSound::Initialize: Packet Size = 12384. Avg Bytes Per Second = 176400.
  802. 19:59:25 T:2796   DEBUG: CWin32DirectSound::Initialize: secondary buffer created
  803. 19:59:25 T:2796   DEBUG: CWin32DirectSound::Initialize - Channels: 2 - SampleRate: 44100 - SampleBit: 16 - Resample false - IsMusic true - IsPassthrough 0 - audioDevice: ATI HDMI Output (ATI High Definition Audio Device)
  804. 19:59:25 T:2796   DEBUG: CGUIAudioManager::DeInitialize
  805. 19:59:25 T:3472  NOTICE: [script.cinema.experience] - [ce_playlist.py] - Rebuilding Playlist
  806. 19:59:25 T:3472  NOTICE: [{'thumbnail': 'special://masterprofile/Thumbnails/Video/5/59360c0b.tbn', 'file': 'C:\\Movies\\The 40-Year-Old Virgin\\VIDEO_TS\\VIDEO_TS.IFO', 'title': 'The 40 Year Old Virgin', 'genre': 'Comedy / Romance', 'mpaa': 'Rated R', 'streamdetails': {'audio': [{'channels': 6, 'codec': 'ac3', 'language': ''}, {'channels': 2, 'codec': 'ac3', 'language': ''}, {'channels': 2, 'codec': 'ac3', 'language': ''}, {'channels': 2, 'codec': 'ac3', 'language': ''}], 'video': [{'duration': 7940, 'width': 720, 'codec': 'mpeg2video', 'aspect': 1.7777780294418335, 'height': 480}]}, 'type': 'movie', 'id': 11, 'label': 'The 40 Year Old Virgin'}]
  807. 19:59:25 T:3472   DEBUG: [script.cinema.experience] - Movie Title: The 40 Year Old Virgin
  808. 19:59:25 T:3472   DEBUG: [script.cinema.experience] - Movie Thumbnail: special://masterprofile/Thumbnails/Video/5/59360c0b.tbn
  809. 19:59:25 T:3472   DEBUG: [script.cinema.experience] - Full Movie Path: C:\Movies\The 40-Year-Old Virgin\VIDEO_TS\VIDEO_TS.IFO
  810. 19:59:25 T:3472   DEBUG: JSONRPC: Incoming request: {"jsonrpc": "2.0", "method": "Playlist.Add", "params": {"playlistid": 1, "item": {"movieid": 11} }, "id": 1}
  811. 19:59:25 T:3472   DEBUG: JSONRPC: Calling playlist.add
  812. 19:59:25 T:3472   DEBUG: JSONRPC: Missing property "file" in type
  813. 19:59:25 T:3472   DEBUG: JSONRPC: Missing property "directory" in type
  814. 19:59:25 T:2464   DEBUG: Thread PAPlayer start, auto delete: 0
  815. 19:59:25 T:2464   DEBUG: PAPlayer: Thread started
  816. 19:59:25 T:2796   DEBUG: CGUIInfoManager::SetCurrentSong(C:\Videos\Audio\Cuban Pete1.mp3)
  817. 19:59:25 T:2796   DEBUG: CFileItem::LoadMusicTag: loading tag information for file: C:\Videos\Audio\Cuban Pete1.mp3
  818. 19:59:25 T:2464    INFO: AudioDecoder: File is queued
  819. 19:59:25 T:2464   DEBUG: CWin32DirectSound::CheckPlayStatus: Resuming Playback
  820. 19:59:25 T:2796   DEBUG: Loading additional tag info for file C:\Videos\Audio\Cuban Pete1.mp3
  821. 19:59:25 T:2796   DEBUG: CAnnouncementManager - Announcement: OnPlay from xbmc
  822. 19:59:25 T:2796   DEBUG: GOT ANNOUNCEMENT, type: 1, from xbmc, message OnPlay
  823. 19:59:25 T:3472   DEBUG: [script.cinema.experience] - JSONRPC Response:
  824.                                             The 40 Year Old Virgin
  825. 19:59:25 T:3468   DEBUG: Caching image 'C:\Videos\Trivia\Please No Talking.jpg' as 'd/d9cb3cda.jpg' full size
  826. 19:59:25 T:3468    INFO: Caching image from: C:\Videos\Trivia\Please No Talking.jpg to special://masterprofile/Thumbnails/d/d9cb3cda.jpg
  827. 19:59:25 T:2632   DEBUG: ### [Qlock] - Delaying 3 secs
  828. 19:59:26 T:2796   DEBUG: ------ Window Deinit (DialogVolumeBar.xml) ------
  829. 19:59:26 T:2432    INFO: CFileCache::Process - Hit eof.
  830. 19:59:27 T:2632   DEBUG: ### [Qlock] - Delaying 3 secs
  831. 19:59:35 T:3468   DEBUG: Previous line repeats 3 times.
  832. 19:59:35 T:3468   DEBUG: Caching image 'C:\Videos\Trivia\Cars03.jpg' as '7/70dbb797.jpg' full size
  833. 19:59:35 T:3468    INFO: Caching image from: C:\Videos\Trivia\Cars03.jpg to special://masterprofile/Thumbnails/7/70dbb797.jpg
  834. 19:59:35 T:2632   DEBUG: ### [Qlock] - Delaying 3 secs
  835. 19:59:45 T:3468   DEBUG: Previous line repeats 4 times.
  836. 19:59:45 T:3468   DEBUG: Caching image 'C:\Videos\Trivia\Incredibles13.jpg' as '6/6990baae.jpg' full size
  837. 19:59:45 T:3468    INFO: Caching image from: C:\Videos\Trivia\Incredibles13.jpg to special://masterprofile/Thumbnails/6/6990baae.jpg
  838. 19:59:45 T:2632   DEBUG: ### [Qlock] - Delaying 3 secs
  839. 19:59:53 T:2796   DEBUG: Previous line repeats 3 times.
  840. 19:59:53 T:2796   DEBUG: SECTION:UnloadDelayed(DLL: special://xbmcbin/system/players/dvdplayer/avutil-50.dll)
  841. 19:59:53 T:2632   DEBUG: ### [Qlock] - Delaying 3 secs
  842. 19:59:53 T:2796   DEBUG: SECTION:UnloadDelayed(DLL: special://xbmcbin/system/players/dvdplayer/avcore-0.dll)
  843. 19:59:54 T:2796   DEBUG: SECTION:UnloadDelayed(DLL: special://xbmcbin/system/players/dvdplayer/avcodec-52.dll)
  844. 19:59:54 T:2796   DEBUG: SECTION:UnloadDelayed(DLL: special://xbmcbin/system/players/dvdplayer/avformat-52.dll)
  845. 19:59:55 T:2796   DEBUG: SECTION:UnloadDelayed(DLL: special://xbmcbin/system/players/dvdplayer/swscale-0.dll)
  846. 19:59:55 T:3468   DEBUG: Caching image 'C:\Videos\Trivia\PixarTheCompany13.jpg' as '9/961a7361.jpg' full size
  847. 19:59:55 T:3468    INFO: Caching image from: C:\Videos\Trivia\PixarTheCompany13.jpg to special://masterprofile/Thumbnails/9/961a7361.jpg
  848. 19:59:55 T:2632   DEBUG: ### [Qlock] - Delaying 3 secs
  849. 19:59:55 T:2796   DEBUG: SECTION:UnloadDelayed(DLL: special://xbmcbin/system/players/dvdplayer/avfilter-1.dll)
  850. 19:59:56 T:2796   DEBUG: SECTION:UnloadDelayed(DLL: special://xbmcbin/system/libid3tag.dll)
  851. 19:59:57 T:2632   DEBUG: ### [Qlock] - Delaying 3 secs
  852. 20:00:01 T:2632   DEBUG: Previous line repeats 1 times.
  853. 20:00:01 T:2632   DEBUG: ### [Qlock] - Delaying 240 secs
  854. 20:00:05 T:3468   DEBUG: Caching image 'C:\Videos\Trivia\up10.jpg' as '9/95a916ef.jpg' full size
  855. 20:00:05 T:3468    INFO: Caching image from: C:\Videos\Trivia\up10.jpg to special://masterprofile/Thumbnails/9/95a916ef.jpg
  856. 20:00:15 T:3468   DEBUG: Caching image 'C:\Videos\Trivia\Wall-e09.jpg' as 'c/c9cd1c84.jpg' full size
  857. 20:00:15 T:3468    INFO: Caching image from: C:\Videos\Trivia\Wall-e09.jpg to special://masterprofile/Thumbnails/c/c9cd1c84.jpg
  858. 20:00:24 T:4068   DEBUG: [ script.cinema.experience ] - [ pre_eden_code.py ] - _get_queued_video_info() Started
  859. 20:00:24 T:4068  NOTICE: [script.cinema.experience] - Storing Playlist
  860. 20:00:24 T:4068   DEBUG: [json_utils.py] - JSONRPC Query -
  861.                                             {"jsonrpc": "2.0", "method": "Playlist.GetItems", "params": {"playlistid": 1, "properties": ["title", "file", "thumbnail", "streamdetails", "mpaa", "genre"] }, "id": 1}
  862. 20:00:24 T:4068   DEBUG: JSONRPC: Incoming request: {"jsonrpc": "2.0", "method": "Playlist.GetItems", "params": {"playlistid": 1, "properties": ["title", "file", "thumbnail", "streamdetails", "mpaa", "genre"] }, "id": 1}
  863. 20:00:24 T:4068   DEBUG: JSONRPC: Calling playlist.getitems
  864. 20:00:24 T:4068   DEBUG: [json_utils.py] - retrieve_json_dict - JSONRPC -
  865.                                             {"id":1,"jsonrpc":"2.0","result":{"items":[{"file":"C:\\Movies\\The 40-Year-Old Virgin\\VIDEO_TS\\VIDEO_TS.IFO","genre":"Comedy / Romance","id":11,"label":"The 40 Year Old Virgin","mpaa":"Rated R","streamdetails":{"audio":[{"channels":6,"codec":"ac3","language":""},{"channels":2,"codec":"ac3","language":""},{"channels":2,"codec":"ac3","language":""},{"channels":2,"codec":"ac3","language":""}],"video":[{"aspect":1.7777780294418335,"codec":"mpeg2video","duration":7940,"height":480,"width":720}]},"thumbnail":"special://masterprofile/Thumbnails/Video/5/59360c0b.tbn","title":"The 40 Year Old Virgin","type":"movie"}],"limits":{"end":1,"start":0,"total":1}}}
  866. 20:00:24 T:4068   DEBUG: [ script.cinema.experience ] - [ pre_eden_code.py ] - Queued Movie Information
  867. 20:00:24 T:4068   DEBUG: [ script.cinema.experience ] - [ pre_eden_code.py ] ----------------------------------------------------------------------
  868. 20:00:24 T:4068   DEBUG: [ script.cinema.experience ] - [ pre_eden_code.py ] - Title: The 40 Year Old Virgin
  869. 20:00:24 T:4068   DEBUG: [ script.cinema.experience ] - [ pre_eden_code.py ] - Path: C:\Movies\The 40-Year-Old Virgin\VIDEO_TS\VIDEO_TS.IFO
  870. 20:00:24 T:4068   DEBUG: [ script.cinema.experience ] - [ pre_eden_code.py ] - Genre: Comedy / Romance
  871. 20:00:24 T:4068   DEBUG: [ script.cinema.experience ] - [ pre_eden_code.py ] - MPAA: R
  872. 20:00:24 T:4068   DEBUG: [ script.cinema.experience ] - [ pre_eden_code.py ] - Audio: ac3
  873. 20:00:24 T:4068   DEBUG: [ script.cinema.experience ] - [ pre_eden_code.py ] - Folder: ('C:\\Videos\\Audio\\Dolby\\',)
  874. 20:00:24 T:4068   DEBUG: [ script.cinema.experience ] - [ pre_eden_code.py ]  ----------------------------------------------------------------------
  875. 20:00:24 T:4068  NOTICE: [script.cinema.experience] - Building Cinema Experience Playlist
  876. 20:00:24 T:4068  NOTICE: [script.cinema.experience] - Adding Audio Format Video
  877. 20:00:24 T:4068  NOTICE: [script.cinema.experience] - Adding Countdown Videos: 1 Video(s)
  878. 20:00:24 T:4068   DEBUG: [ script.cinema.experience ] - [ ce_playlist.py ] - _get_special_items() Started
  879. 20:00:24 T:4068   DEBUG: [ script.cinema.experience ] - [ ce_playlist.py ] - _get_special_items() - Path: C:\Videos\Intermission Countdown\
  880. 20:00:24 T:4068   DEBUG: [folder.py] - dirEntries Activated
  881. 20:00:24 T:4068   DEBUG: [folder.py] - escapeDirJSON Activated
  882. 20:00:24 T:4068   DEBUG: [json_utils.py] - JSONRPC Query -
  883.                                             {"jsonrpc": "2.0", "method": "Files.GetDirectory", "params": {"directory": "C:\\Videos\\Intermission Countdown\\", "media": "video"}, "id": 1}
  884. 20:00:24 T:4068   DEBUG: JSONRPC: Incoming request: {"jsonrpc": "2.0", "method": "Files.GetDirectory", "params": {"directory": "C:\\Videos\\Intermission Countdown\\", "media": "video"}, "id": 1}
  885. 20:00:24 T:4068   DEBUG: JSONRPC: Calling files.getdirectory
  886. 20:00:24 T:4068   DEBUG: CUtil::GetMatchingSource: no matching source found for [C:\Videos\Intermission Countdown\]
  887. 20:00:24 T:4068   DEBUG: Previous line repeats 4 times.
  888. 20:00:24 T:4068   DEBUG: CVideoDatabase::GetMovieId (C:\Videos\Intermission Countdown\Jayhawk Feature Presentation.wmv), query = select idMovie from movie where idFile=58
  889. 20:00:24 T:4068   DEBUG: CVideoDatabase::GetEpisodeId (C:\Videos\Intermission Countdown\Jayhawk Feature Presentation.wmv), query = select idEpisode from episode where idFile=58
  890. 20:00:24 T:4068   DEBUG: CVideoDatabase::GetMusicVideoId (C:\Videos\Intermission Countdown\Jayhawk Feature Presentation.wmv), query = select idMVideo from musicvideo where idFile=58
  891. 20:00:24 T:4068   DEBUG: [json_utils.py] - retrieve_json_dict - JSONRPC -
  892.                                             {"id":1,"jsonrpc":"2.0","result":{"files":[{"file":"C:\\Videos\\Intermission Countdown\\Jayhawk Feature Presentation.wmv","filetype":"file","label":"Jayhawk Feature Presentation.wmv","type":"unknown"}],"limits":{"end":1,"start":0,"total":1}}}
  893. 20:00:24 T:4068   DEBUG: [ script.cinema.experience ] - [ ce_playlist.py ] - Checking Path: C:\Videos\Intermission Countdown\Jayhawk Feature Presentation.wmv
  894. 20:00:24 T:4068   DEBUG: [ script.cinema.experience ] - [ ce_playlist.py ] - _get_listitem() Started
  895. 20:00:24 T:4068   DEBUG: [ script.cinema.experience ] - [ ce_playlist.py ] - _get_thumbnail() Started
  896. 20:00:24 T:4068   DEBUG: [ script.cinema.experience ] - [ ce_playlist.py ] - Thumbnail Url: C:\Videos\Intermission Countdown\Jayhawk Feature Presentation.wmv
  897. 20:00:24 T:4068   DEBUG: [ script.cinema.experience ] - [ ce_playlist.py ] - Thumbnail Cached Filename: d121e190.tbn
  898. 20:00:24 T:4068  NOTICE: [script.cinema.experience] - Adding Ratings Video
  899. 20:00:24 T:4068  NOTICE: [script.cinema.experience] - Adding Feature Presentation Intro Videos: 1 Videos
  900. 20:00:24 T:4068   DEBUG: [ script.cinema.experience ] - [ ce_playlist.py ] - _get_special_items() Started
  901. 20:00:24 T:4068   DEBUG: [ script.cinema.experience ] - [ ce_playlist.py ] - _get_special_items() - Path: C:\Videos\Feature Presentation Intro\
  902. 20:00:24 T:4068   DEBUG: [folder.py] - dirEntries Activated
  903. 20:00:24 T:4068   DEBUG: [folder.py] - escapeDirJSON Activated
  904. 20:00:24 T:4068   DEBUG: [json_utils.py] - JSONRPC Query -
  905.                                             {"jsonrpc": "2.0", "method": "Files.GetDirectory", "params": {"directory": "C:\\Videos\\Feature Presentation Intro\\", "media": "video"}, "id": 1}
  906. 20:00:24 T:4068   DEBUG: JSONRPC: Incoming request: {"jsonrpc": "2.0", "method": "Files.GetDirectory", "params": {"directory": "C:\\Videos\\Feature Presentation Intro\\", "media": "video"}, "id": 1}
  907. 20:00:24 T:4068   DEBUG: JSONRPC: Calling files.getdirectory
  908. 20:00:24 T:4068   DEBUG: CUtil::GetMatchingSource: no matching source found for [C:\Videos\Feature Presentation Intro\]
  909. 20:00:24 T:4068   DEBUG: Previous line repeats 4 times.
  910. 20:00:24 T:4068   DEBUG: CVideoDatabase::GetMovieId (C:\Videos\Feature Presentation Intro\Silence+Is+Golden_mpeg1video.mpg), query = select idMovie from movie where idFile=57
  911. 20:00:24 T:4068   DEBUG: CVideoDatabase::GetEpisodeId (C:\Videos\Feature Presentation Intro\Silence+Is+Golden_mpeg1video.mpg), query = select idEpisode from episode where idFile=57
  912. 20:00:24 T:4068   DEBUG: CVideoDatabase::GetMusicVideoId (C:\Videos\Feature Presentation Intro\Silence+Is+Golden_mpeg1video.mpg), query = select idMVideo from musicvideo where idFile=57
  913. 20:00:24 T:4068   DEBUG: [json_utils.py] - retrieve_json_dict - JSONRPC -
  914.                                             {"id":1,"jsonrpc":"2.0","result":{"files":[{"file":"C:\\Videos\\Feature Presentation Intro\\Cartoon+Network+-+Silence+is+Golden_mpeg1video.mpg","filetype":"file","label":"Cartoon+Network+-+Silence+is+Golden_mpeg1video.mpg","type":"unknown"},{"file":"C:\\Videos\\Feature Presentation Intro\\movie+theater+ad+-+quiet+please!_mpeg1video.mpg","filetype":"file","label":"movie+theater+ad+-+quiet+please!_mpeg1video.mpg","type":"unknown"},{"file":"C:\\Videos\\Feature Presentation Intro\\No+Cell+Phones+In+The+Cinema_+DARTH+VADER+STYLE_mpeg1video.mpg","filetype":"file","label":"No+Cell+Phones+In+The+Cinema_+DARTH+VADER+STYLE_mpeg1video.mpg","type":"unknown"},{"file":"C:\\Videos\\Feature Presentation Intro\\Silence+Is+Golden_mpeg1video.mpg","filetype":"file","label":"Silence+Is+Golden_mpeg1video.mpg","type":"unknown"}],"limits":{"end":4,"start":0,"total":4}}}
  915. 20:00:24 T:4068   DEBUG: [ script.cinema.experience ] - [ ce_playlist.py ] - Checking Path: C:\Videos\Feature Presentation Intro\movie+theater+ad+-+quiet+please!_mpeg1video.mpg
  916. 20:00:24 T:4068   DEBUG: [ script.cinema.experience ] - [ ce_playlist.py ] - _get_listitem() Started
  917. 20:00:24 T:4068   DEBUG: [ script.cinema.experience ] - [ ce_playlist.py ] - _get_thumbnail() Started
  918. 20:00:24 T:4068   DEBUG: [ script.cinema.experience ] - [ ce_playlist.py ] - Thumbnail Url: C:\Videos\Feature Presentation Intro\movie+theater+ad+-+quiet+please!_mpeg1video.mpg
  919. 20:00:24 T:4068   DEBUG: [ script.cinema.experience ] - [ ce_playlist.py ] - Thumbnail Cached Filename: 4b647d4d.tbn
  920. 20:00:24 T:4068  NOTICE: [script.cinema.experience] - Retriving Trailers: 2 Trailers
  921. 20:00:24 T:4068   DEBUG: [script.cinema.experience] - [ce_playlist.py] - _get_trailers started
  922. 20:00:24 T:4068  NOTICE: Apple Movie Trailers Newest trailers scraper
  923. 20:00:25 T:3468   DEBUG: Caching image 'C:\Videos\Trivia\Wall-e04.jpg' as 'e/e1ddff8c.jpg' full size
  924. 20:00:25 T:3468    INFO: Caching image from: C:\Videos\Trivia\Wall-e04.jpg to special://masterprofile/Thumbnails/e/e1ddff8c.jpg
  925. 20:00:25 T:4068  NOTICE: [('4850', u'Safety Not Guaranteed', 'http://trailers.apple.com/movies/independent/safetynotguaranteed/safetynotguaranteed-tlr1_h720p.mov|User-Agent=QuickTime%2F7.6.5+%28qtver%3D7.6.5%3Bos%3DWindows+NT+5.1Service+Pack+3%29', 'http://trailers.apple.com/trailers/independent/safetynotguaranteed/images/poster-xlarge.jpg|User-Agent=QuickTime%2F7.6.5+%28qtver%3D7.6.5%3Bos%3DWindows+NT+5.1Service+Pack+3%29', u'From the producers of Little Miss Sunshine - When an unusual classified ad inspires three cynical Seattle magazine employees to look for the story behind it, they discover a mysterious eccentric named Kenneth, a likable but paranoid supermarket clerk, who believes hes solved the riddle of time travel and intends to depart again soon.  Together, they embark on a hilarious, smart, and unexpectedly heartfelt journey that reveals how far believing can take you.', '2:30', 'R', '2012-06-08', u'FilmDistrict', 'Comedy', u'Movie Trailer', u'Colin Trevorrow'), ('4882', u'Keyhole', 'http://trailers.apple.com/movies/independent/keyhole/keyhole-tlr1_h720p.mov|User-Agent=QuickTime%2F7.6.5+%28qtver%3D7.6.5%3Bos%3DWindows+NT+5.1Service+Pack+3%29', 'http://trailers.apple.com/trailers/independent/keyhole/images/poster-xlarge.jpg|User-Agent=QuickTime%2F7.6.5+%28qtver%3D7.6.5%3Bos%3DWindows+NT+5.1Service+Pack+3%29', u'In a house haunted with memories, gangster and father Ulysses Pick (Jason Patric) arrives home after a long absence tow-ing the body of a teenaged girl and a bound and gagged young man. His gang waits inside his house, having shot their way past police. There is friction in the ranks. Ulysses, however, is focused on one thing: journey-ing through the house, room by room, and reaching his wife Hyacinth (Isabella Rossellini) in her bedroom upstairs. The equilibrium of the house has been disturbed and his odyssey eventually becomes an emotional tour, as the ghostly nooks and crannies of the house reveal more about the mysterious Pick family.', '2:19', 'R', '2012-04-06', u'Monterey Media', 'Drama / Thriller', u'Movie Trailer', u'Guy Maddin')]
  926. 20:00:25 T:4068  NOTICE: [script.cinema.experience] - Adding Coming Attraction Outro Video: 0 Videos
  927. 20:00:25 T:4068   DEBUG: [ script.cinema.experience ] - [ ce_playlist.py ] - _get_special_items() Started
  928. 20:00:25 T:4068   DEBUG: [ script.cinema.experience ] - [ ce_playlist.py ] - No Items
  929. 20:00:25 T:4068  NOTICE: [script.cinema.experience] - Adding Trailers: 2 Trailers
  930. 20:00:25 T:4068   DEBUG: [ script.cinema.experience ] - [ ce_playlist.py ] - _get_special_items() Started
  931. 20:00:25 T:4068   DEBUG: [ script.cinema.experience ] - [ ce_playlist.py ] - Checking Path: http://trailers.apple.com/movies/independent/safetynotguaranteed/safetynotguaranteed-tlr1_h720p.mov|User-Agent=QuickTime%2F7.6.5+%28qtver%3D7.6.5%3Bos%3DWindows+NT+5.1Service+Pack+3%29
  932. 20:00:25 T:4068   DEBUG: [ script.cinema.experience ] - [ ce_playlist.py ] - _get_listitem() Started
  933. 20:00:25 T:4068   DEBUG: [ script.cinema.experience ] - [ ce_playlist.py ] - _get_special_items() Started
  934. 20:00:25 T:4068   DEBUG: [ script.cinema.experience ] - [ ce_playlist.py ] - Checking Path: http://trailers.apple.com/movies/independent/keyhole/keyhole-tlr1_h720p.mov|User-Agent=QuickTime%2F7.6.5+%28qtver%3D7.6.5%3Bos%3DWindows+NT+5.1Service+Pack+3%29
  935. 20:00:25 T:4068   DEBUG: [ script.cinema.experience ] - [ ce_playlist.py ] - _get_listitem() Started
  936. 20:00:25 T:4068  NOTICE: [script.cinema.experience] - Adding Coming Attraction Intro Videos: 1 Videos
  937. 20:00:25 T:4068   DEBUG: [ script.cinema.experience ] - [ ce_playlist.py ] - _get_special_items() Started
  938. 20:00:25 T:2796   DEBUG: HttpApi Start command: FileExists  paras: FileExists; C:\Videos\Coming Attractions Intro\WalkIn-SneakPreview_512kb.avi
  939. 20:00:25 T:4068   DEBUG: [ script.cinema.experience ] - [ ce_playlist.py ] - Checking Path: C:\Videos\Coming Attractions Intro\WalkIn-SneakPreview_512kb.avi
  940. 20:00:25 T:4068   DEBUG: [ script.cinema.experience ] - [ ce_playlist.py ] - _get_listitem() Started
  941. 20:00:25 T:4068   DEBUG: [ script.cinema.experience ] - [ ce_playlist.py ] - _get_thumbnail() Started
  942. 20:00:25 T:4068   DEBUG: [ script.cinema.experience ] - [ ce_playlist.py ] - Thumbnail Url: C:\Videos\Coming Attractions Intro\WalkIn-SneakPreview_512kb.avi
  943. 20:00:25 T:4068   DEBUG: [ script.cinema.experience ] - [ ce_playlist.py ] - Thumbnail Cached Filename: 9fce7872.tbn
  944. 20:00:25 T:4068  NOTICE: [script.cinema.experience] - Adding Movie Theatre Intro Videos: 3 Videos
  945. 20:00:25 T:4068   DEBUG: [ script.cinema.experience ] - [ ce_playlist.py ] - _get_special_items() Started
  946. 20:00:25 T:4068   DEBUG: [ script.cinema.experience ] - [ ce_playlist.py ] - _get_special_items() - Path: C:\Videos\Movie Theater Intro\
  947. 20:00:25 T:4068   DEBUG: [folder.py] - dirEntries Activated
  948. 20:00:25 T:4068   DEBUG: [folder.py] - escapeDirJSON Activated
  949. 20:00:25 T:4068   DEBUG: [json_utils.py] - JSONRPC Query -
  950.                                             {"jsonrpc": "2.0", "method": "Files.GetDirectory", "params": {"directory": "C:\\Videos\\Movie Theater Intro\\", "media": "video"}, "id": 1}
  951. 20:00:25 T:4068   DEBUG: JSONRPC: Incoming request: {"jsonrpc": "2.0", "method": "Files.GetDirectory", "params": {"directory": "C:\\Videos\\Movie Theater Intro\\", "media": "video"}, "id": 1}
  952. 20:00:25 T:4068   DEBUG: JSONRPC: Calling files.getdirectory
  953. 20:00:25 T:4068   DEBUG: CUtil::GetMatchingSource: no matching source found for [C:\Videos\Movie Theater Intro\]
  954. 20:00:25 T:4068   DEBUG: Previous line repeats 4 times.
  955. 20:00:25 T:4068   DEBUG: CVideoDatabase::GetMovieId (C:\Videos\Movie Theater Intro\Chilly+Dilly+Intermission+Ad_mpeg1video.mpg), query = select idMovie from movie where idFile=54
  956. 20:00:25 T:4068   DEBUG: CVideoDatabase::GetEpisodeId (C:\Videos\Movie Theater Intro\Chilly+Dilly+Intermission+Ad_mpeg1video.mpg), query = select idEpisode from episode where idFile=54
  957. 20:00:25 T:4068   DEBUG: CVideoDatabase::GetMusicVideoId (C:\Videos\Movie Theater Intro\Chilly+Dilly+Intermission+Ad_mpeg1video.mpg), query = select idMVideo from musicvideo where idFile=54
  958. 20:00:25 T:4068   DEBUG: CVideoDatabase::GetMovieId (C:\Videos\Movie Theater Intro\chilly_dilly_pickle_bw.avi), query = select idMovie from movie where idFile=42
  959. 20:00:25 T:4068   DEBUG: CVideoDatabase::GetEpisodeId (C:\Videos\Movie Theater Intro\chilly_dilly_pickle_bw.avi), query = select idEpisode from episode where idFile=42
  960. 20:00:25 T:4068   DEBUG: CVideoDatabase::GetMusicVideoId (C:\Videos\Movie Theater Intro\chilly_dilly_pickle_bw.avi), query = select idMVideo from musicvideo where idFile=42
  961. 20:00:25 T:4068   DEBUG: CVideoDatabase::GetMovieId (C:\Videos\Movie Theater Intro\PDA Not Allowed.avi), query = select idMovie from movie where idFile=47
  962. 20:00:25 T:4068   DEBUG: CVideoDatabase::GetEpisodeId (C:\Videos\Movie Theater Intro\PDA Not Allowed.avi), query = select idEpisode from episode where idFile=47
  963. 20:00:25 T:4068   DEBUG: CVideoDatabase::GetMusicVideoId (C:\Videos\Movie Theater Intro\PDA Not Allowed.avi), query = select idMVideo from musicvideo where idFile=47
  964. 20:00:25 T:4068   DEBUG: CVideoDatabase::GetMovieId (C:\Videos\Movie Theater Intro\Refreshment+Center+Intermission+Bumper_mpeg1video.mpg), query = select idMovie from movie where idFile=53
  965. 20:00:25 T:4068   DEBUG: CVideoDatabase::GetEpisodeId (C:\Videos\Movie Theater Intro\Refreshment+Center+Intermission+Bumper_mpeg1video.mpg), query = select idEpisode from episode where idFile=53
  966. 20:00:25 T:4068   DEBUG: CVideoDatabase::GetMusicVideoId (C:\Videos\Movie Theater Intro\Refreshment+Center+Intermission+Bumper_mpeg1video.mpg), query = select idMVideo from musicvideo where idFile=53
  967. 20:00:25 T:4068   DEBUG: CVideoDatabase::GetMovieId (C:\Videos\Movie Theater Intro\snackbar_leprechan_cartoon.avi), query = select idMovie from movie where idFile=43
  968. 20:00:25 T:4068   DEBUG: CVideoDatabase::GetEpisodeId (C:\Videos\Movie Theater Intro\snackbar_leprechan_cartoon.avi), query = select idEpisode from episode where idFile=43
  969. 20:00:25 T:4068   DEBUG: CVideoDatabase::GetMusicVideoId (C:\Videos\Movie Theater Intro\snackbar_leprechan_cartoon.avi), query = select idMVideo from musicvideo where idFile=43
  970. 20:00:25 T:4068   DEBUG: CVideoDatabase::GetMovieId (C:\Videos\Movie Theater Intro\toddy_fearless_cartoon.avi), query = select idMovie from movie where idFile=48
  971. 20:00:25 T:4068   DEBUG: CVideoDatabase::GetEpisodeId (C:\Videos\Movie Theater Intro\toddy_fearless_cartoon.avi), query = select idEpisode from episode where idFile=48
  972. 20:00:25 T:4068   DEBUG: CVideoDatabase::GetMusicVideoId (C:\Videos\Movie Theater Intro\toddy_fearless_cartoon.avi), query = select idMVideo from musicvideo where idFile=48
  973. 20:00:25 T:4068   DEBUG: [json_utils.py] - retrieve_json_dict - JSONRPC -
  974.                                             {"id":1,"jsonrpc":"2.0","result":{"files":[{"file":"C:\\Videos\\Movie Theater Intro\\Candy+Stand+Intermission+Bumper_mpeg1video.mpg","filetype":"file","label":"Candy+Stand+Intermission+Bumper_mpeg1video.mpg","type":"unknown"},{"file":"C:\\Videos\\Movie Theater Intro\\Chilly+Dilly+Intermission+Ad_mpeg1video.mpg","filetype":"file","label":"Chilly+Dilly+Intermission+Ad_mpeg1video.mpg","type":"unknown"},{"file":"C:\\Videos\\Movie Theater Intro\\chilly_dilly_pickle_bw.avi","filetype":"file","label":"chilly_dilly_pickle_bw.avi","type":"unknown"},{"file":"C:\\Videos\\Movie Theater Intro\\Drive+In+Movie+Intermission+Ads++#1_mpeg1video.mpg","filetype":"file","label":"Drive+In+Movie+Intermission+Ads++#1_mpeg1video.mpg","type":"unknown"},{"file":"C:\\Videos\\Movie Theater Intro\\Drive-in+intermission+ad+for+pizza_mpeg1video.mpg","filetype":"file","label":"Drive-in+intermission+ad+for+pizza_mpeg1video.mpg","type":"unknown"},{"file":"C:\\Videos\\Movie Theater Intro\\Drive-In+Movie+Intermission+Let's+All+Go+To+The+Lobby+Film!_mpeg1video.mpg","filetype":"file","label":"Drive-In+Movie+Intermission+Let's+All+Go+To+The+Lobby+Film!_mpeg1video.mpg","type":"unknown"},{"file":"C:\\Videos\\Movie Theater Intro\\hot_dog_1.avi","filetype":"file","label":"hot_dog_1.avi","type":"unknown"},{"file":"C:\\Videos\\Movie Theater Intro\\Old++Movie+Theater+Intermission_mpeg1video.mpg","filetype":"file","label":"Old++Movie+Theater+Intermission_mpeg1video.mpg","type":"unknown"},{"file":"C:\\Videos\\Movie Theater Intro\\PDA Not Allowed.avi","filetype":"file","label":"PDA Not Allowed.avi","type":"unknown"},{"file":"C:\\Videos\\Movie Theater Intro\\Refreshment+Center+Intermission+Bumper_mpeg1video.mpg","filetype":"file","label":"Refreshment+Center+Intermission+Bumper_mpeg1video.mpg","type":"unknown"},{"file":"C:\\Videos\\Movie Theater Intro\\snackbar_leprechan_cartoon.avi","filetype":"file","label":"snackbar_leprechan_cartoon.avi","type":"unknown"},{"file":"C:\\Videos\\Movie Theater Intro\\snackbar_ricos.avi","filetype":"file","label":"snackbar_ricos.avi","type":"unknown"},{"file":"C:\\Videos\\Movie Theater Intro\\toddy_fearless_cartoon.avi","filetype":"file","label":"toddy_fearless_cartoon.avi","type":"unknown"},{"file":"C:\\Videos\\Movie Theater Intro\\Vintage+Drive+In+Short+-+Snackbar+Scientist_mpeg1video.mpg","filetype":"file","label":"Vintage+Drive+In+Short+-+Snackbar+Scientist_mpeg1video.mpg","type":"unknown"},{"file":"C:\\Videos\\Movie Theater Intro\\Vintage+Drive-In+Intermission+Ad-+Alien+visits+snack+bar+for+treats_mpeg1video.mpg","filetype":"file","label":"Vintage+Drive-In+Intermission+Ad-+Alien+visits+snack+bar+for+treats_mpeg1video.mpg","type":"unknown"}],"limits":{"end":15,"start":0,"total":15}}}
  975. 20:00:25 T:4068   DEBUG: [ script.cinema.experience ] - [ ce_playlist.py ] - Checking Path: C:\Videos\Movie Theater Intro\toddy_fearless_cartoon.avi
  976. 20:00:25 T:4068   DEBUG: [ script.cinema.experience ] - [ ce_playlist.py ] - _get_listitem() Started
  977. 20:00:25 T:4068   DEBUG: [ script.cinema.experience ] - [ ce_playlist.py ] - _get_thumbnail() Started
  978. 20:00:25 T:4068   DEBUG: [ script.cinema.experience ] - [ ce_playlist.py ] - Thumbnail Url: C:\Videos\Movie Theater Intro\toddy_fearless_cartoon.avi
  979. 20:00:25 T:4068   DEBUG: [ script.cinema.experience ] - [ ce_playlist.py ] - Thumbnail Cached Filename: 82f4f414.tbn
  980. 20:00:25 T:4068   DEBUG: [ script.cinema.experience ] - [ ce_playlist.py ] - Checking Path: C:\Videos\Movie Theater Intro\snackbar_leprechan_cartoon.avi
  981. 20:00:25 T:4068   DEBUG: [ script.cinema.experience ] - [ ce_playlist.py ] - _get_listitem() Started
  982. 20:00:25 T:4068   DEBUG: [ script.cinema.experience ] - [ ce_playlist.py ] - _get_thumbnail() Started
  983. 20:00:25 T:4068   DEBUG: [ script.cinema.experience ] - [ ce_playlist.py ] - Thumbnail Url: C:\Videos\Movie Theater Intro\snackbar_leprechan_cartoon.avi
  984. 20:00:25 T:4068   DEBUG: [ script.cinema.experience ] - [ ce_playlist.py ] - Thumbnail Cached Filename: 966547f4.tbn
  985. 20:00:25 T:4068   DEBUG: [ script.cinema.experience ] - [ ce_playlist.py ] - Checking Path: C:\Videos\Movie Theater Intro\hot_dog_1.avi
  986. 20:00:25 T:4068   DEBUG: [ script.cinema.experience ] - [ ce_playlist.py ] - _get_listitem() Started
  987. 20:00:25 T:4068   DEBUG: [ script.cinema.experience ] - [ ce_playlist.py ] - _get_thumbnail() Started
  988. 20:00:25 T:4068   DEBUG: [ script.cinema.experience ] - [ ce_playlist.py ] - Thumbnail Url: C:\Videos\Movie Theater Intro\hot_dog_1.avi
  989. 20:00:25 T:4068   DEBUG: [ script.cinema.experience ] - [ ce_playlist.py ] - Thumbnail Cached Filename: c61295ee.tbn
  990. 20:00:25 T:4068  NOTICE: 1
  991. 20:00:25 T:4068  NOTICE: [script.cinema.experience] - Adding Trivia Outro Videos: 2 Videos
  992. 20:00:25 T:4068   DEBUG: [ script.cinema.experience ] - [ ce_playlist.py ] - _get_special_items() Started
  993. 20:00:25 T:4068   DEBUG: [ script.cinema.experience ] - [ ce_playlist.py ] - _get_special_items() - Path: C:\Videos\Trivia Outro\
  994. 20:00:25 T:4068   DEBUG: [folder.py] - dirEntries Activated
  995. 20:00:25 T:4068   DEBUG: [folder.py] - escapeDirJSON Activated
  996. 20:00:25 T:4068   DEBUG: [json_utils.py] - JSONRPC Query -
  997.                                             {"jsonrpc": "2.0", "method": "Files.GetDirectory", "params": {"directory": "C:\\Videos\\Trivia Outro\\", "media": "video"}, "id": 1}
  998. 20:00:25 T:4068   DEBUG: JSONRPC: Incoming request: {"jsonrpc": "2.0", "method": "Files.GetDirectory", "params": {"directory": "C:\\Videos\\Trivia Outro\\", "media": "video"}, "id": 1}
  999. 20:00:25 T:4068   DEBUG: JSONRPC: Calling files.getdirectory
  1000. 20:00:25 T:4068   DEBUG: CUtil::GetMatchingSource: no matching source found for [C:\Videos\Trivia Outro\]
  1001. 20:00:25 T:4068   DEBUG: Previous line repeats 4 times.
  1002. 20:00:25 T:4068   DEBUG: CVideoDatabase::GetMovieId (C:\Videos\Trivia Outro\for.the.birds.2000.720p.bluray.x264-sinners.mp4), query = select idMovie from movie where idFile=59
  1003. 20:00:25 T:4068   DEBUG: CVideoDatabase::GetEpisodeId (C:\Videos\Trivia Outro\for.the.birds.2000.720p.bluray.x264-sinners.mp4), query = select idEpisode from episode where idFile=59
  1004. 20:00:25 T:4068   DEBUG: CVideoDatabase::GetMusicVideoId (C:\Videos\Trivia Outro\for.the.birds.2000.720p.bluray.x264-sinners.mp4), query = select idMVideo from musicvideo where idFile=59
  1005. 20:00:25 T:4068   DEBUG: CVideoDatabase::GetMovieId (C:\Videos\Trivia Outro\geris.game.1997.720p.bluray.x264-sinners.mp4), query = select idMovie from movie where idFile=62
  1006. 20:00:25 T:4068   DEBUG: CVideoDatabase::GetEpisodeId (C:\Videos\Trivia Outro\geris.game.1997.720p.bluray.x264-sinners.mp4), query = select idEpisode from episode where idFile=62
  1007. 20:00:25 T:4068   DEBUG: CVideoDatabase::GetMusicVideoId (C:\Videos\Trivia Outro\geris.game.1997.720p.bluray.x264-sinners.mp4), query = select idMVideo from musicvideo where idFile=62
  1008. 20:00:25 T:4068   DEBUG: CVideoDatabase::GetMovieId (C:\Videos\Trivia Outro\jack-jack.attack.2005.720p.bluray.x264-sinners.mp4), query = select idMovie from movie where idFile=46
  1009. 20:00:25 T:4068   DEBUG: CVideoDatabase::GetEpisodeId (C:\Videos\Trivia Outro\jack-jack.attack.2005.720p.bluray.x264-sinners.mp4), query = select idEpisode from episode where idFile=46
  1010. 20:00:25 T:4068   DEBUG: CVideoDatabase::GetMusicVideoId (C:\Videos\Trivia Outro\jack-jack.attack.2005.720p.bluray.x264-sinners.mp4), query = select idMVideo from musicvideo where idFile=46
  1011. 20:00:25 T:4068   DEBUG: CVideoDatabase::GetMovieId (C:\Videos\Trivia Outro\lifted.2006.720p.bluray.x264-sinners.mp4), query = select idMovie from movie where idFile=40
  1012. 20:00:25 T:4068   DEBUG: CVideoDatabase::GetEpisodeId (C:\Videos\Trivia Outro\lifted.2006.720p.bluray.x264-sinners.mp4), query = select idEpisode from episode where idFile=40
  1013. 20:00:25 T:4068   DEBUG: CVideoDatabase::GetMusicVideoId (C:\Videos\Trivia Outro\lifted.2006.720p.bluray.x264-sinners.mp4), query = select idMVideo from musicvideo where idFile=40
  1014. 20:00:25 T:4068   DEBUG: CVideoDatabase::GetMovieId (C:\Videos\Trivia Outro\luxo.jr.1986.720p.bluray.x264-sinners.mp4), query = select idMovie from movie where idFile=65
  1015. 20:00:25 T:4068   DEBUG: CVideoDatabase::GetEpisodeId (C:\Videos\Trivia Outro\luxo.jr.1986.720p.bluray.x264-sinners.mp4), query = select idEpisode from episode where idFile=65
  1016. 20:00:25 T:4068   DEBUG: CVideoDatabase::GetMusicVideoId (C:\Videos\Trivia Outro\luxo.jr.1986.720p.bluray.x264-sinners.mp4), query = select idMVideo from musicvideo where idFile=65
  1017. 20:00:25 T:4068   DEBUG: CVideoDatabase::GetMovieId (C:\Videos\Trivia Outro\mater.and.the.ghostlight.2006.720p.bluray.x264-sinners.mp4), query = select idMovie from movie where idFile=41
  1018. 20:00:25 T:4068   DEBUG: CVideoDatabase::GetEpisodeId (C:\Videos\Trivia Outro\mater.and.the.ghostlight.2006.720p.bluray.x264-sinners.mp4), query = select idEpisode from episode where idFile=41
  1019. 20:00:25 T:4068   DEBUG: CVideoDatabase::GetMusicVideoId (C:\Videos\Trivia Outro\mater.and.the.ghostlight.2006.720p.bluray.x264-sinners.mp4), query = select idMVideo from musicvideo where idFile=41
  1020. 20:00:25 T:4068   DEBUG: CVideoDatabase::GetMovieId (C:\Videos\Trivia Outro\one.man.band.2005.720p.bluray.x264-sinners.mp4), query = select idMovie from movie where idFile=51
  1021. 20:00:25 T:4068   DEBUG: CVideoDatabase::GetEpisodeId (C:\Videos\Trivia Outro\one.man.band.2005.720p.bluray.x264-sinners.mp4), query = select idEpisode from episode where idFile=51
  1022. 20:00:25 T:4068   DEBUG: CVideoDatabase::GetMusicVideoId (C:\Videos\Trivia Outro\one.man.band.2005.720p.bluray.x264-sinners.mp4), query = select idMVideo from musicvideo where idFile=51
  1023. 20:00:25 T:4068   DEBUG: CVideoDatabase::GetMovieId (C:\Videos\Trivia Outro\reds.dream.1987.720p.bluray.x264-sinners.mp4), query = select idMovie from movie where idFile=52
  1024. 20:00:25 T:4068   DEBUG: CVideoDatabase::GetEpisodeId (C:\Videos\Trivia Outro\reds.dream.1987.720p.bluray.x264-sinners.mp4), query = select idEpisode from episode where idFile=52
  1025. 20:00:25 T:4068   DEBUG: CVideoDatabase::GetMusicVideoId (C:\Videos\Trivia Outro\reds.dream.1987.720p.bluray.x264-sinners.mp4), query = select idMVideo from musicvideo where idFile=52
  1026. 20:00:25 T:4068   DEBUG: [json_utils.py] - retrieve_json_dict - JSONRPC -
  1027.                                             {"id":1,"jsonrpc":"2.0","result":{"files":[{"file":"C:\\Videos\\Trivia Outro\\boundin.2003.720p.bluray.x264-sinners.mp4","filetype":"file","label":"boundin.2003.720p.bluray.x264-sinners.mp4","type":"unknown"},{"file":"C:\\Videos\\Trivia Outro\\for.the.birds.2000.720p.bluray.x264-sinners.mp4","filetype":"file","label":"for.the.birds.2000.720p.bluray.x264-sinners.mp4","type":"unknown"},{"file":"C:\\Videos\\Trivia Outro\\geris.game.1997.720p.bluray.x264-sinners.mp4","filetype":"file","label":"geris.game.1997.720p.bluray.x264-sinners.mp4","type":"unknown"},{"file":"C:\\Videos\\Trivia Outro\\jack-jack.attack.2005.720p.bluray.x264-sinners.mp4","filetype":"file","label":"jack-jack.attack.2005.720p.bluray.x264-sinners.mp4","type":"unknown"},{"file":"C:\\Videos\\Trivia Outro\\knick.knack.1989.720p.bluray.x264-sinners.mp4","filetype":"file","label":"knick.knack.1989.720p.bluray.x264-sinners.mp4","type":"unknown"},{"file":"C:\\Videos\\Trivia Outro\\lifted.2006.720p.bluray.x264-sinners.mp4","filetype":"file","label":"lifted.2006.720p.bluray.x264-sinners.mp4","type":"unknown"},{"file":"C:\\Videos\\Trivia Outro\\luxo.jr.1986.720p.bluray.x264-sinners.mp4","filetype":"file","label":"luxo.jr.1986.720p.bluray.x264-sinners.mp4","type":"unknown"},{"file":"C:\\Videos\\Trivia Outro\\mater.and.the.ghostlight.2006.720p.bluray.x264-sinners.mp4","filetype":"file","label":"mater.and.the.ghostlight.2006.720p.bluray.x264-sinners.mp4","type":"unknown"},{"file":"C:\\Videos\\Trivia Outro\\mikes.new.car.2002.720p.bluray.x264-sinners.mp4","filetype":"file","label":"mikes.new.car.2002.720p.bluray.x264-sinners.mp4","type":"unknown"},{"file":"C:\\Videos\\Trivia Outro\\one.man.band.2005.720p.bluray.x264-sinners.mp4","filetype":"file","label":"one.man.band.2005.720p.bluray.x264-sinners.mp4","type":"unknown"},{"file":"C:\\Videos\\Trivia Outro\\reds.dream.1987.720p.bluray.x264-sinners.mp4","filetype":"file","label":"reds.dream.1987.720p.bluray.x264-sinners.mp4","type":"unknown"},{"file":"C:\\Videos\\Trivia Outro\\the.adventures.of.andre.and.wally.b.1984.720p.bluray.x264-sinners.mp4","filetype":"file","label":"the.adventures.of.andre.and.wally.b.1984.720p.bluray.x264-sinners.mp4","type":"unknown"},{"file":"C:\\Videos\\Trivia Outro\\tin.toy.1988.720p.bluray.x264-sinners.mp4","filetype":"file","label":"tin.toy.1988.720p.bluray.x264-sinners.mp4","type":"unknown"}],"limits":{"end":13,"start":0,"total":13}}}
  1028. 20:00:25 T:4068   DEBUG: [ script.cinema.experience ] - [ ce_playlist.py ] - Checking Path: C:\Videos\Trivia Outro\knick.knack.1989.720p.bluray.x264-sinners.mp4
  1029. 20:00:25 T:4068   DEBUG: [ script.cinema.experience ] - [ ce_playlist.py ] - _get_listitem() Started
  1030. 20:00:25 T:4068   DEBUG: [ script.cinema.experience ] - [ ce_playlist.py ] - _get_thumbnail() Started
  1031. 20:00:25 T:4068   DEBUG: [ script.cinema.experience ] - [ ce_playlist.py ] - Thumbnail Url: C:\Videos\Trivia Outro\knick.knack.1989.720p.bluray.x264-sinners.mp4
  1032. 20:00:25 T:4068   DEBUG: [ script.cinema.experience ] - [ ce_playlist.py ] - Thumbnail Cached Filename: ea8026a9.tbn
  1033. 20:00:25 T:4068   DEBUG: [ script.cinema.experience ] - [ ce_playlist.py ] - Checking Path: C:\Videos\Trivia Outro\one.man.band.2005.720p.bluray.x264-sinners.mp4
  1034. 20:00:25 T:4068   DEBUG: [ script.cinema.experience ] - [ ce_playlist.py ] - _get_listitem() Started
  1035. 20:00:25 T:4068   DEBUG: [ script.cinema.experience ] - [ ce_playlist.py ] - _get_thumbnail() Started
  1036. 20:00:25 T:4068   DEBUG: [ script.cinema.experience ] - [ ce_playlist.py ] - Thumbnail Url: C:\Videos\Trivia Outro\one.man.band.2005.720p.bluray.x264-sinners.mp4
  1037. 20:00:25 T:4068   DEBUG: [ script.cinema.experience ] - [ ce_playlist.py ] - Thumbnail Cached Filename: e3006725.tbn
  1038. 20:00:25 T:4068  NOTICE: [script.cinema.experience] - Adding Feature Presentation Outro Videos: 0 Videos
  1039. 20:00:25 T:4068   DEBUG: [ script.cinema.experience ] - [ ce_playlist.py ] - _get_special_items() Started
  1040. 20:00:25 T:4068   DEBUG: [ script.cinema.experience ] - [ ce_playlist.py ] - No Items
  1041. 20:00:25 T:4068  NOTICE: [script.cinema.experience] - Adding Movie Theatre Outro Videos: 0 Videos
  1042. 20:00:25 T:4068   DEBUG: [ script.cinema.experience ] - [ ce_playlist.py ] - _get_special_items() Started
  1043. 20:00:25 T:4068   DEBUG: [ script.cinema.experience ] - [ ce_playlist.py ] - No Items
  1044. 20:00:25 T:4068  NOTICE: [script.cinema.experience] - Playlist Size: 11
  1045. 20:00:25 T:4068  NOTICE: [script.cinema.experience] - Trigger List Size: 12
  1046. 20:00:25 T:4068  NOTICE: [script.cinema.experience] - Saving trigger List
  1047. 20:00:25 T:4068  NOTICE: [script.cinema.experience] - Saving Watch Slide List
  1048. 20:00:25 T:4068  NOTICE: [script.cinema.experience] - ## Outro ##
  1049. 20:00:25 T:2464    INFO: PAPlayer: End of playback reached
  1050. 20:00:25 T:2464   DEBUG: CAnnouncementManager - Announcement: OnStop from xbmc
  1051. 20:00:25 T:2464   DEBUG: GOT ANNOUNCEMENT, type: 1, from xbmc, message OnStop
  1052. 20:00:25 T:2464   DEBUG: PAPlayer: Thread end
  1053. 20:00:25 T:2464   DEBUG: Thread PAPlayer 2464 terminating
  1054. 20:00:25 T:2432   DEBUG: Thread XFILE::CFileCache 2432 terminating
  1055. 20:00:25 T:2796   DEBUG: CWin32DirectSound::Deinitialize: Cleaning up
  1056. 20:00:25 T:2796   DEBUG: CGUIAudioManager::Initialize
  1057. 20:00:25 T:3468   DEBUG: CSaveFileStateJob::DoWork - Saving file state for audio item C:\Videos\Audio\Cuban Pete1.mp3
  1058. 20:00:26 T:2796   DEBUG: HttpApi Start command: SetGUISetting  paras: SetGUISetting; 3;screensaver.mode;None
  1059. 20:00:26 T:2796   DEBUG: ------ Window Init (DialogVolumeBar.xml) ------
  1060. 20:00:26 T:2796   DEBUG: Activating window ID: 10025
  1061. 20:00:26 T:2796   DEBUG: ------ Window Deinit (C:\Users\Administrator\AppData\Roaming\XBMC\addons\script.cinema.experience\resources\skins\default\720p\script-CExperience-trivia.xml) ------
  1062. 20:00:26 T:2796   DEBUG: ------ Window Init (MyVideoNav.xml) ------
  1063. 20:00:26 T:2796    INFO: Loading skin file: MyVideoNav.xml
  1064. 20:00:27 T:2796   DEBUG: CGUIMediaWindow::GetDirectory (videodb://1/2/)
  1065. 20:00:27 T:2796   DEBUG:   ParentPath = [videodb://1/2/]
  1066. 20:00:27 T:2796   DEBUG: CVideoDatabase::RunQuery took 0 ms for 3 items query: SELECT sets.idSet,sets.strSet,COUNT(1) AS c,count(files.playCount) FROM sets JOIN setlinkmovie ON sets.idSet=setlinkmovie.idSet JOIN movie ON setlinkmovie.idMovie=movie.idMovie JOIN files ON files.idFile=movie.idFile  GROUP BY sets.idSet HAVING c>1
  1067. 20:00:27 T:2796   DEBUG: CVideoDatabase::RunQuery took 0 ms for 6 items query: select * from movieview  WHERE movieview.idMovie NOT IN (SELECT idMovie FROM setlinkmovie s1 JOIN(SELECT idSet, COUNT(1) AS c FROM setlinkmovie GROUP BY idSet HAVING c>1) s2 ON s2.idSet=s1.idSet)
  1068. 20:00:27 T:2796   DEBUG: Saving fileitems [videodb://1/2/]
  1069. 20:00:27 T:2796   DEBUG:   -- items: 9, sort method: 25, ascending: true
  1070. 20:00:27 T:3400   DEBUG: Thread Background Loader start, auto delete: 0
  1071. 20:00:27 T:3400   DEBUG: Thread Background Loader 3400 terminating
  1072. 20:00:27 T:2796   DEBUG: Activating window ID: 12005
  1073. 20:00:27 T:3256   DEBUG: JSONRPC: Incoming request: {"jsonrpc": "2.0", "method": "AudioLibrary.GetSongs", "params": {"properties": ["playcount", "albumid"], "sort": { "method": "album" } }, "id": 1}
  1074. 20:00:27 T:3256   DEBUG: JSONRPC: Calling audiolibrary.getsongs
  1075. 20:00:27 T:2796   DEBUG: ------ Window Deinit (MyVideoNav.xml) ------
  1076. 20:00:27 T:3256   DEBUG: CMusicDatabase::GetSongsByWhere query = select * from songview
  1077. 20:00:27 T:3256   DEBUG: script.watchlist: album list: 0 items
  1078. 20:00:27 T:2796   DEBUG: ------ Window Init (VideoFullScreen.xml) ------
  1079. 20:00:27 T:2796    INFO: Loading skin file: VideoFullScreen.xml
  1080. 20:00:27 T:2796   DEBUG: CPlayerCoreFactory::GetPlayers(C:\Videos\Trivia Outro\one.man.band.2005.720p.bluray.x264-sinners.mp4)
  1081. 20:00:27 T:2796   DEBUG: CPlayerSelectionRule::GetPlayers: considering rule: system rules
  1082. 20:00:27 T:2796   DEBUG: CPlayerSelectionRule::GetPlayers: matches rule: system rules
  1083. 20:00:27 T:2796   DEBUG: CPlayerSelectionRule::GetPlayers: considering rule: rtv
  1084. 20:00:27 T:2796   DEBUG: CPlayerSelectionRule::GetPlayers: considering rule: hdhomerun/myth/rtmp/mms/udp
  1085. 20:00:27 T:2796   DEBUG: CPlayerSelectionRule::GetPlayers: considering rule: lastfm/shout
  1086. 20:00:27 T:2796   DEBUG: CPlayerSelectionRule::GetPlayers: considering rule: rtsp
  1087. 20:00:27 T:2796   DEBUG: CPlayerSelectionRule::GetPlayers: considering rule: streams
  1088. 20:00:27 T:2796   DEBUG: CPlayerSelectionRule::GetPlayers: considering rule: dvd
  1089. 20:00:27 T:2796   DEBUG: CPlayerSelectionRule::GetPlayers: considering rule: dvdfile
  1090. 20:00:27 T:2796   DEBUG: CPlayerSelectionRule::GetPlayers: considering rule: dvdimage
  1091. 20:00:27 T:2796   DEBUG: CPlayerSelectionRule::GetPlayers: considering rule: sdp/asf
  1092. 20:00:27 T:2796   DEBUG: CPlayerSelectionRule::GetPlayers: considering rule: nsv
  1093. 20:00:27 T:2796   DEBUG: CPlayerCoreFactory::GetPlayers: matched 0 rules with players
  1094. 20:00:27 T:2796   DEBUG: CPlayerCoreFactory::GetPlayers: adding videodefaultplayer (1)
  1095. 20:00:27 T:2796   DEBUG: CPlayerCoreFactory::GetPlayers: for video=1, audio=0
  1096. 20:00:27 T:2796   DEBUG: CPlayerCoreFactory::GetPlayers: for video=1, audio=1
  1097. 20:00:27 T:2796   DEBUG: CPlayerCoreFactory::GetPlayers: adding player: DVDPlayer (1)
  1098. 20:00:27 T:2796   DEBUG: CPlayerCoreFactory::GetPlayers: added 1 players
  1099. 20:00:27 T:2796  NOTICE: DVDPlayer: Opening: C:\Videos\Trivia Outro\one.man.band.2005.720p.bluray.x264-sinners.mp4
  1100. 20:00:27 T:2796 WARNING: CDVDMessageQueue(player)::Put MSGQ_NOT_INITIALIZED
  1101. 20:00:27 T:2796   DEBUG: CRenderManager::UpdateDisplayLatency - Latency set to 0 msec
  1102. 20:00:27 T:2796   DEBUG: DXVA - cheking samples array size using 842094158 render target
  1103. 20:00:27 T:2796   DEBUG: DXVA - updated maximum samples count to 2
  1104. 20:00:27 T:2796   DEBUG: DXVA - cheking samples array size using 842094169 render target
  1105. 20:00:27 T:3180   DEBUG: CThumbExtractor::DoWork - trying to extract filestream details from video file C:\Movies\Gladiator\VIDEO_TS\VIDEO_TS.IFO
  1106. 20:00:27 T:1124   DEBUG: Thread CDVDPlayer start, auto delete: 0
  1107. 20:00:27 T:3180   DEBUG: CThumbExtractor::DoWork - trying to extract filestream details from video file C:\Movies\Old School\VIDEO_TS\VIDEO_TS.IFO
  1108. 20:00:27 T:1124  NOTICE: Creating InputStream
  1109. 20:00:27 T:1124   DEBUG: CUtil::ScanForExternalSubtitles: Searching for subtitles...
  1110. 20:00:27 T:1124   DEBUG: CUtil::ScanForExternalSubtitles: END (total time: 1 ms)
  1111. 20:00:27 T:1124  NOTICE: Creating Demuxer
  1112. 20:00:27 T:1124   DEBUG: SECTION:LoadDLL(special://xbmcbin/system/players/dvdplayer/avutil-50.dll)
  1113. 20:00:27 T:1124   DEBUG: SECTION:LoadDLL(special://xbmcbin/system/players/dvdplayer/avcore-0.dll)
  1114. 20:00:27 T:1124   DEBUG: SECTION:LoadDLL(special://xbmcbin/system/players/dvdplayer/avcodec-52.dll)
  1115. 20:00:27 T:1124   DEBUG: SECTION:LoadDLL(special://xbmcbin/system/players/dvdplayer/avformat-52.dll)
  1116. 20:00:27 T:1124   DEBUG: CDVDDemuxFFmpeg::Open - probing detected format [mov,mp4,m4a,3gp,3g2,mj2]
  1117. 20:00:27 T:1124   DEBUG: CDVDDemuxFFmpeg::Open - av_find_stream_info starting
  1118. 20:00:27 T:1124   DEBUG: CDVDDemuxFFmpeg::Open - av_find_stream_info finished
  1119. 20:00:27 T:1124    INFO: ffmpeg[464]: Input #0, mov,mp4,m4a,3gp,3g2,mj2, from 'C:\Videos\Trivia Outro\one.man.band.2005.720p.bluray.x264-sinners.mp4':
  1120. 20:00:27 T:1124    INFO: ffmpeg[464]:   Metadata:
  1121. 20:00:27 T:1124    INFO: ffmpeg[464]:     major_brand     : isom
  1122. 20:00:27 T:1124    INFO: ffmpeg[464]:     minor_version   : 1
  1123. 20:00:27 T:1124    INFO: ffmpeg[464]:     compatible_brands: isomavc1
  1124. 20:00:27 T:1124    INFO: ffmpeg[464]:     creation_time   : 2007-12-12 06:34:57
  1125. 20:00:27 T:1124    INFO: ffmpeg[464]:   Duration: 00:04:33.38, start: 0.000000, bitrate: 930 kb/s
  1126. 20:00:27 T:1124    INFO: ffmpeg[464]:     Stream #0.0(und): Audio: aac, 48000 Hz, stereo, s16, 127 kb/s
  1127. 20:00:27 T:1124    INFO: ffmpeg[464]:     Metadata:
  1128. 20:00:27 T:1124    INFO: ffmpeg[464]:       creation_time   : 2007-12-12 06:34:57
  1129. 20:00:27 T:1124    INFO: ffmpeg[464]:     Stream #0.1(und): Video: h264 (High), yuv420p, 1280x528 [PAR 1:1 DAR 80:33], 800 kb/s, 23.98 fps, 23.98 tbr, 24k tbn, 47.95 tbc
  1130. 20:00:27 T:1124    INFO: ffmpeg[464]:     Metadata:
  1131. 20:00:27 T:1124    INFO: ffmpeg[464]:       creation_time   : 2007-12-12 06:34:57
  1132. 20:00:27 T:1124  NOTICE: Opening video stream: 1 source: 256
  1133. 20:00:27 T:1124  NOTICE: Creating video codec with codec id: 28
  1134. 20:00:27 T:1124   DEBUG: CDVDFactoryCodec: compiled in hardware support: CrystalHD:yes DXVA:yes
  1135. 20:00:27 T:1124   DEBUG: FactoryCodec - Video:  - Opening
  1136. 20:00:27 T:1124   DEBUG: SECTION:LoadDLL(special://xbmcbin/system/players/dvdplayer/swscale-0.dll)
  1137. 20:00:27 T:1124   DEBUG: SECTION:LoadDLL(special://xbmcbin/system/players/dvdplayer/avfilter-1.dll)
  1138. 20:00:27 T:3180   DEBUG: CThumbExtractor::DoWork - trying to extract filestream details from video file C:\Movies\National Lampoons Christmas Vacation\VIDEO_TS\VIDEO_TS.IFO
  1139. 20:00:27 T:1124  NOTICE: CDVDVideoCodecFFmpeg::Open() Using codec: H.264 / AVC / MPEG-4 AVC / MPEG-4 part 10
  1140. 20:00:27 T:1124    INFO: ffmpeg[464]: [w32thread] thread count = 2
  1141. 20:00:27 T:1124    INFO: ffmpeg[464]: [w32thread] init semaphors 1
  1142. 20:00:27 T:1124    INFO: ffmpeg[464]: [w32thread] create thread 1
  1143. 20:00:27 T:1124    INFO: ffmpeg[464]: [w32thread] init semaphors 2
  1144. 20:00:27 T:1124    INFO: ffmpeg[464]: [w32thread] create thread 2
  1145. 20:00:27 T:1124    INFO: ffmpeg[464]: [w32thread] init done
  1146. 20:00:27 T:1124   DEBUG: FactoryCodec - Video: ff-h264 - Opened
  1147. 20:00:27 T:1124  NOTICE: Creating video thread
  1148. 20:00:27 T:1124  NOTICE: Opening audio stream: 0 source: 256
  1149. 20:00:27 T:1124  NOTICE: Finding audio codec for: 86018
  1150. 20:00:27 T:1124   DEBUG: FactoryCodec - Audio: PassthroughFFmpeg - Opening
  1151. 20:00:27 T:2968   DEBUG: Thread CDVDPlayerVideo start, auto delete: 0
  1152. 20:00:27 T:2968  NOTICE: running thread: video_thread
  1153. 20:00:27 T:1124    INFO: CDVDAudioCodecPassthroughFFmpeg::Open - Won't transcode for HDMI
  1154. 20:00:27 T:1124   DEBUG: FactoryCodec - Audio: PassthroughFFmpeg - Failed
  1155. 20:00:27 T:1124   DEBUG: FactoryCodec - Audio: FFmpeg - Opening
  1156. 20:00:27 T:1124   DEBUG: FactoryCodec - Audio: FFmpeg - Opened
  1157. 20:00:27 T:1124  NOTICE: Creating audio thread
  1158. 20:00:27 T:1124   DEBUG: CEdl::ReadEditDecisionLists - Checking for edit decision lists (EDL) on local drive or remote share for: C:\Videos\Trivia Outro\one.man.band.2005.720p.bluray.x264-sinners.mp4
  1159. 20:00:27 T:1720   DEBUG: Thread CDVDPlayerAudio start, auto delete: 0
  1160. 20:00:27 T:1720  NOTICE: running thread: CDVDPlayerAudio::Process()
  1161. 20:00:27 T:1124   DEBUG: CDVDPlayer::SetCaching - caching state 2
  1162. 20:00:27 T:1720  NOTICE: Creating audio device with codec id: 86018, channels: 2, sample rate: 48000, no pass-through
  1163. 20:00:27 T:1720    INFO: CPCMRemap: Configured speaker layout: 5.1
  1164. 20:00:27 T:1720    INFO: CPCMRemap: I channel map: FL,FR
  1165. 20:00:27 T:1720    INFO: CPCMRemap: O channel map: FL,FR
  1166. 20:00:27 T:1720   DEBUG: CPCMRemap: Downmix normalization is disabled
  1167. 20:00:27 T:1720   DEBUG: CPCMRemap: FL = FL(1.000000*)
  1168. 20:00:27 T:1720   DEBUG: CPCMRemap: FR = FR(1.000000*)
  1169. 20:00:27 T:1720   DEBUG: CWin32DirectSound::Initialize: Packet Size = 12384. Avg Bytes Per Second = 192000.
  1170. 20:00:27 T:1720   DEBUG: CWin32DirectSound::Initialize: secondary buffer created
  1171. 20:00:27 T:1720   DEBUG: CWin32DirectSound::Initialize - Channels: 2 - SampleRate: 48000 - SampleBit: 16 - Resample false - IsMusic false - IsPassthrough 0 - audioDevice: ATI HDMI Output (ATI High Definition Audio Device)
  1172. 20:00:27 T:1720   DEBUG: CDVDPlayerAudio:: synctype set to 0: clock feedback
  1173. 20:00:27 T:1124   DEBUG: CDVDPlayer::HandleMessages - player started 1
  1174. 20:00:27 T:2796   DEBUG: CGUIAudioManager::DeInitialize
  1175. 20:00:27 T:1124   DEBUG: CDVDPlayer::SetCaching - caching state 0
  1176. 20:00:27 T:1720   DEBUG: CDVDPlayerAudio - CDVDMsg::GENERAL_RESYNC(21333.333333, 1)
  1177. 20:00:27 T:1720   DEBUG: CDVDPlayerAudio:: Discontinuity - was:-2113.804491, should be:-2111.415197, error:2.389294
  1178. 20:00:27 T:1720   DEBUG: CWin32DirectSound::CheckPlayStatus: Resuming Playback
  1179. 20:00:27 T:2968   DEBUG: CDVDPlayerVideo - CDVDMsg::GENERAL_SYNCHRONIZE
  1180. 20:00:27 T:2968   DEBUG: CDVDPlayerVideo - CDVDMsg::GENERAL_RESYNC(41708.333333, 0)
  1181. 20:00:27 T:2968    INFO: CDVDPlayerVideo - Stillframe left, switching to normal playback
  1182. 20:00:27 T:2968   DEBUG: DXVA - supports 'MPEG2 IDCT'
  1183. 20:00:27 T:2968   DEBUG: DXVA - supports 'H.264 VLD, no FGT'
  1184. 20:00:27 T:2968   DEBUG: DXVA - supports 4245F676-2bbc-4166-a0bb-54e7b849c380
  1185. 20:00:27 T:2968   DEBUG: DXVA - supports 6719B6FB-5cad-4acb-b00a-f3bfdec38727
  1186. 20:00:27 T:2968   DEBUG: DXVA - supports 'VC-1 VLD'
  1187. 20:00:27 T:2968   DEBUG: DXVA - supports CA15D19A-2b48-43d6-979e-7a6e9c802ff8
  1188. 20:00:27 T:2968   DEBUG: DXVA - supports 5B23D46D-fa5f-4fdc-b78a-7eb2787942ec
  1189. 20:00:27 T:2968   DEBUG: DXVA - supports 00000000-0000-0000-0000-000000000000
  1190. 20:00:27 T:2968   DEBUG: DXVA - trying 'H.264 VLD, no FGT'
  1191. 20:00:27 T:2968   DEBUG: DXVA - source requires 2 references
  1192. 20:00:27 T:2968   DEBUG: DXVA - config 0: bitstream type 2
  1193. 20:00:27 T:2968   DEBUG: DXVA - config 1: bitstream type 2, encrypted
  1194. 20:00:27 T:2968   DEBUG: DXVA - allocating 9 surfaces
  1195. 20:00:27 T:2968    INFO: ffmpeg[B98]: [h264] Cannot parallelize deblocking type 1, decoding such frames in sequential order
  1196. 20:00:27 T:2968  NOTICE:  fps: 23.976024, pwidth: 1280, pheight: 528, dwidth: 1280, dheight: 528
  1197. 20:00:27 T:2968   DEBUG: CDVDPlayerVideo::OutputPicture - change configuration. 1280x528. framerate: 23.98. format: DXVA
  1198. 20:00:27 T:2968  NOTICE: Display resolution DESKTOP : 1366x768 @ 60.00 - Full Screen (12)
  1199. 20:00:27 T:2968  NOTICE: D3D: rendering method forced to DXVA2 processor
  1200. 20:00:27 T:2968   DEBUG: DXVA - processor found Progressive Device
  1201. 20:00:27 T:2968   DEBUG: DXVA - processor selected Progressive Device
  1202. 20:00:27 T:2968   DEBUG: DXVA - processor requires 0 past frames and 0 future frames
  1203. 20:00:27 T:2968   DEBUG: CWinRenderer::SelectRenderMethod: Selected render method 3: DXVA
  1204. 20:00:27 T:2796   ERROR: CLocalizeStrings::ClearBlock: Trying to clear non existent block C:\Users\Administrator\AppData\Roaming\XBMC\addons\script.cinema.experience
  1205. 20:00:27 T:2796   DEBUG: created video buffer 0
  1206. 20:00:27 T:2796   DEBUG: created video buffer 1
  1207. 20:00:27 T:2796   DEBUG: CGUIInfoManager::SetCurrentMovie(C:\Videos\Trivia Outro\one.man.band.2005.720p.bluray.x264-sinners.mp4)
  1208. 20:00:27 T:2796   DEBUG: CVideoDatabase::GetMovieId (C:\Videos\Trivia Outro\one.man.band.2005.720p.bluray.x264-sinners.mp4), query = select idMovie from movie where idFile=51
  1209. 20:00:27 T:2796   DEBUG: CVideoDatabase::GetEpisodeId (C:\Videos\Trivia Outro\one.man.band.2005.720p.bluray.x264-sinners.mp4), query = select idEpisode from episode where idFile=51
  1210. 20:00:27 T:2796   DEBUG: CVideoDatabase::GetMusicVideoId (C:\Videos\Trivia Outro\one.man.band.2005.720p.bluray.x264-sinners.mp4), query = select idMVideo from musicvideo where idFile=51
  1211. 20:00:27 T:2796   DEBUG: CVideoDatabase::GetMovieId (C:\Videos\Trivia Outro\one.man.band.2005.720p.bluray.x264-sinners.mp4), query = select idMovie from movie where idFile=51
  1212. 20:00:27 T:2796   DEBUG: CVideoDatabase::GetEpisodeId (C:\Videos\Trivia Outro\one.man.band.2005.720p.bluray.x264-sinners.mp4), query = select idEpisode from episode where idFile=51
  1213. 20:00:27 T:2796   DEBUG: CVideoDatabase::GetMusicVideoId (C:\Videos\Trivia Outro\one.man.band.2005.720p.bluray.x264-sinners.mp4), query = select idMVideo from musicvideo where idFile=51
  1214. 20:00:27 T:2796   DEBUG: CAnnouncementManager - Announcement: OnPlay from xbmc
  1215. 20:00:27 T:2796   DEBUG: GOT ANNOUNCEMENT, type: 1, from xbmc, message OnPlay
  1216. 20:00:27 T:3472  NOTICE: [ script.cinema.experience ] - Music Playlist Cleared
  1217. 20:00:27 T:3472  NOTICE: [script.cinema.experience] - Loading Trigger List
  1218. 20:00:27 T:1124   DEBUG: CDVDPlayer::HandleMessages - player started 2
  1219. 20:00:27 T:2796   DEBUG: ------ Window Deinit (DialogVolumeBar.xml) ------
  1220. 20:00:28 T:3472  NOTICE: [ script.cinema.experience ] - Item From Trigger List: Trivia Outro
  1221. 20:00:28 T:3472  NOTICE: [ script.cinema.experience ] - Playlist Position: 1  Playlist Size: 11
  1222. 20:00:28 T:3472  NOTICE: [ script.cinema.experience ] - autorefresh_movie: False
  1223. 20:00:28 T:3924  NOTICE: [script.cinema.experience] - [ home_automation.py ] - activate_on( Trivia Outro ) Triggered
  1224. 20:00:29 T:1720   DEBUG: CDVDPlayerAudio:: Discontinuity - was:2029571.644301, should be:1993186.703130, error:-36384.941170
  1225. 20:00:32 T:2968   DEBUG: CPullupCorrection: detected pattern of length 1: 41708.33, frameduration: 41708.333333
  1226. 20:00:57 T:3468   DEBUG: Thread Jobworker 3468 terminating (autodelete)
  1227. 20:00:57 T:3912   DEBUG: Thread Jobworker 3912 terminating (autodelete)
  1228. 20:00:57 T:3180   DEBUG: Thread Jobworker 3180 terminating (autodelete)
  1229. 20:02:34 T:1720   DEBUG: CDVDPlayerAudio:: Discontinuity - was:126882114.237898, should be:126871961.629778, error:-10152.608120
  1230. 20:03:11 T:2708   DEBUG: Thread CRemoteControl 2708 terminating
  1231. 20:04:01 T:2632   DEBUG: ### [Qlock] - Delaying 240 secs
  1232. 20:04:59 T:1720   DEBUG: CDVDPlayerAudio - CDVDMsg::GENERAL_EOF
  1233. 20:04:59 T:1720   DEBUG: CDVDAudio::Drain - adding 5536 bytes of silence, buffer size: 6848, chunk size: 12384
  1234. 20:04:59 T:1720 WARNING: CDVDMessageQueue(audio)::Get - asked for new data packet, with nothing available
  1235. 20:05:00 T:2968 WARNING: CDVDMessageQueue(video)::Get - asked for new data packet, with nothing available
  1236. 20:05:00 T:1124    INFO: CDVDPlayer::Process - eof reading from demuxer
  1237. 20:05:00 T:1124  NOTICE: CDVDPlayer::OnExit()
  1238. 20:05:00 T:1124  NOTICE: DVDPlayer: eof, waiting for queues to empty
  1239. 20:05:00 T:1124  NOTICE: DVDPlayer: closing audio stream
  1240. 20:05:00 T:1124  NOTICE: Closing audio stream
  1241. 20:05:00 T:1124  NOTICE: CDVDMessageQueue(audio)::WaitUntilEmpty
  1242. 20:05:00 T:1720   DEBUG: CDVDPlayerAudio - CDVDMsg::GENERAL_SYNCHRONIZE
  1243. 20:05:00 T:1124  NOTICE: Waiting for audio thread to exit
  1244. 20:05:00 T:1720   DEBUG: CDVDPlayerAudio::Process - Abort received, exiting thread
  1245. 20:05:00 T:1720  NOTICE: thread end: CDVDPlayerAudio::OnExit()
  1246. 20:05:00 T:1720   DEBUG: Thread CDVDPlayerAudio 1720 terminating
  1247. 20:05:00 T:1124  NOTICE: Closing audio device
  1248. 20:05:00 T:1124   DEBUG: CWin32DirectSound::WaitCompletion - timeout waiting for silence
  1249. 20:05:00 T:1124   DEBUG: CWin32DirectSound::Deinitialize: Cleaning up
  1250. 20:05:00 T:1124  NOTICE: Deleting audio codec
  1251. 20:05:00 T:1124  NOTICE: DVDPlayer: closing video stream
  1252. 20:05:00 T:1124  NOTICE: Closing video stream
  1253. 20:05:00 T:1124  NOTICE: CDVDMessageQueue(video)::WaitUntilEmpty
  1254. 20:05:00 T:2968   DEBUG: CDVDPlayerVideo - CDVDMsg::GENERAL_SYNCHRONIZE
  1255. 20:05:00 T:1124  NOTICE: waiting for video thread to exit
  1256. 20:05:00 T:2968   ERROR: Got MSGQ_ABORT or MSGO_IS_ERROR return true
  1257. 20:05:00 T:2968  NOTICE: thread end: video_thread
  1258. 20:05:00 T:2968   DEBUG: Thread CDVDPlayerVideo 2968 terminating
  1259. 20:05:00 T:1124  NOTICE: deleting video codec
  1260. 20:05:00 T:1124  NOTICE: CDVDPlayer::OnExit() deleting demuxer
  1261. 20:05:00 T:1124  NOTICE: CDVDPlayer::OnExit() deleting input stream
  1262. 20:05:00 T:1124   DEBUG: CAnnouncementManager - Announcement: OnStop from xbmc
  1263. 20:05:00 T:1124   DEBUG: GOT ANNOUNCEMENT, type: 1, from xbmc, message OnStop
  1264. 20:05:00 T:1124   DEBUG: Thread CDVDPlayer 1124 terminating
  1265. 20:05:00 T:2796   DEBUG: CPlayerCoreFactory::GetPlayers(C:\Videos\Trivia Outro\knick.knack.1989.720p.bluray.x264-sinners.mp4)
  1266. 20:05:00 T:2796   DEBUG: CPlayerSelectionRule::GetPlayers: considering rule: system rules
  1267. 20:05:00 T:2796   DEBUG: CPlayerSelectionRule::GetPlayers: matches rule: system rules
  1268. 20:05:00 T:2796   DEBUG: CPlayerSelectionRule::GetPlayers: considering rule: rtv
  1269. 20:05:00 T:2796   DEBUG: CPlayerSelectionRule::GetPlayers: considering rule: hdhomerun/myth/rtmp/mms/udp
  1270. 20:05:00 T:2796   DEBUG: CPlayerSelectionRule::GetPlayers: considering rule: lastfm/shout
  1271. 20:05:00 T:2796   DEBUG: CPlayerSelectionRule::GetPlayers: considering rule: rtsp
  1272. 20:05:00 T:2796   DEBUG: CPlayerSelectionRule::GetPlayers: considering rule: streams
  1273. 20:05:00 T:2796   DEBUG: CPlayerSelectionRule::GetPlayers: considering rule: dvd
  1274. 20:05:00 T:2796   DEBUG: CPlayerSelectionRule::GetPlayers: considering rule: dvdfile
  1275. 20:05:00 T:2796   DEBUG: CPlayerSelectionRule::GetPlayers: considering rule: dvdimage
  1276. 20:05:00 T:2796   DEBUG: CPlayerSelectionRule::GetPlayers: considering rule: sdp/asf
  1277. 20:05:00 T:2796   DEBUG: CPlayerSelectionRule::GetPlayers: considering rule: nsv
  1278. 20:05:00 T:2796   DEBUG: CPlayerCoreFactory::GetPlayers: matched 0 rules with players
  1279. 20:05:00 T:2796   DEBUG: CPlayerCoreFactory::GetPlayers: adding videodefaultplayer (1)
  1280. 20:05:00 T:2796   DEBUG: CPlayerCoreFactory::GetPlayers: for video=1, audio=0
  1281. 20:05:00 T:2796   DEBUG: CPlayerCoreFactory::GetPlayers: for video=1, audio=1
  1282. 20:05:00 T:2796   DEBUG: CPlayerCoreFactory::GetPlayers: adding player: DVDPlayer (1)
  1283. 20:05:00 T:2796   DEBUG: CPlayerCoreFactory::GetPlayers: added 1 players
  1284. 20:05:00 T:2796  NOTICE: DVDPlayer: Opening: C:\Videos\Trivia Outro\knick.knack.1989.720p.bluray.x264-sinners.mp4
  1285. 20:05:00 T:2796  NOTICE: CDVDPlayer::CloseFile()
  1286. 20:05:00 T:2796 WARNING: CDVDMessageQueue(player)::Put MSGQ_NOT_INITIALIZED
  1287. 20:05:00 T:2796  NOTICE: DVDPlayer: waiting for threads to exit
  1288. 20:05:00 T:2796  NOTICE: DVDPlayer: finished waiting
  1289. 20:05:00 T:2796 WARNING: CDVDMessageQueue(player)::Put MSGQ_NOT_INITIALIZED
  1290. 20:05:00 T:2796   DEBUG: CRenderManager::UpdateDisplayLatency - Latency set to 0 msec
  1291. 20:05:00 T:2796   DEBUG: DXVA - cheking samples array size using 842094158 render target
  1292. 20:05:00 T:2796   DEBUG: DXVA - updated maximum samples count to 2
  1293. 20:05:00 T:2796   DEBUG: DXVA - cheking samples array size using 842094169 render target
  1294. 20:05:00 T:1872   DEBUG: Thread CDVDPlayer start, auto delete: 0
  1295. 20:05:00 T:1872  NOTICE: Creating InputStream
  1296. 20:05:00 T:1872   DEBUG: CUtil::ScanForExternalSubtitles: Searching for subtitles...
  1297. 20:05:00 T:1872   DEBUG: CUtil::ScanForExternalSubtitles: END (total time: 1 ms)
  1298. 20:05:00 T:1872  NOTICE: Creating Demuxer
  1299. 20:05:00 T:1872   DEBUG: CDVDDemuxFFmpeg::Open - probing detected format [mov,mp4,m4a,3gp,3g2,mj2]
  1300. 20:05:00 T:1872   DEBUG: CDVDDemuxFFmpeg::Open - av_find_stream_info starting
  1301. 20:05:00 T:1872   DEBUG: CDVDDemuxFFmpeg::Open - av_find_stream_info finished
  1302. 20:05:00 T:1872    INFO: ffmpeg[750]: Input #0, mov,mp4,m4a,3gp,3g2,mj2, from 'C:\Videos\Trivia Outro\knick.knack.1989.720p.bluray.x264-sinners.mp4':
  1303. 20:05:00 T:1872    INFO: ffmpeg[750]:   Metadata:
  1304. 20:05:00 T:1872    INFO: ffmpeg[750]:     major_brand     : isom
  1305. 20:05:00 T:1872    INFO: ffmpeg[750]:     minor_version   : 1
  1306. 20:05:00 T:1872    INFO: ffmpeg[750]:     compatible_brands: isomavc1
  1307. 20:05:00 T:1872    INFO: ffmpeg[750]:     creation_time   : 2007-12-12 03:44:36
  1308. 20:05:00 T:1872    INFO: ffmpeg[750]:   Duration: 00:03:37.32, start: 0.000000, bitrate: 931 kb/s
  1309. 20:05:00 T:1872    INFO: ffmpeg[750]:     Stream #0.0(und): Audio: aac, 48000 Hz, stereo, s16, 127 kb/s
  1310. 20:05:00 T:1872    INFO: ffmpeg[750]:     Metadata:
  1311. 20:05:00 T:1872    INFO: ffmpeg[750]:       creation_time   : 2007-12-12 03:44:36
  1312. 20:05:00 T:1872    INFO: ffmpeg[750]:     Stream #0.1(und): Video: h264 (High), yuv420p, 1280x688 [PAR 1:1 DAR 80:43], 801 kb/s, 23.98 fps, 23.98 tbr, 24k tbn, 47.95 tbc
  1313. 20:05:00 T:1872    INFO: ffmpeg[750]:     Metadata:
  1314. 20:05:00 T:1872    INFO: ffmpeg[750]:       creation_time   : 2007-12-12 03:44:36
  1315. 20:05:00 T:1872  NOTICE: Opening video stream: 1 source: 256
  1316. 20:05:00 T:1872  NOTICE: Creating video codec with codec id: 28
  1317. 20:05:00 T:1872   DEBUG: CDVDFactoryCodec: compiled in hardware support: CrystalHD:yes DXVA:yes
  1318. 20:05:00 T:1872   DEBUG: FactoryCodec - Video:  - Opening
  1319. 20:05:00 T:1872  NOTICE: CDVDVideoCodecFFmpeg::Open() Using codec: H.264 / AVC / MPEG-4 AVC / MPEG-4 part 10
  1320. 20:05:00 T:1872    INFO: ffmpeg[750]: [w32thread] thread count = 2
  1321. 20:05:00 T:1872    INFO: ffmpeg[750]: [w32thread] init semaphors 1
  1322. 20:05:00 T:1872    INFO: ffmpeg[750]: [w32thread] create thread 1
  1323. 20:05:00 T:1872    INFO: ffmpeg[750]: [w32thread] init semaphors 2
  1324. 20:05:00 T:1872    INFO: ffmpeg[750]: [w32thread] create thread 2
  1325. 20:05:00 T:1872    INFO: ffmpeg[750]: [w32thread] init done
  1326. 20:05:00 T:1872   DEBUG: FactoryCodec - Video: ff-h264 - Opened
  1327. 20:05:00 T:1872  NOTICE: Creating video thread
  1328. 20:05:00 T:1872  NOTICE: Opening audio stream: 0 source: 256
  1329. 20:05:00 T:1872  NOTICE: Finding audio codec for: 86018
  1330. 20:05:00 T:1872   DEBUG: FactoryCodec - Audio: PassthroughFFmpeg - Opening
  1331. 20:05:00 T:3032   DEBUG: Thread CDVDPlayerVideo start, auto delete: 0
  1332. 20:05:00 T:3032  NOTICE: running thread: video_thread
  1333. 20:05:00 T:1872    INFO: CDVDAudioCodecPassthroughFFmpeg::Open - Won't transcode for HDMI
  1334. 20:05:00 T:1872   DEBUG: FactoryCodec - Audio: PassthroughFFmpeg - Failed
  1335. 20:05:00 T:1872   DEBUG: FactoryCodec - Audio: FFmpeg - Opening
  1336. 20:05:00 T:1872   DEBUG: FactoryCodec - Audio: FFmpeg - Opened
  1337. 20:05:00 T:1872  NOTICE: Creating audio thread
  1338. 20:05:00 T:1872   DEBUG: CEdl::ReadEditDecisionLists - Checking for edit decision lists (EDL) on local drive or remote share for: C:\Videos\Trivia Outro\knick.knack.1989.720p.bluray.x264-sinners.mp4
  1339. 20:05:00 T:3664   DEBUG: Thread CDVDPlayerAudio start, auto delete: 0
  1340. 20:05:00 T:3664  NOTICE: running thread: CDVDPlayerAudio::Process()
  1341. 20:05:00 T:1872   DEBUG: CDVDPlayer::SetCaching - caching state 2
  1342. 20:05:00 T:3032   DEBUG: CDVDPlayerVideo - CDVDMsg::GENERAL_SYNCHRONIZE
  1343. 20:05:00 T:3664  NOTICE: Creating audio device with codec id: 86018, channels: 2, sample rate: 48000, no pass-through
  1344. 20:05:00 T:3032   DEBUG: CDVDPlayerVideo - CDVDMsg::GENERAL_RESYNC(41708.333333, 0)
  1345. 20:05:00 T:3664    INFO: CPCMRemap: Configured speaker layout: 5.1
  1346. 20:05:00 T:3664    INFO: CPCMRemap: I channel map: FL,FR
  1347. 20:05:00 T:3664    INFO: CPCMRemap: O channel map: FL,FR
  1348. 20:05:00 T:3664   DEBUG: CPCMRemap: Downmix normalization is disabled
  1349. 20:05:00 T:3664   DEBUG: CPCMRemap: FL = FL(1.000000*)
  1350. 20:05:00 T:3664   DEBUG: CPCMRemap: FR = FR(1.000000*)
  1351. 20:05:00 T:3664   DEBUG: CWin32DirectSound::Initialize: Packet Size = 12384. Avg Bytes Per Second = 192000.
  1352. 20:05:00 T:3664   DEBUG: CWin32DirectSound::Initialize: secondary buffer created
  1353. 20:05:00 T:3664   DEBUG: CWin32DirectSound::Initialize - Channels: 2 - SampleRate: 48000 - SampleBit: 16 - Resample false - IsMusic false - IsPassthrough 0 - audioDevice: ATI HDMI Output (ATI High Definition Audio Device)
  1354. 20:05:00 T:3664   DEBUG: CDVDPlayerAudio:: synctype set to 0: clock feedback
  1355. 20:05:00 T:1872   DEBUG: CDVDPlayer::HandleMessages - player started 1
  1356. 20:05:00 T:3032    INFO: CDVDPlayerVideo - Stillframe left, switching to normal playback
  1357. 20:05:00 T:3032   DEBUG: DXVA - supports 'MPEG2 IDCT'
  1358. 20:05:00 T:3032   DEBUG: DXVA - supports 'H.264 VLD, no FGT'
  1359. 20:05:00 T:3032   DEBUG: DXVA - supports 4245F676-2bbc-4166-a0bb-54e7b849c380
  1360. 20:05:00 T:3032   DEBUG: DXVA - supports 6719B6FB-5cad-4acb-b00a-f3bfdec38727
  1361. 20:05:00 T:3032   DEBUG: DXVA - supports 'VC-1 VLD'
  1362. 20:05:00 T:3032   DEBUG: DXVA - supports CA15D19A-2b48-43d6-979e-7a6e9c802ff8
  1363. 20:05:00 T:3032   DEBUG: DXVA - supports 5B23D46D-fa5f-4fdc-b78a-7eb2787942ec
  1364. 20:05:00 T:3032   DEBUG: DXVA - supports 00000000-0000-0000-0000-000000000000
  1365. 20:05:00 T:3032   DEBUG: DXVA - trying 'H.264 VLD, no FGT'
  1366. 20:05:00 T:3032   DEBUG: DXVA - source requires 2 references
  1367. 20:05:00 T:3032   DEBUG: DXVA - config 0: bitstream type 2
  1368. 20:05:00 T:3032   DEBUG: DXVA - config 1: bitstream type 2, encrypted
  1369. 20:05:00 T:3032   DEBUG: DXVA - allocating 9 surfaces
  1370. 20:05:00 T:1872   DEBUG: CDVDPlayer::SetCaching - caching state 0
  1371. 20:05:00 T:3664   DEBUG: CDVDPlayerAudio - CDVDMsg::GENERAL_RESYNC(21333.333333, 1)
  1372. 20:05:00 T:3664   DEBUG: CDVDPlayerAudio:: Discontinuity - was:-2138.038756, should be:-2137.014773, error:1.023983
  1373. 20:05:00 T:3664   DEBUG: CWin32DirectSound::CheckPlayStatus: Resuming Playback
  1374. 20:05:00 T:3032  NOTICE:  fps: 23.976024, pwidth: 1280, pheight: 688, dwidth: 1280, dheight: 688
  1375. 20:05:00 T:3032   DEBUG: CDVDPlayerVideo::OutputPicture - change configuration. 1280x688. framerate: 23.98. format: DXVA
  1376. 20:05:00 T:3032  NOTICE: Display resolution DESKTOP : 1366x768 @ 60.00 - Full Screen (12)
  1377. 20:05:00 T:3032  NOTICE: D3D: rendering method forced to DXVA2 processor
  1378. 20:05:00 T:3032   DEBUG: DXVA - processor found Progressive Device
  1379. 20:05:00 T:3032   DEBUG: DXVA - processor selected Progressive Device
  1380. 20:05:00 T:3032   DEBUG: DXVA - processor requires 0 past frames and 0 future frames
  1381. 20:05:00 T:3032   DEBUG: CWinRenderer::SelectRenderMethod: Selected render method 3: DXVA
  1382. 20:05:00 T:3032   DEBUG: CPullupCorrection: pattern lost on diff -273064458.333333
  1383. 20:05:01 T:2796   DEBUG: created video buffer 0
  1384. 20:05:01 T:2796   DEBUG: created video buffer 1
  1385. 20:05:01 T:2796   DEBUG: CGUIInfoManager::SetCurrentMovie(C:\Videos\Trivia Outro\knick.knack.1989.720p.bluray.x264-sinners.mp4)
  1386. 20:05:01 T:2796   DEBUG: CAnnouncementManager - Announcement: OnPlay from xbmc
  1387. 20:05:01 T:2796   DEBUG: GOT ANNOUNCEMENT, type: 1, from xbmc, message OnPlay
  1388. 20:05:01 T:3032    INFO: ffmpeg[BD8]: [h264] Cannot parallelize deblocking type 1, decoding such frames in sequential order
  1389. 20:05:01 T:1872   DEBUG: CDVDPlayer::HandleMessages - player started 2
  1390. 20:05:01 T:3648   DEBUG: Thread Jobworker start, auto delete: 1
  1391. 20:05:01 T:3648   DEBUG: CSaveFileStateJob::DoWork - Saving file state for video item C:\Videos\Trivia Outro\one.man.band.2005.720p.bluray.x264-sinners.mp4
  1392. 20:05:01 T:3648   DEBUG: CSaveFileStateJob::DoWork - Marking video item C:\Videos\Trivia Outro\one.man.band.2005.720p.bluray.x264-sinners.mp4 as watched
  1393. 20:05:01 T:3472  NOTICE: [ script.cinema.experience ] - Item From Trigger List: Trivia Outro
  1394. 20:05:01 T:3472  NOTICE: [ script.cinema.experience ] - Playlist Position: 2  Playlist Size: 11
  1395. 20:05:01 T:3472  NOTICE: [ script.cinema.experience ] - autorefresh_movie: False
  1396. 20:05:03 T:3664   DEBUG: CDVDPlayerAudio:: Discontinuity - was:2092640.808212, should be:2062971.552801, error:-29669.255411
  1397. 20:05:06 T:3032   DEBUG: CPullupCorrection: detected pattern of length 1: 41708.33, frameduration: 41708.333333
  1398. 20:05:31 T:3648   DEBUG: Thread Jobworker 3648 terminating (autodelete)
  1399. 20:07:23 T:3664   DEBUG: CDVDPlayerAudio:: Discontinuity - was:142422641.161257, should be:142412256.966007, error:-10384.195250
  1400. 20:08:01 T:2632   DEBUG: ### [Qlock] - Delaying 240 secs
  1401. 20:08:37 T:3664   DEBUG: CDVDPlayerAudio - CDVDMsg::GENERAL_EOF
  1402. 20:08:37 T:3664   DEBUG: CDVDAudio::Drain - adding 8128 bytes of silence, buffer size: 4256, chunk size: 12384
  1403. 20:08:37 T:3664 WARNING: CDVDMessageQueue(audio)::Get - asked for new data packet, with nothing available
  1404. 20:08:37 T:3032 WARNING: CDVDMessageQueue(video)::Get - asked for new data packet, with nothing available
  1405. 20:08:38 T:1872    INFO: CDVDPlayer::Process - eof reading from demuxer
  1406. 20:08:38 T:1872  NOTICE: CDVDPlayer::OnExit()
  1407. 20:08:38 T:1872  NOTICE: DVDPlayer: eof, waiting for queues to empty
  1408. 20:08:38 T:1872  NOTICE: DVDPlayer: closing audio stream
  1409. 20:08:38 T:1872  NOTICE: Closing audio stream
  1410. 20:08:38 T:1872  NOTICE: CDVDMessageQueue(audio)::WaitUntilEmpty
  1411. 20:08:38 T:1872  NOTICE: Waiting for audio thread to exit
  1412. 20:08:38 T:3664   DEBUG: CDVDPlayerAudio - CDVDMsg::GENERAL_SYNCHRONIZE
  1413. 20:08:38 T:3664  NOTICE: thread end: CDVDPlayerAudio::OnExit()
  1414. 20:08:38 T:3664   DEBUG: Thread CDVDPlayerAudio 3664 terminating
  1415. 20:08:38 T:1872  NOTICE: Closing audio device
  1416. 20:08:38 T:1872   DEBUG: CWin32DirectSound::WaitCompletion - timeout waiting for silence
  1417. 20:08:38 T:1872   DEBUG: CWin32DirectSound::Deinitialize: Cleaning up
  1418. 20:08:38 T:1872  NOTICE: Deleting audio codec
  1419. 20:08:38 T:1872  NOTICE: DVDPlayer: closing video stream
  1420. 20:08:38 T:1872  NOTICE: Closing video stream
  1421. 20:08:38 T:1872  NOTICE: CDVDMessageQueue(video)::WaitUntilEmpty
  1422. 20:08:38 T:3032   DEBUG: CDVDPlayerVideo - CDVDMsg::GENERAL_SYNCHRONIZE
  1423. 20:08:38 T:3032   ERROR: Got MSGQ_ABORT or MSGO_IS_ERROR return true
  1424. 20:08:38 T:1872  NOTICE: waiting for video thread to exit
  1425. 20:08:38 T:3032  NOTICE: thread end: video_thread
  1426. 20:08:38 T:3032   DEBUG: Thread CDVDPlayerVideo 3032 terminating
  1427. 20:08:38 T:1872  NOTICE: deleting video codec
  1428. 20:08:38 T:1872  NOTICE: CDVDPlayer::OnExit() deleting demuxer
  1429. 20:08:38 T:1872  NOTICE: CDVDPlayer::OnExit() deleting input stream
  1430. 20:08:38 T:1872   DEBUG: CAnnouncementManager - Announcement: OnStop from xbmc
  1431. 20:08:38 T:1872   DEBUG: GOT ANNOUNCEMENT, type: 1, from xbmc, message OnStop
  1432. 20:08:38 T:1872   DEBUG: Thread CDVDPlayer 1872 terminating
  1433. 20:08:38 T:3472  NOTICE: [ script.cinema.experience ] - Video may have stopped
  1434. 20:08:38 T:3472  NOTICE: [ script.cinema.experience ] - Item From Trigger List: Movie Theater Intro
  1435. 20:08:38 T:3472  NOTICE: [ script.cinema.experience ] - Playlist Position: 3  Playlist Size: 11
  1436. 20:08:38 T:2192  NOTICE: [script.cinema.experience] - [ home_automation.py ] - activate_on( Movie Theater Intro ) Triggered
  1437. 20:08:38 T:3472  NOTICE: [ script.cinema.experience ] - autorefresh_movie: False
  1438. 20:08:38 T:2796   DEBUG: CPlayerCoreFactory::GetPlayers(C:\Videos\Movie Theater Intro\hot_dog_1.avi)
  1439. 20:08:38 T:2796   DEBUG: CPlayerSelectionRule::GetPlayers: considering rule: system rules
  1440. 20:08:38 T:2796   DEBUG: CPlayerSelectionRule::GetPlayers: matches rule: system rules
  1441. 20:08:38 T:2796   DEBUG: CPlayerSelectionRule::GetPlayers: considering rule: rtv
  1442. 20:08:38 T:2796   DEBUG: CPlayerSelectionRule::GetPlayers: considering rule: hdhomerun/myth/rtmp/mms/udp
  1443. 20:08:38 T:2796   DEBUG: CPlayerSelectionRule::GetPlayers: considering rule: lastfm/shout
  1444. 20:08:38 T:2796   DEBUG: CPlayerSelectionRule::GetPlayers: considering rule: rtsp
  1445. 20:08:38 T:2796   DEBUG: CPlayerSelectionRule::GetPlayers: considering rule: streams
  1446. 20:08:38 T:2796   DEBUG: CPlayerSelectionRule::GetPlayers: considering rule: dvd
  1447. 20:08:38 T:2796   DEBUG: CPlayerSelectionRule::GetPlayers: considering rule: dvdfile
  1448. 20:08:38 T:2796   DEBUG: CPlayerSelectionRule::GetPlayers: considering rule: dvdimage
  1449. 20:08:38 T:2796   DEBUG: CPlayerSelectionRule::GetPlayers: considering rule: sdp/asf
  1450. 20:08:38 T:2796   DEBUG: CPlayerSelectionRule::GetPlayers: considering rule: nsv
  1451. 20:08:38 T:2796   DEBUG: CPlayerCoreFactory::GetPlayers: matched 0 rules with players
  1452. 20:08:38 T:2796   DEBUG: CPlayerCoreFactory::GetPlayers: adding videodefaultplayer (1)
  1453. 20:08:38 T:2796   DEBUG: CPlayerCoreFactory::GetPlayers: for video=1, audio=0
  1454. 20:08:38 T:2796   DEBUG: CPlayerCoreFactory::GetPlayers: for video=1, audio=1
  1455. 20:08:38 T:2796   DEBUG: CPlayerCoreFactory::GetPlayers: adding player: DVDPlayer (1)
  1456. 20:08:38 T:2796   DEBUG: CPlayerCoreFactory::GetPlayers: added 1 players
  1457. 20:08:38 T:2796  NOTICE: DVDPlayer: Opening: C:\Videos\Movie Theater Intro\hot_dog_1.avi
  1458. 20:08:38 T:2796  NOTICE: CDVDPlayer::CloseFile()
  1459. 20:08:38 T:2796 WARNING: CDVDMessageQueue(player)::Put MSGQ_NOT_INITIALIZED
  1460. 20:08:38 T:2796  NOTICE: DVDPlayer: waiting for threads to exit
  1461. 20:08:38 T:2796  NOTICE: DVDPlayer: finished waiting
  1462. 20:08:38 T:2796 WARNING: CDVDMessageQueue(player)::Put MSGQ_NOT_INITIALIZED
  1463. 20:08:38 T:2796   DEBUG: CRenderManager::UpdateDisplayLatency - Latency set to 0 msec
  1464. 20:08:38 T:2796   DEBUG: DXVA - cheking samples array size using 842094158 render target
  1465. 20:08:38 T:2796   DEBUG: DXVA - updated maximum samples count to 2
  1466. 20:08:38 T:2796   DEBUG: DXVA - cheking samples array size using 842094169 render target
  1467. 20:08:38 T:1528   DEBUG: Thread CDVDPlayer start, auto delete: 0
  1468. 20:08:38 T:1528  NOTICE: Creating InputStream
  1469. 20:08:38 T:1528   DEBUG: CUtil::ScanForExternalSubtitles: Searching for subtitles...
  1470. 20:08:38 T:1528   DEBUG: CUtil::ScanForExternalSubtitles: END (total time: 2 ms)
  1471. 20:08:38 T:1528  NOTICE: Creating Demuxer
  1472. 20:08:38 T:1528   DEBUG: CDVDDemuxFFmpeg::Open - probing detected format [avi]
  1473. 20:08:38 T:1528   DEBUG: CDVDDemuxFFmpeg::Open - av_find_stream_info starting
  1474. 20:08:38 T:1528   DEBUG: CDVDDemuxFFmpeg::Open - av_find_stream_info finished
  1475. 20:08:38 T:1528    INFO: ffmpeg[5F8]: Input #0, avi, from 'C:\Videos\Movie Theater Intro\hot_dog_1.avi':
  1476. 20:08:38 T:1528    INFO: ffmpeg[5F8]:   Duration: 00:00:24.54, start: 0.000000, bitrate: 37548 kb/s
  1477. 20:08:38 T:1528    INFO: ffmpeg[5F8]:     Stream #0.0: Video: dvvideo, yuv411p, 720x576 [PAR 64:45 DAR 16:9], 25 tbr, 31.25 tbn, 25 tbc
  1478. 20:08:38 T:1528    INFO: ffmpeg[5F8]:     Stream #0.1: Audio: pcm_s16le, 48000 Hz, 2 channels, s16, 1536 kb/s
  1479. 20:08:38 T:1528  NOTICE: Opening video stream: 0 source: 256
  1480. 20:08:38 T:1528  NOTICE: Creating video codec with codec id: 25
  1481. 20:08:38 T:1528   DEBUG: CDVDFactoryCodec: compiled in hardware support: CrystalHD:yes DXVA:yes
  1482. 20:08:38 T:1528   DEBUG: FactoryCodec - Video:  - Opening
  1483. 20:08:38 T:1528  NOTICE: CDVDVideoCodecFFmpeg::Open() Using codec: DV (Digital Video)
  1484. 20:08:38 T:1528   DEBUG: FactoryCodec - Video: ff-dvvideo - Opened
  1485. 20:08:38 T:1528  NOTICE: Creating video thread
  1486. 20:08:38 T:1528  NOTICE: Opening audio stream: 1 source: 256
  1487. 20:08:38 T:1528  NOTICE: Finding audio codec for: 65536
  1488. 20:08:38 T:1528   DEBUG: FactoryCodec - Audio: PassthroughFFmpeg - Opening
  1489. 20:08:38 T:4012   DEBUG: Thread CDVDPlayerVideo start, auto delete: 0
  1490. 20:08:38 T:4012  NOTICE: running thread: video_thread
  1491. 20:08:38 T:1528    INFO: CDVDAudioCodecPassthroughFFmpeg::Open - Won't transcode for HDMI
  1492. 20:08:38 T:1528   DEBUG: FactoryCodec - Audio: PassthroughFFmpeg - Failed
  1493. 20:08:38 T:1528   DEBUG: FactoryCodec - Audio: pcm - Opening
  1494. 20:08:38 T:1528   DEBUG: FactoryCodec - Audio: pcm - Opened
  1495. 20:08:38 T:1528  NOTICE: Creating audio thread
  1496. 20:08:38 T:1528   DEBUG: CEdl::ReadEditDecisionLists - Checking for edit decision lists (EDL) on local drive or remote share for: C:\Videos\Movie Theater Intro\hot_dog_1.avi
  1497. 20:08:38 T:2148   DEBUG: Thread CDVDPlayerAudio start, auto delete: 0
  1498. 20:08:38 T:2148  NOTICE: running thread: CDVDPlayerAudio::Process()
  1499. 20:08:38 T:1528   DEBUG: CDVDPlayer::SetCaching - caching state 2
  1500. 20:08:38 T:2148  NOTICE: Creating audio device with codec id: 65536, channels: 2, sample rate: 48000, no pass-through
  1501. 20:08:38 T:2148    INFO: CPCMRemap: Configured speaker layout: 5.1
  1502. 20:08:38 T:2148    INFO: CPCMRemap: I channel map: FL,FR
  1503. 20:08:38 T:2148    INFO: CPCMRemap: O channel map: FL,FR
  1504. 20:08:38 T:2148   DEBUG: CPCMRemap: Downmix normalization is disabled
  1505. 20:08:38 T:2148   DEBUG: CPCMRemap: FL = FL(1.000000*)
  1506. 20:08:38 T:2148   DEBUG: CPCMRemap: FR = FR(1.000000*)
  1507. 20:08:38 T:2148   DEBUG: CWin32DirectSound::Initialize: Packet Size = 12384. Avg Bytes Per Second = 192000.
  1508. 20:08:38 T:2148   DEBUG: CWin32DirectSound::Initialize: secondary buffer created
  1509. 20:08:38 T:2148   DEBUG: CWin32DirectSound::Initialize - Channels: 2 - SampleRate: 48000 - SampleBit: 16 - Resample false - IsMusic false - IsPassthrough 0 - audioDevice: ATI HDMI Output (ATI High Definition Audio Device)
  1510. 20:08:38 T:2148   DEBUG: CDVDPlayerAudio:: synctype set to 0: clock feedback
  1511. 20:08:38 T:1528   DEBUG: CDVDPlayer::HandleMessages - player started 1
  1512. 20:08:38 T:4012   DEBUG: CDVDPlayerVideo - CDVDMsg::GENERAL_SYNCHRONIZE
  1513. 20:08:38 T:4012    INFO: CDVDPlayerVideo - Stillframe left, switching to normal playback
  1514. 20:08:38 T:1696   DEBUG: Thread Jobworker start, auto delete: 1
  1515. 20:08:38 T:1696   DEBUG: CSaveFileStateJob::DoWork - Saving file state for video item C:\Videos\Trivia Outro\knick.knack.1989.720p.bluray.x264-sinners.mp4
  1516. 20:08:38 T:1696   DEBUG: CSaveFileStateJob::DoWork - Marking video item C:\Videos\Trivia Outro\knick.knack.1989.720p.bluray.x264-sinners.mp4 as watched
  1517. 20:08:38 T:4012  NOTICE:  fps: 25.000000, pwidth: 720, pheight: 576, dwidth: 720, dheight: 405
  1518. 20:08:38 T:4012   DEBUG: CDVDPlayerVideo::OutputPicture - change configuration. 720x576. framerate: 25.00. format: YV12
  1519. 20:08:38 T:4012  NOTICE: Display resolution DESKTOP : 1366x768 @ 60.00 - Full Screen (12)
  1520. 20:08:38 T:4012   DEBUG: CWinRenderer::SelectRenderMethod: Requested render method: 0
  1521. 20:08:38 T:4012   DEBUG: CWinShader::LoadEffect - loading shader special://xbmc/system/shaders/testshader.fx
  1522. 20:08:38 T:4012   DEBUG: CWinRenderer::SelectRenderMethod: Selected render method 1: Pixel Shaders
  1523. 20:08:38 T:4012   DEBUG: CPullupCorrection: pattern lost on diff -217050166.666667
  1524. 20:08:38 T:2796   DEBUG: created video buffer 0
  1525. 20:08:38 T:2796   DEBUG: created video buffer 1
  1526. 20:08:38 T:2796   DEBUG: CWinShader::LoadEffect - loading shader special://xbmc/system/shaders/yuv2rgb_d3d.fx
  1527. 20:08:38 T:2796   DEBUG: CGUIInfoManager::SetCurrentMovie(C:\Videos\Movie Theater Intro\hot_dog_1.avi)
  1528. 20:08:39 T:2796   DEBUG: CAnnouncementManager - Announcement: OnPlay from xbmc
  1529. 20:08:39 T:2796   DEBUG: GOT ANNOUNCEMENT, type: 1, from xbmc, message OnPlay
  1530. 20:08:39 T:1528   DEBUG: CDVDPlayer::HandleMessages - player started 2
  1531. 20:08:39 T:1528   DEBUG: CDVDPlayer::SetCaching - caching state 3
  1532. 20:08:39 T:2148   DEBUG: CDVDPlayerAudio - CDVDMsg::GENERAL_RESYNC(21333.333333, 1)
  1533. 20:08:39 T:2148   DEBUG: CDVDPlayerAudio:: Discontinuity - was:85.331921, should be:0.000000, error:-85.331921
  1534. 20:08:39 T:4012   DEBUG: CDVDPlayerVideo - CDVDMsg::GENERAL_DELAY(10666.666667)
  1535. 20:08:39 T:2148   DEBUG: CWin32DirectSound::CheckPlayStatus: Resuming Playback
  1536. 20:08:39 T:1528   DEBUG: CDVDPlayer::SetCaching - caching state 0
  1537. 20:08:39 T:4012   DEBUG: CDVDPlayerVideo - CDVDMsg::GENERAL_RESYNC(32000.000000, 0)
  1538. 20:08:41 T:2148   DEBUG: CDVDPlayerAudio:: Discontinuity - was:2095210.967814, should be:2061968.794546, error:-33242.173268
  1539. 20:08:42 T:4012   DEBUG: CPullupCorrection: detected pattern of length 1: 32000.00, frameduration: 32000.000000
  1540. 20:09:02 T:2148   DEBUG: CDVDPlayerAudio - CDVDMsg::GENERAL_EOF
  1541. 20:09:02 T:2148   DEBUG: CDVDAudio::Drain - adding 6104 bytes of silence, buffer size: 6280, chunk size: 12384
  1542. 20:09:02 T:2148 WARNING: CDVDMessageQueue(audio)::Get - asked for new data packet, with nothing available
  1543. 20:09:03 T:4012 WARNING: CDVDMessageQueue(video)::Get - asked for new data packet, with nothing available
  1544. 20:09:03 T:1528  NOTICE: CDVDPlayer::OnExit()
  1545. 20:09:03 T:1528  NOTICE: DVDPlayer: eof, waiting for queues to empty
  1546. 20:09:03 T:1528  NOTICE: DVDPlayer: closing audio stream
  1547. 20:09:03 T:1528  NOTICE: Closing audio stream
  1548. 20:09:03 T:1528  NOTICE: CDVDMessageQueue(audio)::WaitUntilEmpty
  1549. 20:09:03 T:2148   DEBUG: CDVDPlayerAudio - CDVDMsg::GENERAL_SYNCHRONIZE
  1550. 20:09:03 T:2148   DEBUG: CDVDPlayerAudio::Process - Abort received, exiting thread
  1551. 20:09:03 T:1528  NOTICE: Waiting for audio thread to exit
  1552. 20:09:03 T:2148  NOTICE: thread end: CDVDPlayerAudio::OnExit()
  1553. 20:09:03 T:2148   DEBUG: Thread CDVDPlayerAudio 2148 terminating
  1554. 20:09:03 T:1528  NOTICE: Closing audio device
  1555. 20:09:03 T:1528   DEBUG: CWin32DirectSound::WaitCompletion - timeout waiting for silence
  1556. 20:09:03 T:1528   DEBUG: CWin32DirectSound::Deinitialize: Cleaning up
  1557. 20:09:03 T:1528  NOTICE: Deleting audio codec
  1558. 20:09:03 T:1528  NOTICE: DVDPlayer: closing video stream
  1559. 20:09:03 T:1528  NOTICE: Closing video stream
  1560. 20:09:03 T:1528  NOTICE: CDVDMessageQueue(video)::WaitUntilEmpty
  1561. 20:09:03 T:4012   DEBUG: CDVDPlayerVideo - CDVDMsg::GENERAL_SYNCHRONIZE
  1562. 20:09:03 T:1528  NOTICE: waiting for video thread to exit
  1563. 20:09:03 T:4012   ERROR: Got MSGQ_ABORT or MSGO_IS_ERROR return true
  1564. 20:09:03 T:4012  NOTICE: thread end: video_thread
  1565. 20:09:03 T:4012   DEBUG: Thread CDVDPlayerVideo 4012 terminating
  1566. 20:09:03 T:1528  NOTICE: deleting video codec
  1567. 20:09:03 T:1528  NOTICE: CDVDPlayer::OnExit() deleting demuxer
  1568. 20:09:03 T:1528  NOTICE: CDVDPlayer::OnExit() deleting input stream
  1569. 20:09:03 T:1528   DEBUG: CAnnouncementManager - Announcement: OnStop from xbmc
  1570. 20:09:03 T:1528   DEBUG: GOT ANNOUNCEMENT, type: 1, from xbmc, message OnStop
  1571. 20:09:03 T:1528   DEBUG: Thread CDVDPlayer 1528 terminating
  1572. 20:09:03 T:2796   DEBUG: CPlayerCoreFactory::GetPlayers(C:\Videos\Movie Theater Intro\snackbar_leprechan_cartoon.avi)
  1573. 20:09:03 T:2796   DEBUG: CPlayerSelectionRule::GetPlayers: considering rule: system rules
  1574. 20:09:03 T:2796   DEBUG: CPlayerSelectionRule::GetPlayers: matches rule: system rules
  1575. 20:09:03 T:2796   DEBUG: CPlayerSelectionRule::GetPlayers: considering rule: rtv
  1576. 20:09:03 T:2796   DEBUG: CPlayerSelectionRule::GetPlayers: considering rule: hdhomerun/myth/rtmp/mms/udp
  1577. 20:09:03 T:2796   DEBUG: CPlayerSelectionRule::GetPlayers: considering rule: lastfm/shout
  1578. 20:09:03 T:2796   DEBUG: CPlayerSelectionRule::GetPlayers: considering rule: rtsp
  1579. 20:09:03 T:2796   DEBUG: CPlayerSelectionRule::GetPlayers: considering rule: streams
  1580. 20:09:03 T:2796   DEBUG: CPlayerSelectionRule::GetPlayers: considering rule: dvd
  1581. 20:09:03 T:2796   DEBUG: CPlayerSelectionRule::GetPlayers: considering rule: dvdfile
  1582. 20:09:03 T:2796   DEBUG: CPlayerSelectionRule::GetPlayers: considering rule: dvdimage
  1583. 20:09:03 T:2796   DEBUG: CPlayerSelectionRule::GetPlayers: considering rule: sdp/asf
  1584. 20:09:03 T:2796   DEBUG: CPlayerSelectionRule::GetPlayers: considering rule: nsv
  1585. 20:09:03 T:2796   DEBUG: CPlayerCoreFactory::GetPlayers: matched 0 rules with players
  1586. 20:09:03 T:2796   DEBUG: CPlayerCoreFactory::GetPlayers: adding videodefaultplayer (1)
  1587. 20:09:03 T:2796   DEBUG: CPlayerCoreFactory::GetPlayers: for video=1, audio=0
  1588. 20:09:03 T:2796   DEBUG: CPlayerCoreFactory::GetPlayers: for video=1, audio=1
  1589. 20:09:03 T:2796   DEBUG: CPlayerCoreFactory::GetPlayers: adding player: DVDPlayer (1)
  1590. 20:09:03 T:2796   DEBUG: CPlayerCoreFactory::GetPlayers: added 1 players
  1591. 20:09:03 T:2796  NOTICE: DVDPlayer: Opening: C:\Videos\Movie Theater Intro\snackbar_leprechan_cartoon.avi
  1592. 20:09:03 T:2796  NOTICE: CDVDPlayer::CloseFile()
  1593. 20:09:03 T:2796 WARNING: CDVDMessageQueue(player)::Put MSGQ_NOT_INITIALIZED
  1594. 20:09:03 T:2796  NOTICE: DVDPlayer: waiting for threads to exit
  1595. 20:09:03 T:2796  NOTICE: DVDPlayer: finished waiting
  1596. 20:09:03 T:2796 WARNING: CDVDMessageQueue(player)::Put MSGQ_NOT_INITIALIZED
  1597. 20:09:03 T:2796   DEBUG: CRenderManager::UpdateDisplayLatency - Latency set to 0 msec
  1598. 20:09:03 T:2796   DEBUG: DXVA - cheking samples array size using 842094158 render target
  1599. 20:09:03 T:2796   DEBUG: DXVA - updated maximum samples count to 2
  1600. 20:09:03 T:2796   DEBUG: DXVA - cheking samples array size using 842094169 render target
  1601. 20:09:03 T:2576   DEBUG: Thread CDVDPlayer start, auto delete: 0
  1602. 20:09:03 T:2576  NOTICE: Creating InputStream
  1603. 20:09:03 T:2576   DEBUG: CUtil::ScanForExternalSubtitles: Searching for subtitles...
  1604. 20:09:03 T:2576   DEBUG: CUtil::ScanForExternalSubtitles: END (total time: 1 ms)
  1605. 20:09:03 T:2576  NOTICE: Creating Demuxer
  1606. 20:09:03 T:2576   DEBUG: CDVDDemuxFFmpeg::Open - probing detected format [avi]
  1607. 20:09:03 T:2576   DEBUG: CDVDDemuxFFmpeg::Open - av_find_stream_info starting
  1608. 20:09:03 T:2576   DEBUG: CDVDDemuxFFmpeg::Open - av_find_stream_info finished
  1609. 20:09:03 T:2576    INFO: ffmpeg[A10]: Input #0, avi, from 'C:\Videos\Movie Theater Intro\snackbar_leprechan_cartoon.avi':
  1610. 20:09:03 T:2576    INFO: ffmpeg[A10]:   Duration: 00:00:44.19, start: 0.000000, bitrate: 2631 kb/s
  1611. 20:09:03 T:2576    INFO: ffmpeg[A10]:     Stream #0.0: Video: cinepak, yuv420p, 640x480, 31.25 tbr, 31.25 tbn, 31.25 tbc
  1612. 20:09:03 T:2576    INFO: ffmpeg[A10]:     Stream #0.1: Audio: pcm_s16le, 22050 Hz, 1 channels, s16, 352 kb/s
  1613. 20:09:03 T:2576  NOTICE: Opening video stream: 0 source: 256
  1614. 20:09:03 T:2576  NOTICE: Creating video codec with codec id: 44
  1615. 20:09:03 T:2576   DEBUG: CDVDFactoryCodec: compiled in hardware support: CrystalHD:yes DXVA:yes
  1616. 20:09:03 T:2576   DEBUG: FactoryCodec - Video:  - Opening
  1617. 20:09:03 T:2576  NOTICE: CDVDVideoCodecFFmpeg::Open() Using codec: Cinepak
  1618. 20:09:03 T:2576   DEBUG: FactoryCodec - Video: ff-cinepak - Opened
  1619. 20:09:03 T:2576  NOTICE: Creating video thread
  1620. 20:09:03 T:2576  NOTICE: Opening audio stream: 1 source: 256
  1621. 20:09:03 T:2576  NOTICE: Finding audio codec for: 65536
  1622. 20:09:03 T:2576   DEBUG: FactoryCodec - Audio: PassthroughFFmpeg - Opening
  1623. 20:09:03 T:2576    INFO: CDVDAudioCodecPassthrough::Open - disabled passthrough due to sample rate not being 48000
  1624. 20:09:03 T:2576   DEBUG: FactoryCodec - Audio: PassthroughFFmpeg - Failed
  1625. 20:09:03 T:2576   DEBUG: FactoryCodec - Audio: pcm - Opening
  1626. 20:09:03 T:2576   DEBUG: FactoryCodec - Audio: pcm - Opened
  1627. 20:09:03 T:2576  NOTICE: Creating audio thread
  1628. 20:09:03 T:1040   DEBUG: Thread CDVDPlayerVideo start, auto delete: 0
  1629. 20:09:03 T:1040  NOTICE: running thread: video_thread
  1630. 20:09:03 T:2576   DEBUG: CEdl::ReadEditDecisionLists - Checking for edit decision lists (EDL) on local drive or remote share for: C:\Videos\Movie Theater Intro\snackbar_leprechan_cartoon.avi
  1631. 20:09:03 T:3984   DEBUG: Thread CDVDPlayerAudio start, auto delete: 0
  1632. 20:09:03 T:3984  NOTICE: running thread: CDVDPlayerAudio::Process()
  1633. 20:09:03 T:2576   DEBUG: CDVDPlayer::SetCaching - caching state 2
  1634. 20:09:03 T:1040   DEBUG: CDVDPlayerVideo - CDVDMsg::GENERAL_SYNCHRONIZE
  1635. 20:09:03 T:1040    INFO: CDVDPlayerVideo - Stillframe left, switching to normal playback
  1636. 20:09:03 T:1040  NOTICE:  fps: 31.250000, pwidth: 640, pheight: 480, dwidth: 640, dheight: 480
  1637. 20:09:03 T:1040   DEBUG: CDVDPlayerVideo::OutputPicture - change configuration. 640x480. framerate: 31.25. format: YV12
  1638. 20:09:03 T:1040  NOTICE: Display resolution DESKTOP : 1366x768 @ 60.00 - Full Screen (12)
  1639. 20:09:03 T:1040   DEBUG: CWinRenderer::SelectRenderMethod: Requested render method: 0
  1640. 20:09:03 T:1040   DEBUG: CWinShader::LoadEffect - loading shader special://xbmc/system/shaders/testshader.fx
  1641. 20:09:03 T:3984  NOTICE: Creating audio device with codec id: 65536, channels: 1, sample rate: 22050, no pass-through
  1642. 20:09:03 T:3984    INFO: CPCMRemap: Configured speaker layout: 5.1
  1643. 20:09:03 T:3984    INFO: CPCMRemap: I channel map: CE
  1644. 20:09:03 T:3984   DEBUG: CPCMRemap: Mapping mono audio to front left and front right
  1645. 20:09:03 T:3984    INFO: CPCMRemap: O channel map: FL,FR
  1646. 20:09:03 T:3984   DEBUG: CPCMRemap: Downmix normalization is disabled
  1647. 20:09:03 T:3984   DEBUG: CPCMRemap: Mapping mono audio to front left and front right
  1648. 20:09:03 T:3984   DEBUG: CPCMRemap: FL = CE(0.707107)
  1649. 20:09:03 T:3984   DEBUG: CPCMRemap: FR = CE(0.707107)
  1650. 20:09:03 T:3984   DEBUG: CWin32DirectSound::Initialize: Packet Size = 12384. Avg Bytes Per Second = 88200.
  1651. 20:09:03 T:3984   DEBUG: CWin32DirectSound::Initialize: secondary buffer created
  1652. 20:09:03 T:3984   DEBUG: CWin32DirectSound::Initialize - Channels: 1 - SampleRate: 22050 - SampleBit: 16 - Resample false - IsMusic false - IsPassthrough 0 - audioDevice: ATI HDMI Output (ATI High Definition Audio Device)
  1653. 20:09:03 T:3984   DEBUG: CDVDPlayerAudio:: synctype set to 0: clock feedback
  1654. 20:09:03 T:2576   DEBUG: CDVDPlayer::HandleMessages - player started 1
  1655. 20:09:03 T:1696   DEBUG: CSaveFileStateJob::DoWork - Saving file state for video item C:\Videos\Movie Theater Intro\hot_dog_1.avi
  1656. 20:09:03 T:1040   DEBUG: CWinRenderer::SelectRenderMethod: Selected render method 1: Pixel Shaders
  1657. 20:09:03 T:1040   DEBUG: CPullupCorrection: pattern lost on diff -24512000.000000
  1658. 20:09:03 T:1696   DEBUG: CSaveFileStateJob::DoWork - Marking video item C:\Videos\Movie Theater Intro\hot_dog_1.avi as watched
  1659. 20:09:03 T:2576   DEBUG: CDVDPlayer::HandleMessages - player started 2
  1660. 20:09:03 T:2576   DEBUG: CDVDPlayer::SetCaching - caching state 0
  1661. 20:09:03 T:1040   DEBUG: CDVDPlayerVideo - CDVDMsg::GENERAL_RESYNC(32000.000000, 1)
  1662. 20:09:03 T:3984   DEBUG: CDVDPlayerAudio - CDVDMsg::GENERAL_RESYNC(31972.789116, 0)
  1663. 20:09:03 T:3984   DEBUG: CDVDPlayerAudio:: Discontinuity - was:1453.373273, should be:-4637.240049, error:-6090.613323
  1664. 20:09:03 T:3984 WARNING: CDVDMessageQueue(audio)::Get - asked for new data packet, with nothing available
  1665. 20:09:03 T:3984   DEBUG: CWin32DirectSound::CheckPlayStatus: Resuming Playback
  1666. 20:09:03 T:1040 WARNING: CDVDMessageQueue(video)::Get - asked for new data packet, with nothing available
  1667. 20:09:03 T:1040   DEBUG: CPullupCorrection: detected pattern of length 1: 32000.00, frameduration: 32000.000000
  1668. 20:09:03 T:1040 WARNING: CDVDMessageQueue(video)::Get - asked for new data packet, with nothing available
  1669. 20:09:03 T:2796 WARNING: Previous line repeats 1 times.
  1670. 20:09:03 T:2796   DEBUG: created video buffer 0
  1671. 20:09:03 T:2796   DEBUG: created video buffer 1
  1672. 20:09:03 T:2796   DEBUG: CWinShader::LoadEffect - loading shader special://xbmc/system/shaders/yuv2rgb_d3d.fx
  1673. 20:09:03 T:2796   DEBUG: CGUIInfoManager::SetCurrentMovie(C:\Videos\Movie Theater Intro\snackbar_leprechan_cartoon.avi)
  1674. 20:09:03 T:1040 WARNING: CDVDMessageQueue(video)::Get - asked for new data packet, with nothing available
  1675. 20:09:04 T:2796 WARNING: Previous line repeats 2 times.
  1676. 20:09:04 T:2796   DEBUG: CVideoDatabase::GetMovieId (C:\Videos\Movie Theater Intro\snackbar_leprechan_cartoon.avi), query = select idMovie from movie where idFile=43
  1677. 20:09:04 T:2796   DEBUG: CVideoDatabase::GetEpisodeId (C:\Videos\Movie Theater Intro\snackbar_leprechan_cartoon.avi), query = select idEpisode from episode where idFile=43
  1678. 20:09:04 T:2796   DEBUG: CVideoDatabase::GetMusicVideoId (C:\Videos\Movie Theater Intro\snackbar_leprechan_cartoon.avi), query = select idMVideo from musicvideo where idFile=43
  1679. 20:09:04 T:2796   DEBUG: CVideoDatabase::GetMovieId (C:\Videos\Movie Theater Intro\snackbar_leprechan_cartoon.avi), query = select idMovie from movie where idFile=43
  1680. 20:09:04 T:2796   DEBUG: CVideoDatabase::GetEpisodeId (C:\Videos\Movie Theater Intro\snackbar_leprechan_cartoon.avi), query = select idEpisode from episode where idFile=43
  1681. 20:09:04 T:2796   DEBUG: CVideoDatabase::GetMusicVideoId (C:\Videos\Movie Theater Intro\snackbar_leprechan_cartoon.avi), query = select idMVideo from musicvideo where idFile=43
  1682. 20:09:04 T:2796   DEBUG: CAnnouncementManager - Announcement: OnPlay from xbmc
  1683. 20:09:04 T:2796   DEBUG: GOT ANNOUNCEMENT, type: 1, from xbmc, message OnPlay
  1684. 20:09:04 T:1040 WARNING: CDVDMessageQueue(video)::Get - asked for new data packet, with nothing available
  1685. 20:09:04 T:3472 WARNING: Previous line repeats 1 times.
  1686. 20:09:04 T:3472  NOTICE: [ script.cinema.experience ] - Item From Trigger List: Movie Theater Intro
  1687. 20:09:04 T:3472  NOTICE: [ script.cinema.experience ] - Playlist Position: 4  Playlist Size: 11
  1688. 20:09:04 T:3472  NOTICE: [ script.cinema.experience ] - autorefresh_movie: False
  1689. 20:09:04 T:1040 WARNING: CDVDMessageQueue(video)::Get - asked for new data packet, with nothing available
  1690. 20:09:06 T:3984 WARNING: Previous line repeats 17 times.
  1691. 20:09:06 T:3984   DEBUG: CDVDPlayerAudio:: Discontinuity - was:3253476.460298, should be:3226650.162741, error:-26826.297557
  1692. 20:09:07 T:1040 WARNING: CDVDMessageQueue(video)::Get - asked for new data packet, with nothing available
  1693. 20:09:33 T:1696 WARNING: Previous line repeats 190 times.
  1694. 20:09:33 T:1696   DEBUG: Thread Jobworker 1696 terminating (autodelete)
  1695. 20:09:34 T:1040 WARNING: CDVDMessageQueue(video)::Get - asked for new data packet, with nothing available
  1696. 20:09:38 T:1040 WARNING: Previous line repeats 26 times.
  1697. 20:09:38 T:1040    INFO: CDVDPlayerVideo - Stillframe detected, switching to forced 31.250000 fps
  1698. 20:09:38 T:1040   DEBUG: CPullupCorrection: pattern lost on diff 160000.000000
  1699. 20:09:38 T:2796   DEBUG: SDLKeyboard: scancode: 38, sym: 0134, unicode: 0000, modifier: 100
  1700. 20:09:38 T:2796   DEBUG: CApplication::OnKey: alt-leftalt (4f0d4) pressed, action is
  1701. 20:09:38 T:2796   DEBUG: SDLKeyboard: scancode: 1d, sym: 0132, unicode: 0000, modifier: 140
  1702. 20:09:38 T:2796   DEBUG: CApplication::OnKey: ctrl-alt-leftctrl (5f0d0) pressed, action is
  1703. 20:09:39 T:1040   DEBUG: CPullupCorrection: detected pattern of length 1: 32000.00, frameduration: 32000.000000
  1704. 20:09:39 T:2796   DEBUG: SDLKeyboard: scancode: 1d, sym: 0132, unicode: 0000, modifier: 140
  1705. 20:09:39 T:2796   DEBUG: CApplication::OnKey: ctrl-alt-leftctrl (5f0d0) pressed, action is
  1706. 20:09:39 T:2796   DEBUG: SDLKeyboard: scancode: 1d, sym: 0132, unicode: 0000, modifier: 140
  1707. 20:09:39 T:2796   DEBUG: CApplication::OnKey: ctrl-alt-leftctrl (5f0d0) pressed, action is
  1708. 20:09:39 T:2796   DEBUG: SDLKeyboard: scancode: 1d, sym: 0132, unicode: 0000, modifier: 140
  1709. 20:09:39 T:2796   DEBUG: CApplication::OnKey: ctrl-alt-leftctrl (5f0d0) pressed, action is
  1710. 20:09:39 T:2796   DEBUG: SDLKeyboard: scancode: 1d, sym: 0132, unicode: 0000, modifier: 140
  1711. 20:09:39 T:2796   DEBUG: CApplication::OnKey: ctrl-alt-leftctrl (5f0d0) pressed, action is
  1712. 20:09:39 T:2796   DEBUG: SDLKeyboard: scancode: 1d, sym: 0132, unicode: 0000, modifier: 140
  1713. 20:09:39 T:2796   DEBUG: CApplication::OnKey: ctrl-alt-leftctrl (5f0d0) pressed, action is
  1714. 20:09:39 T:2796   DEBUG: SDLKeyboard: scancode: 1d, sym: 0132, unicode: 0000, modifier: 140
  1715. 20:09:39 T:2796   DEBUG: CApplication::OnKey: ctrl-alt-leftctrl (5f0d0) pressed, action is
  1716. 20:09:39 T:2796   DEBUG: SDLKeyboard: scancode: 1d, sym: 0132, unicode: 0000, modifier: 140
  1717. 20:09:39 T:2796   DEBUG: CApplication::OnKey: ctrl-alt-leftctrl (5f0d0) pressed, action is
  1718. 20:09:39 T:2796   DEBUG: SDLKeyboard: scancode: 1d, sym: 0132, unicode: 0000, modifier: 140
  1719. 20:09:39 T:2796   DEBUG: CApplication::OnKey: ctrl-alt-leftctrl (5f0d0) pressed, action is
  1720. 20:09:40 T:2796   DEBUG: SDLKeyboard: scancode: 1d, sym: 0132, unicode: 0000, modifier: 140
  1721. 20:09:40 T:2796   DEBUG: CApplication::OnKey: ctrl-alt-leftctrl (5f0d0) pressed, action is
  1722. 20:09:40 T:2796   DEBUG: CWinEventsWin32::WndProcWindow is inactive
  1723. 20:09:44 T:2796   DEBUG: CWinEventsWin32::WndProcWindow is active
  1724. 20:09:44 T:2796   DEBUG: CWinEventsWin32::WndProcWindow is inactive
  1725. 20:09:45 T:3984   DEBUG: CDVDPlayerAudio - CDVDMsg::GENERAL_EOF
  1726. 20:09:45 T:3984   DEBUG: CDVDAudio::Drain - adding 2868 bytes of silence, buffer size: 3324, chunk size: 6192
  1727. 20:09:45 T:2576  NOTICE: CDVDPlayer::OnExit()
  1728. 20:09:45 T:2576  NOTICE: DVDPlayer: eof, waiting for queues to empty
  1729. 20:09:45 T:2576  NOTICE: DVDPlayer: closing audio stream
  1730. 20:09:45 T:2576  NOTICE: Closing audio stream
  1731. 20:09:45 T:2576  NOTICE: CDVDMessageQueue(audio)::WaitUntilEmpty
  1732. 20:09:45 T:3984   DEBUG: CDVDPlayerAudio - CDVDMsg::GENERAL_SYNCHRONIZE
  1733. 20:09:45 T:3984 WARNING: CDVDMessageQueue(audio)::Get - asked for new data packet, with nothing available
  1734. 20:09:45 T:2576  NOTICE: Waiting for audio thread to exit
  1735. 20:09:45 T:3984   DEBUG: CDVDPlayerAudio::Process - Abort received, exiting thread
  1736. 20:09:45 T:3984  NOTICE: thread end: CDVDPlayerAudio::OnExit()
  1737. 20:09:45 T:3984   DEBUG: Thread CDVDPlayerAudio 3984 terminating
  1738. 20:09:45 T:2576  NOTICE: Closing audio device
  1739. 20:09:47 T:3708  NOTICE: [script.cinema.experience] - [ home_automation.py ] - activate_on( Pause ) Triggered
  1740. 20:09:48 T:2576   DEBUG: CWin32DirectSound::WaitCompletion - timeout waiting for silence
  1741. 20:09:48 T:2576   DEBUG: CWin32DirectSound::Deinitialize: Cleaning up
  1742. 20:09:48 T:2576  NOTICE: Deleting audio codec
  1743. 20:09:48 T:2576  NOTICE: DVDPlayer: closing video stream
  1744. 20:09:48 T:2576  NOTICE: Closing video stream
  1745. 20:09:48 T:2576  NOTICE: CDVDMessageQueue(video)::WaitUntilEmpty
  1746. 20:09:48 T:1040   DEBUG: CDVDPlayerVideo - CDVDMsg::GENERAL_SYNCHRONIZE
  1747. 20:09:48 T:1040   ERROR: Got MSGQ_ABORT or MSGO_IS_ERROR return true
  1748. 20:09:48 T:1040  NOTICE: thread end: video_thread
  1749. 20:09:48 T:1040   DEBUG: Thread CDVDPlayerVideo 1040 terminating
  1750. 20:09:48 T:2576  NOTICE: waiting for video thread to exit
  1751. 20:09:48 T:2576  NOTICE: deleting video codec
  1752. 20:09:48 T:2576  NOTICE: CDVDPlayer::OnExit() deleting demuxer
  1753. 20:09:48 T:2576  NOTICE: CDVDPlayer::OnExit() deleting input stream
  1754. 20:09:48 T:2576   DEBUG: CAnnouncementManager - Announcement: OnStop from xbmc
  1755. 20:09:48 T:2576   DEBUG: GOT ANNOUNCEMENT, type: 1, from xbmc, message OnStop
  1756. 20:09:48 T:2576   DEBUG: Thread CDVDPlayer 2576 terminating
  1757. 20:09:48 T:2796   DEBUG: CPlayerCoreFactory::GetPlayers(C:\Videos\Movie Theater Intro\toddy_fearless_cartoon.avi)
  1758. 20:09:48 T:2796   DEBUG: CPlayerSelectionRule::GetPlayers: considering rule: system rules
  1759. 20:09:48 T:2796   DEBUG: CPlayerSelectionRule::GetPlayers: matches rule: system rules
  1760. 20:09:48 T:2796   DEBUG: CPlayerSelectionRule::GetPlayers: considering rule: rtv
  1761. 20:09:48 T:2796   DEBUG: CPlayerSelectionRule::GetPlayers: considering rule: hdhomerun/myth/rtmp/mms/udp
  1762. 20:09:48 T:2796   DEBUG: CPlayerSelectionRule::GetPlayers: considering rule: lastfm/shout
  1763. 20:09:48 T:2796   DEBUG: CPlayerSelectionRule::GetPlayers: considering rule: rtsp
  1764. 20:09:48 T:2796   DEBUG: CPlayerSelectionRule::GetPlayers: considering rule: streams
  1765. 20:09:48 T:2796   DEBUG: CPlayerSelectionRule::GetPlayers: considering rule: dvd
  1766. 20:09:48 T:2796   DEBUG: CPlayerSelectionRule::GetPlayers: considering rule: dvdfile
  1767. 20:09:48 T:2796   DEBUG: CPlayerSelectionRule::GetPlayers: considering rule: dvdimage
  1768. 20:09:48 T:2796   DEBUG: CPlayerSelectionRule::GetPlayers: considering rule: sdp/asf
  1769. 20:09:48 T:2796   DEBUG: CPlayerSelectionRule::GetPlayers: considering rule: nsv
  1770. 20:09:48 T:2796   DEBUG: CPlayerCoreFactory::GetPlayers: matched 0 rules with players
  1771. 20:09:48 T:2796   DEBUG: CPlayerCoreFactory::GetPlayers: adding videodefaultplayer (1)
  1772. 20:09:48 T:2796   DEBUG: CPlayerCoreFactory::GetPlayers: for video=1, audio=0
  1773. 20:09:48 T:2796   DEBUG: CPlayerCoreFactory::GetPlayers: for video=1, audio=1
  1774. 20:09:48 T:2796   DEBUG: CPlayerCoreFactory::GetPlayers: adding player: DVDPlayer (1)
  1775. 20:09:48 T:2796   DEBUG: CPlayerCoreFactory::GetPlayers: added 1 players
  1776. 20:09:48 T:2796  NOTICE: DVDPlayer: Opening: C:\Videos\Movie Theater Intro\toddy_fearless_cartoon.avi
  1777. 20:09:48 T:2796  NOTICE: CDVDPlayer::CloseFile()
  1778. 20:09:48 T:2796 WARNING: CDVDMessageQueue(player)::Put MSGQ_NOT_INITIALIZED
  1779. 20:09:48 T:2796  NOTICE: DVDPlayer: waiting for threads to exit
  1780. 20:09:48 T:2796  NOTICE: DVDPlayer: finished waiting
  1781. 20:09:48 T:2796 WARNING: CDVDMessageQueue(player)::Put MSGQ_NOT_INITIALIZED
  1782. 20:09:48 T:2796   DEBUG: CRenderManager::UpdateDisplayLatency - Latency set to 0 msec
  1783. 20:09:48 T:2796   DEBUG: DXVA - cheking samples array size using 842094158 render target
  1784. 20:09:48 T:2796   DEBUG: DXVA - updated maximum samples count to 2
  1785. 20:09:48 T:2796   DEBUG: DXVA - cheking samples array size using 842094169 render target
  1786. 20:09:48 T:952   DEBUG: Thread CDVDPlayer start, auto delete: 0
  1787. 20:09:48 T:952  NOTICE: Creating InputStream
  1788. 20:09:48 T:952   DEBUG: CUtil::ScanForExternalSubtitles: Searching for subtitles...
  1789. 20:09:48 T:952   DEBUG: CUtil::ScanForExternalSubtitles: END (total time: 1 ms)
  1790. 20:09:48 T:952  NOTICE: Creating Demuxer
  1791. 20:09:48 T:952   DEBUG: CDVDDemuxFFmpeg::Open - probing detected format [avi]
  1792. 20:09:48 T:952   DEBUG: CDVDDemuxFFmpeg::Open - av_find_stream_info starting
  1793. 20:09:48 T:952   DEBUG: CDVDDemuxFFmpeg::Open - av_find_stream_info finished
  1794. 20:09:48 T:952    INFO: ffmpeg[3B8]: Input #0, avi, from 'C:\Videos\Movie Theater Intro\toddy_fearless_cartoon.avi':
  1795. 20:09:48 T:952    INFO: ffmpeg[3B8]:   Duration: 00:00:48.73, start: 0.000000, bitrate: 37547 kb/s
  1796. 20:09:48 T:952    INFO: ffmpeg[3B8]:     Stream #0.0: Video: dvvideo, yuv411p, 720x576 [PAR 64:45 DAR 16:9], 25 tbr, 31.25 tbn, 25 tbc
  1797. 20:09:48 T:952    INFO: ffmpeg[3B8]:     Stream #0.1: Audio: pcm_s16le, 48000 Hz, 2 channels, s16, 1536 kb/s
  1798. 20:09:48 T:952  NOTICE: Opening video stream: 0 source: 256
  1799. 20:09:48 T:952  NOTICE: Creating video codec with codec id: 25
  1800. 20:09:48 T:952   DEBUG: CDVDFactoryCodec: compiled in hardware support: CrystalHD:yes DXVA:yes
  1801. 20:09:48 T:952   DEBUG: FactoryCodec - Video:  - Opening
  1802. 20:09:48 T:952  NOTICE: CDVDVideoCodecFFmpeg::Open() Using codec: DV (Digital Video)
  1803. 20:09:48 T:952   DEBUG: FactoryCodec - Video: ff-dvvideo - Opened
  1804. 20:09:48 T:952  NOTICE: Creating video thread
  1805. 20:09:48 T:952  NOTICE: Opening audio stream: 1 source: 256
  1806. 20:09:48 T:952  NOTICE: Finding audio codec for: 65536
  1807. 20:09:48 T:952   DEBUG: FactoryCodec - Audio: PassthroughFFmpeg - Opening
  1808. 20:09:48 T:1648   DEBUG: Thread CDVDPlayerVideo start, auto delete: 0
  1809. 20:09:48 T:1648  NOTICE: running thread: video_thread
  1810. 20:09:48 T:952    INFO: CDVDAudioCodecPassthroughFFmpeg::Open - Won't transcode for HDMI
  1811. 20:09:48 T:952   DEBUG: FactoryCodec - Audio: PassthroughFFmpeg - Failed
  1812. 20:09:48 T:952   DEBUG: FactoryCodec - Audio: pcm - Opening
  1813. 20:09:48 T:952   DEBUG: FactoryCodec - Audio: pcm - Opened
  1814. 20:09:48 T:952  NOTICE: Creating audio thread
  1815. 20:09:48 T:952   DEBUG: CEdl::ReadEditDecisionLists - Checking for edit decision lists (EDL) on local drive or remote share for: C:\Videos\Movie Theater Intro\toddy_fearless_cartoon.avi
  1816. 20:09:48 T:2612   DEBUG: Thread CDVDPlayerAudio start, auto delete: 0
  1817. 20:09:48 T:2612  NOTICE: running thread: CDVDPlayerAudio::Process()
  1818. 20:09:48 T:952   DEBUG: CDVDPlayer::SetCaching - caching state 2
  1819. 20:09:48 T:2612  NOTICE: Creating audio device with codec id: 65536, channels: 2, sample rate: 48000, no pass-through
  1820. 20:09:48 T:2612    INFO: CPCMRemap: Configured speaker layout: 5.1
  1821. 20:09:48 T:2612    INFO: CPCMRemap: I channel map: FL,FR
  1822. 20:09:48 T:2612    INFO: CPCMRemap: O channel map: FL,FR
  1823. 20:09:48 T:2612   DEBUG: CPCMRemap: Downmix normalization is disabled
  1824. 20:09:48 T:2612   DEBUG: CPCMRemap: FL = FL(1.000000*)
  1825. 20:09:48 T:2612   DEBUG: CPCMRemap: FR = FR(1.000000*)
  1826. 20:09:48 T:2612   DEBUG: CWin32DirectSound::Initialize: Packet Size = 12384. Avg Bytes Per Second = 192000.
  1827. 20:09:48 T:2612   DEBUG: CWin32DirectSound::Initialize: secondary buffer created
  1828. 20:09:48 T:2612   DEBUG: CWin32DirectSound::Initialize - Channels: 2 - SampleRate: 48000 - SampleBit: 16 - Resample false - IsMusic false - IsPassthrough 0 - audioDevice: ATI HDMI Output (ATI High Definition Audio Device)
  1829. 20:09:48 T:2612   DEBUG: CDVDPlayerAudio:: synctype set to 0: clock feedback
  1830. 20:09:48 T:952   DEBUG: CDVDPlayer::HandleMessages - player started 1
  1831. 20:09:48 T:1648   DEBUG: CDVDPlayerVideo - CDVDMsg::GENERAL_SYNCHRONIZE
  1832. 20:09:48 T:1648    INFO: CDVDPlayerVideo - Stillframe left, switching to normal playback
  1833. 20:09:48 T:1648  NOTICE:  fps: 25.000000, pwidth: 720, pheight: 576, dwidth: 720, dheight: 405
  1834. 20:09:48 T:1648   DEBUG: CDVDPlayerVideo::OutputPicture - change configuration. 720x576. framerate: 25.00. format: YV12
  1835. 20:09:48 T:1648  NOTICE: Display resolution DESKTOP : 1366x768 @ 60.00 - Full Screen (12)
  1836. 20:09:48 T:1648   DEBUG: CWinRenderer::SelectRenderMethod: Requested render method: 0
  1837. 20:09:48 T:1648   DEBUG: CWinShader::LoadEffect - loading shader special://xbmc/system/shaders/testshader.fx
  1838. 20:09:48 T:1648   DEBUG: CWinRenderer::SelectRenderMethod: Selected render method 1: Pixel Shaders
  1839. 20:09:48 T:1648   DEBUG: CPullupCorrection: pattern lost on diff -84000000.000000
  1840. 20:09:48 T:2796   DEBUG: created video buffer 0
  1841. 20:09:48 T:2796   DEBUG: created video buffer 1
  1842. 20:09:48 T:2796   DEBUG: CWinShader::LoadEffect - loading shader special://xbmc/system/shaders/yuv2rgb_d3d.fx
  1843. 20:09:48 T:2796   DEBUG: CGUIInfoManager::SetCurrentMovie(C:\Videos\Movie Theater Intro\toddy_fearless_cartoon.avi)
  1844. 20:09:48 T:2796   DEBUG: CVideoDatabase::GetMovieId (C:\Videos\Movie Theater Intro\toddy_fearless_cartoon.avi), query = select idMovie from movie where idFile=48
  1845. 20:09:48 T:2796   DEBUG: CVideoDatabase::GetEpisodeId (C:\Videos\Movie Theater Intro\toddy_fearless_cartoon.avi), query = select idEpisode from episode where idFile=48
  1846. 20:09:48 T:2796   DEBUG: CVideoDatabase::GetMusicVideoId (C:\Videos\Movie Theater Intro\toddy_fearless_cartoon.avi), query = select idMVideo from musicvideo where idFile=48
  1847. 20:09:48 T:2796   DEBUG: CVideoDatabase::GetMovieId (C:\Videos\Movie Theater Intro\toddy_fearless_cartoon.avi), query = select idMovie from movie where idFile=48
  1848. 20:09:48 T:2796   DEBUG: CVideoDatabase::GetEpisodeId (C:\Videos\Movie Theater Intro\toddy_fearless_cartoon.avi), query = select idEpisode from episode where idFile=48
  1849. 20:09:48 T:2796   DEBUG: CVideoDatabase::GetMusicVideoId (C:\Videos\Movie Theater Intro\toddy_fearless_cartoon.avi), query = select idMVideo from musicvideo where idFile=48
  1850. 20:09:48 T:2796   DEBUG: CAnnouncementManager - Announcement: OnPlay from xbmc
  1851. 20:09:48 T:2796   DEBUG: GOT ANNOUNCEMENT, type: 1, from xbmc, message OnPlay
  1852. 20:09:48 T:952   DEBUG: CDVDPlayer::HandleMessages - player started 2
  1853. 20:09:48 T:952   DEBUG: CDVDPlayer::SetCaching - caching state 0
  1854. 20:09:48 T:1648   DEBUG: CDVDPlayerVideo - CDVDMsg::GENERAL_DELAY(10666.666667)
  1855. 20:09:48 T:2612   DEBUG: CDVDPlayerAudio - CDVDMsg::GENERAL_RESYNC(21333.333333, 1)
  1856. 20:09:48 T:2612   DEBUG: CDVDPlayerAudio:: Discontinuity - was:21.162316, should be:0.000000, error:-21.162316
  1857. 20:09:48 T:2612   DEBUG: CWin32DirectSound::CheckPlayStatus: Resuming Playback
  1858. 20:09:48 T:1648   DEBUG: CDVDPlayerVideo - CDVDMsg::GENERAL_RESYNC(32000.000000, 0)
  1859. 20:09:48 T:2752  NOTICE: [script.cinema.experience] - [ home_automation.py ] - activate_on( Resume ) Triggered
  1860. 20:09:48 T:3472  NOTICE: [ script.cinema.experience ] - Item From Trigger List: Movie Theater Intro
  1861. 20:09:48 T:3472  NOTICE: [ script.cinema.experience ] - Playlist Position: 5  Playlist Size: 11
  1862. 20:09:48 T:3472  NOTICE: [ script.cinema.experience ] - autorefresh_movie: False
  1863. 20:09:48 T:2540   DEBUG: Thread Jobworker start, auto delete: 1
  1864. 20:09:48 T:2540   DEBUG: CSaveFileStateJob::DoWork - Saving file state for video item C:\Videos\Movie Theater Intro\snackbar_leprechan_cartoon.avi
  1865. 20:09:48 T:2540   DEBUG: CSaveFileStateJob::DoWork - Marking video item C:\Videos\Movie Theater Intro\snackbar_leprechan_cartoon.avi as watched
  1866. 20:09:50 T:2612   DEBUG: CDVDPlayerAudio:: Discontinuity - was:2093063.334034, should be:2061808.580583, error:-31254.753451
  1867. 20:09:51 T:2796   DEBUG: CWinEventsWin32::WndProcWindow is inactive
  1868. 20:09:51 T:2796   DEBUG: CWinEventsWin32::WndProc: window move event
  1869. 20:09:51 T:2796   DEBUG: CWinEventsWin32::WndProc: window resize event
  1870. 20:09:51 T:2796   DEBUG: CWinEventsWin32::WndProcWindow is active
  1871. 20:09:52 T:1648   DEBUG: CPullupCorrection: detected pattern of length 1: 32000.00, frameduration: 32000.000000
  1872. 20:10:18 T:2540   DEBUG: Thread Jobworker 2540 terminating (autodelete)
  1873. 20:10:36 T:2612   DEBUG: CDVDPlayerAudio - CDVDMsg::GENERAL_EOF
  1874. 20:10:36 T:2612   DEBUG: CDVDAudio::Drain - adding 9080 bytes of silence, buffer size: 3304, chunk size: 12384
  1875. 20:10:36 T:2612 WARNING: CDVDMessageQueue(audio)::Get - asked for new data packet, with nothing available
  1876. 20:10:36 T:1648 WARNING: CDVDMessageQueue(video)::Get - asked for new data packet, with nothing available
  1877. 20:10:36 T:952  NOTICE: CDVDPlayer::OnExit()
  1878. 20:10:36 T:952  NOTICE: DVDPlayer: eof, waiting for queues to empty
  1879. 20:10:36 T:952  NOTICE: DVDPlayer: closing audio stream
  1880. 20:10:36 T:952  NOTICE: Closing audio stream
  1881. 20:10:36 T:952  NOTICE: CDVDMessageQueue(audio)::WaitUntilEmpty
  1882. 20:10:36 T:2612   DEBUG: CDVDPlayerAudio - CDVDMsg::GENERAL_SYNCHRONIZE
  1883. 20:10:36 T:952  NOTICE: Waiting for audio thread to exit
  1884. 20:10:36 T:2612   DEBUG: CDVDPlayerAudio::Process - Abort received, exiting thread
  1885. 20:10:36 T:2612  NOTICE: thread end: CDVDPlayerAudio::OnExit()
  1886. 20:10:36 T:2612   DEBUG: Thread CDVDPlayerAudio 2612 terminating
  1887. 20:10:36 T:952  NOTICE: Closing audio device
  1888. 20:10:37 T:952   DEBUG: CWin32DirectSound::WaitCompletion - timeout waiting for silence
  1889. 20:10:37 T:952   DEBUG: CWin32DirectSound::Deinitialize: Cleaning up
  1890. 20:10:37 T:952  NOTICE: Deleting audio codec
  1891. 20:10:37 T:952  NOTICE: DVDPlayer: closing video stream
  1892. 20:10:37 T:952  NOTICE: Closing video stream
  1893. 20:10:37 T:952  NOTICE: CDVDMessageQueue(video)::WaitUntilEmpty
  1894. 20:10:37 T:1648   DEBUG: CDVDPlayerVideo - CDVDMsg::GENERAL_SYNCHRONIZE
  1895. 20:10:37 T:952  NOTICE: waiting for video thread to exit
  1896. 20:10:37 T:1648   ERROR: Got MSGQ_ABORT or MSGO_IS_ERROR return true
  1897. 20:10:37 T:1648  NOTICE: thread end: video_thread
  1898. 20:10:37 T:1648   DEBUG: Thread CDVDPlayerVideo 1648 terminating
  1899. 20:10:37 T:952  NOTICE: deleting video codec
  1900. 20:10:37 T:952  NOTICE: CDVDPlayer::OnExit() deleting demuxer
  1901. 20:10:37 T:952  NOTICE: CDVDPlayer::OnExit() deleting input stream
  1902. 20:10:37 T:952   DEBUG: CAnnouncementManager - Announcement: OnStop from xbmc
  1903. 20:10:37 T:952   DEBUG: GOT ANNOUNCEMENT, type: 1, from xbmc, message OnStop
  1904. 20:10:37 T:952   DEBUG: Thread CDVDPlayer 952 terminating
  1905. 20:10:37 T:2796   DEBUG: CPlayerCoreFactory::GetPlayers(C:\Videos\Coming Attractions Intro\WalkIn-SneakPreview_512kb.avi)
  1906. 20:10:37 T:2796   DEBUG: CPlayerSelectionRule::GetPlayers: considering rule: system rules
  1907. 20:10:37 T:2796   DEBUG: CPlayerSelectionRule::GetPlayers: matches rule: system rules
  1908. 20:10:37 T:2796   DEBUG: CPlayerSelectionRule::GetPlayers: considering rule: rtv
  1909. 20:10:37 T:2796   DEBUG: CPlayerSelectionRule::GetPlayers: considering rule: hdhomerun/myth/rtmp/mms/udp
  1910. 20:10:37 T:2796   DEBUG: CPlayerSelectionRule::GetPlayers: considering rule: lastfm/shout
  1911. 20:10:37 T:2796   DEBUG: CPlayerSelectionRule::GetPlayers: considering rule: rtsp
  1912. 20:10:37 T:2796   DEBUG: CPlayerSelectionRule::GetPlayers: considering rule: streams
  1913. 20:10:37 T:2796   DEBUG: CPlayerSelectionRule::GetPlayers: considering rule: dvd
  1914. 20:10:37 T:2796   DEBUG: CPlayerSelectionRule::GetPlayers: considering rule: dvdfile
  1915. 20:10:37 T:2796   DEBUG: CPlayerSelectionRule::GetPlayers: considering rule: dvdimage
  1916. 20:10:37 T:2796   DEBUG: CPlayerSelectionRule::GetPlayers: considering rule: sdp/asf
  1917. 20:10:37 T:2796   DEBUG: CPlayerSelectionRule::GetPlayers: considering rule: nsv
  1918. 20:10:37 T:2796   DEBUG: CPlayerCoreFactory::GetPlayers: matched 0 rules with players
  1919. 20:10:37 T:2796   DEBUG: CPlayerCoreFactory::GetPlayers: adding videodefaultplayer (1)
  1920. 20:10:37 T:2796   DEBUG: CPlayerCoreFactory::GetPlayers: for video=1, audio=0
  1921. 20:10:37 T:2796   DEBUG: CPlayerCoreFactory::GetPlayers: for video=1, audio=1
  1922. 20:10:37 T:2796   DEBUG: CPlayerCoreFactory::GetPlayers: adding player: DVDPlayer (1)
  1923. 20:10:37 T:2796   DEBUG: CPlayerCoreFactory::GetPlayers: added 1 players
  1924. 20:10:37 T:2796  NOTICE: DVDPlayer: Opening: C:\Videos\Coming Attractions Intro\WalkIn-SneakPreview_512kb.avi
  1925. 20:10:37 T:2796  NOTICE: CDVDPlayer::CloseFile()
  1926. 20:10:37 T:2796 WARNING: CDVDMessageQueue(player)::Put MSGQ_NOT_INITIALIZED
  1927. 20:10:37 T:2796  NOTICE: DVDPlayer: waiting for threads to exit
  1928. 20:10:37 T:2796  NOTICE: DVDPlayer: finished waiting
  1929. 20:10:37 T:2796 WARNING: CDVDMessageQueue(player)::Put MSGQ_NOT_INITIALIZED
  1930. 20:10:37 T:2796   DEBUG: CRenderManager::UpdateDisplayLatency - Latency set to 0 msec
  1931. 20:10:37 T:2796   DEBUG: DXVA - cheking samples array size using 842094158 render target
  1932. 20:10:37 T:2796   DEBUG: DXVA - updated maximum samples count to 2
  1933. 20:10:37 T:2796   DEBUG: DXVA - cheking samples array size using 842094169 render target
  1934. 20:10:37 T:3116   DEBUG: Thread CDVDPlayer start, auto delete: 0
  1935. 20:10:37 T:3116  NOTICE: Creating InputStream
  1936. 20:10:37 T:3116   DEBUG: CUtil::ScanForExternalSubtitles: Searching for subtitles...
  1937. 20:10:37 T:3116   DEBUG: CUtil::ScanForExternalSubtitles: END (total time: 1 ms)
  1938. 20:10:37 T:3116  NOTICE: Creating Demuxer
  1939. 20:10:37 T:3116   DEBUG: CDVDDemuxFFmpeg::Open - probing detected format [avi]
  1940. 20:10:37 T:3116   DEBUG: CDVDDemuxFFmpeg::Open - av_find_stream_info starting
  1941. 20:10:37 T:3116   DEBUG: CDVDDemuxFFmpeg::Open - av_find_stream_info finished
  1942. 20:10:37 T:3116    INFO: ffmpeg[C2C]: Input #0, avi, from 'C:\Videos\Coming Attractions Intro\WalkIn-SneakPreview_512kb.avi':
  1943. 20:10:37 T:3116    INFO: ffmpeg[C2C]:   Duration: 00:00:44.70, start: 0.000000, bitrate: 37545 kb/s
  1944. 20:10:37 T:3116    INFO: ffmpeg[C2C]:     Stream #0.0: Video: dvvideo, yuv411p, 720x576 [PAR 64:45 DAR 16:9], 25 tbr, 31.25 tbn, 25 tbc
  1945. 20:10:37 T:3116    INFO: ffmpeg[C2C]:     Stream #0.1: Audio: pcm_s16le, 48000 Hz, 2 channels, s16, 1536 kb/s
  1946. 20:10:37 T:3116  NOTICE: Opening video stream: 0 source: 256
  1947. 20:10:37 T:3116  NOTICE: Creating video codec with codec id: 25
  1948. 20:10:37 T:3116   DEBUG: CDVDFactoryCodec: compiled in hardware support: CrystalHD:yes DXVA:yes
  1949. 20:10:37 T:3116   DEBUG: FactoryCodec - Video:  - Opening
  1950. 20:10:37 T:3116  NOTICE: CDVDVideoCodecFFmpeg::Open() Using codec: DV (Digital Video)
  1951. 20:10:37 T:3116   DEBUG: FactoryCodec - Video: ff-dvvideo - Opened
  1952. 20:10:37 T:3116  NOTICE: Creating video thread
  1953. 20:10:37 T:3116  NOTICE: Opening audio stream: 1 source: 256
  1954. 20:10:37 T:3116  NOTICE: Finding audio codec for: 65536
  1955. 20:10:37 T:3116   DEBUG: FactoryCodec - Audio: PassthroughFFmpeg - Opening
  1956. 20:10:37 T:2236   DEBUG: Thread CDVDPlayerVideo start, auto delete: 0
  1957. 20:10:37 T:2236  NOTICE: running thread: video_thread
  1958. 20:10:37 T:3116    INFO: CDVDAudioCodecPassthroughFFmpeg::Open - Won't transcode for HDMI
  1959. 20:10:37 T:3116   DEBUG: FactoryCodec - Audio: PassthroughFFmpeg - Failed
  1960. 20:10:37 T:3116   DEBUG: FactoryCodec - Audio: pcm - Opening
  1961. 20:10:37 T:3116   DEBUG: FactoryCodec - Audio: pcm - Opened
  1962. 20:10:37 T:3116  NOTICE: Creating audio thread
  1963. 20:10:37 T:3116   DEBUG: CEdl::ReadEditDecisionLists - Checking for edit decision lists (EDL) on local drive or remote share for: C:\Videos\Coming Attractions Intro\WalkIn-SneakPreview_512kb.avi
  1964. 20:10:37 T:2544   DEBUG: Thread CDVDPlayerAudio start, auto delete: 0
  1965. 20:10:37 T:2544  NOTICE: running thread: CDVDPlayerAudio::Process()
  1966. 20:10:37 T:3116   DEBUG: CDVDPlayer::SetCaching - caching state 2
  1967. 20:10:37 T:2236   DEBUG: CDVDPlayerVideo - CDVDMsg::GENERAL_SYNCHRONIZE
  1968. 20:10:37 T:2236    INFO: CDVDPlayerVideo - Stillframe left, switching to normal playback
  1969. 20:10:37 T:2544  NOTICE: Creating audio device with codec id: 65536, channels: 2, sample rate: 48000, no pass-through
  1970. 20:10:37 T:2544    INFO: CPCMRemap: Configured speaker layout: 5.1
  1971. 20:10:37 T:2544    INFO: CPCMRemap: I channel map: FL,FR
  1972. 20:10:37 T:2544    INFO: CPCMRemap: O channel map: FL,FR
  1973. 20:10:37 T:2544   DEBUG: CPCMRemap: Downmix normalization is disabled
  1974. 20:10:37 T:2544   DEBUG: CPCMRemap: FL = FL(1.000000*)
  1975. 20:10:37 T:2544   DEBUG: CPCMRemap: FR = FR(1.000000*)
  1976. 20:10:37 T:2544   DEBUG: CWin32DirectSound::Initialize: Packet Size = 12384. Avg Bytes Per Second = 192000.
  1977. 20:10:37 T:2544   DEBUG: CWin32DirectSound::Initialize: secondary buffer created
  1978. 20:10:37 T:2544   DEBUG: CWin32DirectSound::Initialize - Channels: 2 - SampleRate: 48000 - SampleBit: 16 - Resample false - IsMusic false - IsPassthrough 0 - audioDevice: ATI HDMI Output (ATI High Definition Audio Device)
  1979. 20:10:37 T:2544   DEBUG: CDVDPlayerAudio:: synctype set to 0: clock feedback
  1980. 20:10:37 T:3116   DEBUG: CDVDPlayer::HandleMessages - player started 1
  1981. 20:10:37 T:2236  NOTICE:  fps: 25.000000, pwidth: 720, pheight: 576, dwidth: 720, dheight: 405
  1982. 20:10:37 T:2236   DEBUG: CDVDPlayerVideo::OutputPicture - change configuration. 720x576. framerate: 25.00. format: YV12
  1983. 20:10:37 T:2236  NOTICE: Display resolution DESKTOP : 1366x768 @ 60.00 - Full Screen (12)
  1984. 20:10:37 T:2236   DEBUG: CWinRenderer::SelectRenderMethod: Requested render method: 0
  1985. 20:10:37 T:2236   DEBUG: CWinShader::LoadEffect - loading shader special://xbmc/system/shaders/testshader.fx
  1986. 20:10:37 T:2236   DEBUG: CWinRenderer::SelectRenderMethod: Selected render method 1: Pixel Shaders
  1987. 20:10:37 T:2236   DEBUG: CPullupCorrection: pattern lost on diff -48704000.000000
  1988. 20:10:37 T:2796   DEBUG: created video buffer 0
  1989. 20:10:37 T:2796   DEBUG: created video buffer 1
  1990. 20:10:37 T:2796   DEBUG: CWinShader::LoadEffect - loading shader special://xbmc/system/shaders/yuv2rgb_d3d.fx
  1991. 20:10:37 T:2796   DEBUG: CGUIInfoManager::SetCurrentMovie(C:\Videos\Coming Attractions Intro\WalkIn-SneakPreview_512kb.avi)
  1992. 20:10:37 T:2796   DEBUG: CVideoDatabase::GetMovieId (C:\Videos\Coming Attractions Intro\WalkIn-SneakPreview_512kb.avi), query = select idMovie from movie where idFile=28
  1993. 20:10:37 T:2796   DEBUG: CVideoDatabase::GetEpisodeId (C:\Videos\Coming Attractions Intro\WalkIn-SneakPreview_512kb.avi), query = select idEpisode from episode where idFile=28
  1994. 20:10:37 T:2796   DEBUG: CVideoDatabase::GetMusicVideoId (C:\Videos\Coming Attractions Intro\WalkIn-SneakPreview_512kb.avi), query = select idMVideo from musicvideo where idFile=28
  1995. 20:10:37 T:2796   DEBUG: CVideoDatabase::GetMovieId (C:\Videos\Coming Attractions Intro\WalkIn-SneakPreview_512kb.avi), query = select idMovie from movie where idFile=28
  1996. 20:10:37 T:2796   DEBUG: CVideoDatabase::GetEpisodeId (C:\Videos\Coming Attractions Intro\WalkIn-SneakPreview_512kb.avi), query = select idEpisode from episode where idFile=28
  1997. 20:10:37 T:2796   DEBUG: CVideoDatabase::GetMusicVideoId (C:\Videos\Coming Attractions Intro\WalkIn-SneakPreview_512kb.avi), query = select idMVideo from musicvideo where idFile=28
  1998. 20:10:37 T:2796   DEBUG: CAnnouncementManager - Announcement: OnPlay from xbmc
  1999. 20:10:37 T:2796   DEBUG: GOT ANNOUNCEMENT, type: 1, from xbmc, message OnPlay
  2000. 20:10:37 T:3380   DEBUG: Thread Jobworker start, auto delete: 1
  2001. 20:10:37 T:3380   DEBUG: CSaveFileStateJob::DoWork - Saving file state for video item C:\Videos\Movie Theater Intro\toddy_fearless_cartoon.avi
  2002. 20:10:37 T:3380   DEBUG: CSaveFileStateJob::DoWork - Marking video item C:\Videos\Movie Theater Intro\toddy_fearless_cartoon.avi as watched
  2003. 20:10:37 T:3116   DEBUG: CDVDPlayer::HandleMessages - player started 2
  2004. 20:10:37 T:3116   DEBUG: CDVDPlayer::SetCaching - caching state 3
  2005. 20:10:37 T:2236   DEBUG: CDVDPlayerVideo - CDVDMsg::GENERAL_DELAY(10666.666667)
  2006. 20:10:37 T:2544   DEBUG: CDVDPlayerAudio - CDVDMsg::GENERAL_RESYNC(21333.333333, 1)
  2007. 20:10:37 T:2544   DEBUG: CDVDPlayerAudio:: Discontinuity - was:22.527627, should be:0.000000, error:-22.527627
  2008. 20:10:37 T:3116   DEBUG: CDVDPlayer::SetCaching - caching state 0
  2009. 20:10:37 T:2544 WARNING: CDVDMessageQueue(audio)::Get - asked for new data packet, with nothing available
  2010. 20:10:37 T:2236   DEBUG: CDVDPlayerVideo - CDVDMsg::GENERAL_RESYNC(32000.000000, 0)
  2011. 20:10:37 T:2544 WARNING: CDVDMessageQueue(audio)::Get - asked for new data packet, with nothing available
  2012. 20:10:37 T:2544 WARNING: Previous line repeats 1 times.
  2013. 20:10:37 T:2544   DEBUG: CWin32DirectSound::CheckPlayStatus: Resuming Playback
  2014. 20:10:37 T:3472  NOTICE: [ script.cinema.experience ] - Item From Trigger List: Coming Attractions Intro
  2015. 20:10:37 T:3472  NOTICE: [ script.cinema.experience ] - Playlist Position: 6  Playlist Size: 11
  2016. 20:10:37 T:2196  NOTICE: [script.cinema.experience] - [ home_automation.py ] - activate_on( Coming Attractions Intro ) Triggered
  2017. 20:10:37 T:3472  NOTICE: [ script.cinema.experience ] - autorefresh_movie: False
  2018. 20:10:38 T:2544   DEBUG: CDVDPlayerAudio:: Discontinuity - was:1004220.858125, should be:993043.938635, error:-11176.919490
  2019. 20:10:39 T:2544   DEBUG: CDVDPlayerAudio:: Discontinuity - was:2023066.097628, should be:1935130.109208, error:-87935.988420
  2020. 20:10:41 T:2236   DEBUG: CPullupCorrection: detected pattern of length 1: 32000.00, frameduration: 32000.000000
  2021. 20:11:07 T:3380   DEBUG: Thread Jobworker 3380 terminating (autodelete)
  2022. 20:11:20 T:2544   DEBUG: CDVDPlayerAudio - CDVDMsg::GENERAL_EOF
  2023. 20:11:20 T:2544   DEBUG: CDVDAudio::Drain - adding 960 bytes of silence, buffer size: 11424, chunk size: 12384
  2024. 20:11:20 T:2544 WARNING: CDVDMessageQueue(audio)::Get - asked for new data packet, with nothing available
  2025. 20:11:21 T:2236 WARNING: CDVDMessageQueue(video)::Get - asked for new data packet, with nothing available
  2026. 20:11:21 T:3116  NOTICE: CDVDPlayer::OnExit()
  2027. 20:11:21 T:3116  NOTICE: DVDPlayer: eof, waiting for queues to empty
  2028. 20:11:21 T:3116  NOTICE: DVDPlayer: closing audio stream
  2029. 20:11:21 T:3116  NOTICE: Closing audio stream
  2030. 20:11:21 T:3116  NOTICE: CDVDMessageQueue(audio)::WaitUntilEmpty
  2031. 20:11:22 T:2236    INFO: CDVDPlayerVideo - Stillframe detected, switching to forced 25.000000 fps
  2032. 20:11:22 T:2236   DEBUG: CPullupCorrection: pattern lost on diff 200000.000000
  2033. 20:11:22 T:2544   DEBUG: CWin32DirectSound::WaitCompletion - timeout waiting for silence
  2034. 20:11:22 T:2544   DEBUG: CDVDPlayerAudio - CDVDMsg::GENERAL_SYNCHRONIZE
  2035. 20:11:22 T:3116  NOTICE: Waiting for audio thread to exit
  2036. 20:11:22 T:2544   DEBUG: CDVDPlayerAudio::Process - Abort received, exiting thread
  2037. 20:11:22 T:2544  NOTICE: thread end: CDVDPlayerAudio::OnExit()
  2038. 20:11:22 T:2544   DEBUG: Thread CDVDPlayerAudio 2544 terminating
  2039. 20:11:22 T:3116  NOTICE: Closing audio device
  2040. 20:11:22 T:3116   DEBUG: CWin32DirectSound::Deinitialize: Cleaning up
  2041. 20:11:22 T:3116  NOTICE: Deleting audio codec
  2042. 20:11:22 T:3116  NOTICE: DVDPlayer: closing video stream
  2043. 20:11:22 T:3116  NOTICE: Closing video stream
  2044. 20:11:22 T:3116  NOTICE: CDVDMessageQueue(video)::WaitUntilEmpty
  2045. 20:11:22 T:2236   DEBUG: CDVDPlayerVideo - CDVDMsg::GENERAL_SYNCHRONIZE
  2046. 20:11:22 T:3116  NOTICE: waiting for video thread to exit
  2047. 20:11:22 T:2236   ERROR: Got MSGQ_ABORT or MSGO_IS_ERROR return true
  2048. 20:11:22 T:2236  NOTICE: thread end: video_thread
  2049. 20:11:22 T:2236   DEBUG: Thread CDVDPlayerVideo 2236 terminating
  2050. 20:11:22 T:3116  NOTICE: deleting video codec
  2051. 20:11:22 T:3116  NOTICE: CDVDPlayer::OnExit() deleting demuxer
  2052. 20:11:22 T:3116  NOTICE: CDVDPlayer::OnExit() deleting input stream
  2053. 20:11:22 T:3116   DEBUG: CAnnouncementManager - Announcement: OnStop from xbmc
  2054. 20:11:22 T:3116   DEBUG: GOT ANNOUNCEMENT, type: 1, from xbmc, message OnStop
  2055. 20:11:23 T:3116   DEBUG: Thread CDVDPlayer 3116 terminating
  2056. 20:11:23 T:2796    INFO: XCURL::DllLibCurlGlobal::easy_aquire - Created session to http://trailers.apple.com
  2057. 20:11:23 T:3472  NOTICE: [ script.cinema.experience ] - Video may have stopped
  2058. 20:11:23 T:3472  NOTICE: [ script.cinema.experience ] - Video Definitely Stopped
  2059. 20:11:23 T:3472  NOTICE: [ script.cinema.experience ] - User might have pressed stop
  2060. 20:11:23 T:3472  NOTICE: [ script.cinema.experience ] - Stopping Script
  2061. 20:11:23 T:3472  NOTICE: [ script.cinema.experience ] - messy_exit: False
  2062. 20:11:23 T:3472  NOTICE: [ script.cinema.experience ] - Video Playlist Cleared
  2063. 20:11:23 T:3472  NOTICE: [ script.cinema.experience ] - Music Playlist Cleared
  2064. 20:11:23 T:3472  NOTICE: [ script.cinema.experience ] - auto_refresh( False, enable )
  2065. 20:11:23 T:2796   DEBUG: CFileCurl::GetMimeType - http://trailers.apple.com/movies/independent/keyhole/keyhole-tlr1_h720p.mov|User-Agent=QuickTime%2F7.6.5+%28qtver%3D7.6.5%3Bos%3DWindows+NT+5.1Service+Pack+3%29 -> video/quicktime
  2066. 20:11:23 T:2796   ERROR: Error trying to retrieve an item that's out of range
  2067. 20:11:23 T:2796   ERROR: exception in CApplication::Process()
  2068. 20:11:23 T:2796   DEBUG: HttpApi Start command: GetGuiSetting  paras: GetGuiSetting; 1; videoplayer.adjustrefreshrate
  2069. 20:11:23 T:3472  NOTICE: [ script.cinema.experience ] - Autorefresh Status: False
  2070. 20:11:23 T:3472  NOTICE: [script.cinema.experience] - [ home_automation.py ] - activate_on( Script End ) Triggered
  2071. 20:11:23 T:2796   DEBUG: SECTION:UnloadDelayed(SECTION: LCODE)
  2072. 20:11:23 T:2796   DEBUG: SECTION:UnloadDelayed(DLL: special://xbmcbin/system/players/dvdplayer/libmad.dll)
  2073. 20:11:23 T:1532   DEBUG: Thread Jobworker start, auto delete: 1
  2074. 20:11:23 T:1532   DEBUG: CSaveFileStateJob::DoWork - Saving file state for video item C:\Videos\Coming Attractions Intro\WalkIn-SneakPreview_512kb.avi
  2075. 20:11:23 T:1532   DEBUG: CSaveFileStateJob::DoWork - Marking video item C:\Videos\Coming Attractions Intro\WalkIn-SneakPreview_512kb.avi as watched
  2076. 20:11:24 T:2796   DEBUG: HttpApi Start command: SetGUISetting  paras: SetGUISetting; 3;screensaver.mode;None
  2077. 20:11:24 T:3472    INFO: Scriptresult: Success
  2078. 20:11:24 T:3472    INFO: Python script stopped
  2079. 20:11:24 T:3472   DEBUG: Thread XBPyThread 3472 terminating
  2080. 20:11:24 T:2796   DEBUG: waiting for python thread 7 to stop
  2081. 20:11:24 T:2796   DEBUG: python thread 7 destructed
  2082. 20:11:53 T:2796   DEBUG: SECTION:UnloadDelayed(DLL: special://xbmcbin/system/players/dvdplayer/avutil-50.dll)
  2083. 20:11:53 T:2796   DEBUG: SECTION:UnloadDelayed(DLL: special://xbmcbin/system/players/dvdplayer/avcore-0.dll)
  2084. 20:11:54 T:1532   DEBUG: Thread Jobworker 1532 terminating (autodelete)
  2085. 20:11:54 T:2796   DEBUG: SECTION:UnloadDelayed(DLL: special://xbmcbin/system/players/dvdplayer/avcodec-52.dll)
  2086. 20:11:54 T:2796    INFO: XCURL::DllLibCurlGlobal::CheckIdle - Closing session to http://trailers.apple.com (easy=024146D0, multi=00000000)
  2087. 20:11:54 T:2796   DEBUG: SECTION:UnloadDelayed(DLL: special://xbmcbin/system/players/dvdplayer/avformat-52.dll)
  2088. 20:11:55 T:2796   DEBUG: SECTION:UnloadDelayed(DLL: special://xbmcbin/system/players/dvdplayer/swscale-0.dll)
  2089. 20:11:55 T:2796   DEBUG: SECTION:UnloadDelayed(DLL: special://xbmcbin/system/players/dvdplayer/avfilter-1.dll)
  2090. 20:12:00 T:2632   DEBUG: ### [Qlock] - Delaying 240 secs
  2091. 20:12:00 T:2796   DEBUG: SDLKeyboard: scancode: 1d, sym: 0132, unicode: 0000, modifier: 40
  2092. 20:12:00 T:2796   DEBUG: CApplication::OnKey: ctrl-leftctrl (1f0d0) pressed, action is
  2093. 20:12:01 T:2796   DEBUG: SDLKeyboard: scancode: 38, sym: 0134, unicode: 0000, modifier: 140
  2094. 20:12:01 T:2796   DEBUG: CApplication::OnKey: ctrl-alt-leftalt (5f0d4) pressed, action is
  2095. 20:12:01 T:2796   DEBUG: SDLKeyboard: scancode: 38, sym: 0134, unicode: 0000, modifier: 140
  2096. 20:12:01 T:2796   DEBUG: CApplication::OnKey: ctrl-alt-leftalt (5f0d4) pressed, action is
  2097. 20:12:01 T:2796   DEBUG: CWinEventsWin32::WndProcWindow is inactive
  2098. 20:12:05 T:2796   DEBUG: CWinEventsWin32::WndProcWindow is active
  2099. 20:12:05 T:2796   DEBUG: CWinEventsWin32::WndProcWindow is inactive
  2100. 20:12:08 T:2796   DEBUG: Previous line repeats 1 times.
  2101. 20:12:08 T:2796   DEBUG: CWinEventsWin32::WndProc: window move event
  2102. 20:12:08 T:2796   DEBUG: CWinEventsWin32::WndProc: window resize event
  2103. 20:12:08 T:2796   DEBUG: CWinEventsWin32::WndProcWindow is active
  2104. 20:12:35 T:2796   DEBUG: SDLKeyboard: scancode: 1d, sym: 0132, unicode: 0000, modifier: 40
  2105. 20:12:35 T:2796   DEBUG: CApplication::OnKey: ctrl-leftctrl (1f0d0) pressed, action is
  2106. 20:12:35 T:2796   DEBUG: SDLKeyboard: scancode: 38, sym: 0134, unicode: 0000, modifier: 140
  2107. 20:12:35 T:2796   DEBUG: CApplication::OnKey: ctrl-alt-leftalt (5f0d4) pressed, action is
  2108. 20:12:36 T:2796   DEBUG: CWinEventsWin32::WndProcWindow is inactive
  2109. 20:12:39 T:2796   DEBUG: CWinEventsWin32::WndProcWindow is active
  2110. 20:12:39 T:2796   DEBUG: CWinEventsWin32::WndProcWindow is inactive
  2111. 20:12:43 T:2796   DEBUG: Previous line repeats 1 times.
  2112. 20:12:43 T:2796   DEBUG: CWinEventsWin32::WndProc: window move event
  2113. 20:12:43 T:2796   DEBUG: CWinEventsWin32::WndProc: window resize event
  2114. 20:12:43 T:2796   DEBUG: CWinEventsWin32::WndProcWindow is active
  2115. 20:12:47 T:2796   DEBUG: SDLKeyboard: scancode: 1d, sym: 0132, unicode: 0000, modifier: 40
  2116. 20:12:47 T:2796   DEBUG: CApplication::OnKey: ctrl-leftctrl (1f0d0) pressed, action is
  2117. 20:12:47 T:2796   DEBUG: SDLKeyboard: scancode: 38, sym: 0134, unicode: 0000, modifier: 140
  2118. 20:12:47 T:2796   DEBUG: CApplication::OnKey: ctrl-alt-leftalt (5f0d4) pressed, action is
  2119. 20:12:48 T:2796   DEBUG: SDLKeyboard: scancode: 38, sym: 0134, unicode: 0000, modifier: 140
  2120. 20:12:48 T:2796   DEBUG: CApplication::OnKey: ctrl-alt-leftalt (5f0d4) pressed, action is
  2121. 20:12:48 T:2796   DEBUG: SDLKeyboard: scancode: 38, sym: 0134, unicode: 0000, modifier: 140
  2122. 20:12:48 T:2796   DEBUG: CApplication::OnKey: ctrl-alt-leftalt (5f0d4) pressed, action is
  2123. 20:12:48 T:2796   DEBUG: CWinEventsWin32::WndProcWindow is inactive
  2124. 20:12:52 T:2796   DEBUG: CWinEventsWin32::WndProcWindow is active
  2125. 20:12:52 T:2796   DEBUG: CWinEventsWin32::WndProcWindow is inactive
  2126. 20:12:55 T:2796   DEBUG: CAnnouncementManager - Announcement: OnQuit from xbmc
  2127. 20:12:55 T:2796   DEBUG: GOT ANNOUNCEMENT, type: 4, from xbmc, message OnQuit
  2128. 20:12:55 T:2796  NOTICE: Storing total System Uptime
  2129. 20:12:55 T:2796  NOTICE: Saving settings
  2130. 20:12:55 T:2796  NOTICE: stop all
  2131. 20:12:55 T:2796   DEBUG: CNetwork::NetworkMessage - Signaling network services to stop
  2132. 20:12:55 T:2796  NOTICE: ES: Stopping event server
  2133. 20:12:55 T:2796   DEBUG: CNetwork::NetworkMessage - Waiting for network services to stop
  2134. 20:12:55 T:2796  NOTICE: stopping zeroconf publishing
  2135. 20:12:55 T:2796  NOTICE: Webserver: Stopping...
  2136. 20:12:55 T:2796  NOTICE: WebServer: Stopped the webserver
  2137. 20:12:55 T:2796  NOTICE: Webserver: Stopped...
  2138. 20:12:56 T:3540   DEBUG: Thread JSONRPC::CTCPServer 3540 terminating
  2139. 20:12:56 T:3584  NOTICE: ES: UDP Event server stopped
  2140. 20:12:56 T:3584   DEBUG: Thread CEventServer 3584 terminating
  2141. 20:12:56 T:3932   DEBUG: Thread XBMC Peripherals 3932 terminating
  2142. 20:12:56 T:2796  NOTICE: stop player
  2143. 20:12:56 T:2796  NOTICE: CDVDPlayer::CloseFile()
  2144. 20:12:56 T:2796 WARNING: CDVDMessageQueue(player)::Put MSGQ_NOT_INITIALIZED
  2145. 20:12:56 T:2796  NOTICE: DVDPlayer: waiting for threads to exit
  2146. 20:12:56 T:2796  NOTICE: DVDPlayer: finished waiting
  2147. 20:12:56 T:2796  NOTICE: stop sap announcement listener
  2148. 20:12:56 T:2796  NOTICE: clean cached files!
  2149. 20:12:56 T:2796  NOTICE: unload skin
  2150. 20:12:56 T:2796    INFO: Unloading old skin ...
  2151. 20:12:56 T:2796   DEBUG: ------ Window Deinit () ------
  2152. 20:12:56 T:2796   DEBUG: ------ Window Deinit (VideoFullScreen.xml) ------
  2153. 20:12:56 T:2796   DEBUG: CTextureBundleXBT::Cleanup - Closed bundle
  2154. 20:12:56 T:2796   DEBUG: ADDON: Stopping service addons.
  2155. 20:12:56 T:2796    INFO: Stopping script with id: 5
  2156. 20:12:56 T:3676  NOTICE: StorageServer-0.9.2 Closed down
  2157. 20:12:56 T:3676    INFO: Scriptresult: Success
  2158. 20:12:56 T:2796    INFO: Stopping script with id: 3
  2159. 20:12:57 T:2632    INFO: Scriptresult: Aborted
  2160. 20:12:57 T:3676    INFO: Python script interrupted by user
  2161. 20:12:57 T:2796  NOTICE: stop python
  2162. 20:12:57 T:2796   DEBUG: waiting for python thread 3 to stop
  2163. 20:12:57 T:3676   DEBUG: Thread XBPyThread 3676 terminating
  2164. 20:12:57 T:2632    INFO: Python script interrupted by user
  2165. 20:12:57 T:2632   DEBUG: Thread XBPyThread 2632 terminating
  2166. 20:12:57 T:2796   DEBUG: python thread 3 destructed
  2167. 20:12:57 T:3256   DEBUG: script.watchlist: script stopped: xbmc quit
  2168. 20:12:57 T:3256    INFO: Scriptresult: Success
  2169. 20:12:57 T:2796   DEBUG: waiting for python thread 4 to stop
  2170. 20:12:57 T:3256    INFO: Python script interrupted by user
  2171. 20:12:57 T:3256   DEBUG: Thread XBPyThread 3256 terminating
  2172. 20:12:57 T:2796   DEBUG: python thread 4 destructed
  2173. 20:12:57 T:2796   DEBUG: waiting for python thread 5 to stop
  2174. 20:12:57 T:2796   DEBUG: python thread 5 destructed
  2175. 20:12:57 T:2796  NOTICE: stopped
  2176. 20:12:57 T:2796  NOTICE: destroy
  2177. 20:12:57 T:2796    INFO: ADDON: cpluff: 'An unreleased information object was encountered at address 02FFFDD0 with reference count 1 when destroying the associated plug-in context. Not releasing the object.'
  2178. 20:12:57 T:2796    INFO: ADDON: cpluff: 'An unreleased information object was encountered at address 02FD6DA0 with reference count 1 when destroying the associated plug-in context. Not releasing the object.'
  2179. 20:12:57 T:2796  NOTICE: closing down remote control service
  2180. 20:12:57 T:2796  NOTICE: unload sections
  2181. 20:12:57 T:2796    INFO: lastfm destroyed
  2182. 20:12:57 T:2796  NOTICE: destroy
  2183. 20:12:57 T:2796 WARNING: Attempted to remove window 10013 from the window manager when it didn't exist
  2184. 20:12:57 T:2796 WARNING: Attempted to remove window 10014 from the window manager when it didn't exist
  2185. 20:12:57 T:2796 WARNING: Attempted to remove window 10015 from the window manager when it didn't exist
  2186. 20:12:57 T:2796 WARNING: Attempted to remove window 10016 from the window manager when it didn't exist
  2187. 20:12:57 T:2796 WARNING: Attempted to remove window 10017 from the window manager when it didn't exist
  2188. 20:12:57 T:2796 WARNING: Attempted to remove window 10018 from the window manager when it didn't exist
  2189. 20:12:57 T:2796 WARNING: Attempted to remove window 10019 from the window manager when it didn't exist
  2190. 20:12:57 T:2796 WARNING: Attempted to remove window 10107 from the window manager when it didn't exist
  2191. 20:12:57 T:2796 WARNING: Attempted to remove window 10115 from the window manager when it didn't exist
  2192. 20:12:57 T:2796 WARNING: Attempted to remove window 10104 from the window manager when it didn't exist
  2193. 20:12:57 T:2796  NOTICE: closing down remote control service
  2194. 20:12:57 T:2796  NOTICE: unload sections
  2195. 20:12:57 T:2796  NOTICE: application stopped...
  2196. 20:12:57 T:2796   DEBUG: SECTION:UnloadDll(special://xbmcbin/system/libcurl.dll)
  2197. 20:12:57 T:2796   DEBUG: SECTION:UnloadAll(DLL: special://xbmcbin/system/cpluff.dll)
clone this paste RAW Paste Data